[[{"header":{"parameterUnit":"m.s-1","parameterCategory":1,"la1":31.0,"la2":29.5877,"lo1":-88.7671,"lo2":-86.6584,"dx":0.0162,"dy":0.0185,"nx":115,"ny":88,"refTime":"2023-01-15T06:00:00:Z","depth":0,"parameterNumber":2,"parameterNumberName":"U-component_of_WINDS"},"data":[0.0,0.0,0.0,0.0,0.0,0.0,0.0,0.0,0.0,0.0,0.0,0.0,0.0,0.0,0.0,0.0,0.0,0.0,0.0,0.0,0.0,0.0,0.0,0.0,0.0,0.0,0.0,0.0,0.0,0.0,0.0,0.0,0.0,0.0,0.0,0.0,0.0,0.0,0.0,0.0,0.0,0.0,0.0,0.0,0.0,0.0,0.0,0.0,0.0,0.0,0.0,0.0,0.0,0.0,0.0,0.0,0.0,0.0,0.0,0.0,0.0,0.0,0.0,0.0,0.0,0.0,0.0,0.0,0.0,0.0,0.0,0.0,0.0,0.0,0.0,0.0,0.0,0.0,0.0,0.0,0.0,0.0,0.0,0.0,0.0,0.0,0.0,0.0,0.0,0.0,0.0,0.0,0.0,0.0,0.0,0.0,0.0,0.0,0.0,0.0,0.0,0.0,0.0,0.0,0.0,0.0,0.0,0.0,0.0,0.0,0.0,0.0,0.0,0.0,0.0,0.0,0.0,0.0,0.0,0.0,0.0,0.0,0.0,0.0,0.0,0.0,0.0,0.0,0.0,0.0,0.0,0.0,0.0,0.0,0.0,0.0,0.0,0.0,0.0,0.0,0.0,0.0,0.0,0.0,0.0,0.0,0.0,0.0,0.0,0.0,0.0,0.0,0.0,0.0,0.0,0.0,0.0,0.0,0.0,0.0,0.0,0.0,0.0,0.0,0.0,0.0,0.0,0.0,0.0,0.0,0.0,0.0,0.0,0.0,0.0,0.0,0.0,0.0,0.0,0.0,0.0,0.0,0.0,0.0,0.0,0.0,0.0,0.0,0.0,0.0,0.0,0.0,0.0,0.0,0.0,0.0,0.0,0.0,0.0,0.0,0.0,0.0,0.0,0.0,0.0,0.0,0.0,0.0,0.0,0.0,0.0,0.0,0.0,0.0,0.0,0.0,0.0,0.0,0.0,0.0,0.0,0.0,0.0,0.0,0.0,0.0,0.0,0.0,0.0,0.0,0.0,0.0,0.0,0.0,0.0,0.0,0.0,0.0,0.0,0.0,0.0,0.0,0.0,0.0,0.0,0.0,0.0,0.0,0.0,0.0,0.0,0.0,0.0,0.0,0.0,0.0,0.0,0.0,0.0,0.0,0.0,0.0,0.0,0.0,0.0,0.0,0.0,0.0,0.0,0.0,0.0,0.0,0.0,0.0,0.0,0.0,0.0,0.0,0.0,0.0,0.0,0.0,0.0,0.0,0.0,0.0,0.0,0.0,0.0,0.0,0.0,0.0,0.0,0.0,0.0,0.0,0.0,0.0,0.0,0.0,0.0,0.0,0.0,0.0,0.0,0.0,0.0,0.0,0.0,0.0,0.0,0.0,0.0,0.0,0.0,0.0,0.0,0.0,0.0,0.0,0.0,0.0,0.0,0.0,0.0,0.0,0.0,0.0,0.0,0.0,0.0,0.0,0.0,0.0,0.0,0.0,0.0,0.0,0.0,0.0,0.0,0.0,0.0,0.0,0.0,0.0,0.0,0.0,0.0,0.0,0.0,0.0,0.0,0.0,0.0,0.0,0.0,0.0,0.0,0.0,0.0,0.0,0.0,0.0,0.0,0.0,0.0,0.0,0.0,0.0,0.0,0.0,0.0,0.0,0.0,0.0,0.0,0.0,0.0,0.0,0.0,0.0,0.0,0.0,0.0,0.0,0.0,0.0,0.0,0.0,0.0,0.0,0.0,0.0,0.0,0.0,0.0,0.0,0.0,0.0,0.0,0.0,0.0,0.0,0.0,0.0,0.0,0.0,0.0,0.0,0.0,0.0,0.0,0.0,0.0,0.0,0.0,0.0,0.0,0.0,0.0,0.0,0.0,0.0,0.0,0.0,0.0,0.0,0.0,0.0,0.0,0.0,0.0,0.0,0.0,0.0,0.0,0.0,0.0,0.0,0.0,0.0,0.0,0.0,0.0,0.0,0.0,0.0,0.0,0.0,0.0,0.0,0.0,0.0,0.0,0.0,0.0,0.0,0.0,0.0,0.0,0.0,0.0,0.0,0.0,0.0,0.0,0.0,0.0,0.0,0.0,0.0,0.0,0.0,0.0,0.0,0.0,0.0,0.0,0.0,0.0,0.0,0.0,0.0,0.0,0.0,0.0,0.0,0.0,0.0,0.0,0.0,0.0,0.0,0.0,0.0,0.0,0.0,0.0,0.0,0.0,0.0,0.0,0.0,0.0,0.0,0.0,0.0,0.0,0.0,0.0,0.0,0.0,0.0,0.0,0.0,0.0,0.0,0.0,0.0,0.0,0.0,0.0,0.0,0.0,0.0,0.0,0.0,0.0,0.0,0.0,0.0,0.0,0.0,0.0,0.0,0.0,0.0,0.0,0.0,0.0,0.0,0.0,0.0,0.0,0.0,0.0,0.0,0.0,0.0,0.0,0.0,0.0,0.0,0.0,0.0,0.0,0.0,0.0,0.0,0.0,0.0,0.0,0.0,0.0,0.0,0.0,0.0,0.0,0.0,0.0,0.0,0.0,0.0,0.0,0.0,0.0,0.0,0.0,0.0,0.0,0.0,0.0,0.0,0.0,0.0,0.0,0.0,0.0,0.0,0.0,0.0,0.0,0.0,0.0,0.0,0.0,0.0,0.0,0.0,0.0,0.0,0.0,0.0,0.0,0.0,0.0,0.0,0.0,0.0,0.0,0.0,0.0,0.0,0.0,0.0,0.0,0.0,0.0,0.0,0.0,0.0,0.0,0.0,0.0,0.0,0.0,0.0,0.0,0.0,0.0,0.0,0.0,0.0,0.0,0.0,0.0,0.0,0.0,0.0,0.0,0.0,0.0,0.0,0.0,0.0,0.0,0.0,0.0,0.0,0.0,0.0,0.0,0.0,0.0,0.0,0.0,0.0,0.0,0.0,0.0,0.0,0.0,0.0,0.0,0.0,0.0,0.0,0.0,0.0,0.0,0.0,0.0,0.0,0.0,0.0,0.0,0.0,0.0,0.0,0.0,0.0,0.0,0.0,0.0,0.0,0.0,0.0,0.0,0.0,0.0,0.0,0.0,0.0,0.0,0.0,0.0,0.0,0.0,0.0,0.0,0.0,0.0,0.0,0.0,0.0,0.0,0.0,0.0,0.0,0.0,0.0,0.0,0.0,0.0,0.0,0.0,0.0,0.0,0.0,0.0,0.0,0.0,0.0,0.0,0.0,0.0,0.0,0.0,0.0,0.0,0.0,0.0,0.0,0.0,0.0,0.0,0.0,0.0,0.0,0.0,0.0,0.0,0.0,0.0,0.0,0.0,0.0,0.0,0.0,0.0,0.0,0.0,0.0,0.0,0.0,0.0,0.0,0.0,0.0,0.0,0.0,0.0,0.0,0.0,0.0,0.0,0.0,0.0,0.0,0.0,0.0,0.0,0.0,0.0,0.0,0.0,0.0,0.0,0.0,0.0,0.0,0.0,0.0,0.0,0.0,0.0,0.0,0.0,0.0,0.0,0.0,0.0,0.0,0.0,0.0,0.0,0.0,0.0,0.0,0.0,0.0,0.0,0.0,0.0,0.0,0.0,0.0,0.0,0.0,0.0,0.0,0.0,0.0,0.0,0.0,0.0,0.0,0.0,0.0,0.0,0.0,0.0,0.0,0.0,0.0,0.0,0.0,0.0,0.0,0.0,0.0,0.0,0.0,0.0,0.0,0.0,0.0,0.0,0.0,0.0,0.0,0.0,0.0,0.0,0.0,0.0,0.0,0.0,0.0,0.0,0.0,0.0,0.0,0.0,0.0,0.0,0.0,0.0,0.0,0.0,0.0,0.0,0.0,0.0,0.0,0.0,0.0,0.0,0.0,0.0,0.0,0.0,0.0,0.0,0.0,0.0,0.0,0.0,0.0,0.0,0.0,0.0,0.0,0.0,0.0,0.0,0.0,0.0,0.0,0.0,0.0,0.0,0.0,0.0,0.0,0.0,0.0,0.0,0.0,0.0,0.0,0.0,0.0,0.0,0.0,0.0,0.0,0.0,0.0,0.0,0.0,0.0,0.0,0.0,0.0,0.0,0.0,0.0,0.0,0.0,0.0,0.0,0.0,0.0,0.0,0.0,0.0,0.0,0.0,0.0,0.0,0.0,0.0,0.0,0.0,0.0,0.0,0.0,0.0,0.0,0.0,0.0,0.0,0.0,0.0,0.0,0.0,0.0,0.0,0.0,0.0,0.0,0.0,0.0,0.0,0.0,0.0,0.0,0.0,0.0,0.0,0.0,0.0,0.0,0.0,-4.6219,0.0,0.0,0.0,0.0,0.0,0.0,0.0,0.0,0.0,0.0,0.0,0.0,0.0,0.0,0.0,0.0,0.0,0.0,0.0,0.0,0.0,0.0,0.0,0.0,0.0,0.0,0.0,0.0,0.0,0.0,0.0,0.0,0.0,0.0,0.0,0.0,0.0,0.0,0.0,0.0,0.0,0.0,0.0,0.0,0.0,0.0,0.0,0.0,0.0,0.0,0.0,0.0,0.0,0.0,0.0,0.0,0.0,0.0,0.0,0.0,0.0,0.0,0.0,0.0,0.0,0.0,0.0,0.0,0.0,0.0,0.0,0.0,0.0,0.0,0.0,0.0,0.0,0.0,0.0,0.0,0.0,0.0,0.0,0.0,0.0,0.0,0.0,0.0,0.0,0.0,0.0,0.0,0.0,0.0,0.0,0.0,0.0,0.0,0.0,0.0,0.0,0.0,0.0,0.0,0.0,0.0,0.0,0.0,0.0,0.0,-4.6219,-4.6219,-4.6219,-4.6219,-4.6219,0.0,0.0,0.0,0.0,0.0,0.0,0.0,0.0,0.0,0.0,0.0,0.0,0.0,0.0,0.0,0.0,0.0,0.0,0.0,0.0,0.0,0.0,0.0,0.0,0.0,0.0,0.0,0.0,0.0,0.0,0.0,0.0,0.0,0.0,0.0,0.0,0.0,0.0,0.0,0.0,0.0,0.0,0.0,0.0,0.0,0.0,0.0,0.0,0.0,0.0,0.0,0.0,0.0,0.0,0.0,0.0,0.0,0.0,0.0,0.0,0.0,0.0,0.0,0.0,0.0,0.0,0.0,0.0,0.0,0.0,0.0,0.0,0.0,0.0,0.0,0.0,0.0,0.0,0.0,0.0,0.0,0.0,0.0,0.0,0.0,0.0,0.0,0.0,0.0,0.0,0.0,0.0,0.0,0.0,0.0,0.0,0.0,0.0,0.0,0.0,0.0,0.0,0.0,0.0,0.0,0.0,0.0,0.0,0.0,0.0,0.0,0.0,-4.6219,-4.6219,-4.6219,0.0,0.0,0.0,0.0,0.0,0.0,0.0,0.0,0.0,0.0,0.0,0.0,0.0,0.0,0.0,0.0,0.0,0.0,0.0,0.0,0.0,0.0,0.0,0.0,0.0,0.0,0.0,0.0,0.0,0.0,0.0,0.0,0.0,0.0,0.0,0.0,0.0,0.0,0.0,0.0,0.0,0.0,0.0,0.0,0.0,0.0,0.0,0.0,0.0,0.0,0.0,0.0,0.0,0.0,0.0,0.0,0.0,0.0,0.0,0.0,0.0,0.0,0.0,0.0,0.0,0.0,0.0,0.0,0.0,0.0,0.0,0.0,0.0,0.0,0.0,0.0,0.0,0.0,0.0,0.0,0.0,0.0,0.0,0.0,0.0,0.0,0.0,0.0,0.0,0.0,0.0,0.0,0.0,0.0,0.0,0.0,0.0,0.0,0.0,0.0,0.0,0.0,0.0,0.0,0.0,0.0,0.0,0.0,0.0,0.0,-4.6219,-4.6219,-4.6219,0.0,-4.6219,0.0,0.0,0.0,0.0,0.0,0.0,0.0,0.0,0.0,0.0,0.0,0.0,0.0,0.0,0.0,0.0,0.0,0.0,0.0,0.0,0.0,0.0,0.0,0.0,0.0,0.0,0.0,0.0,0.0,0.0,0.0,0.0,0.0,0.0,0.0,0.0,0.0,0.0,0.0,0.0,0.0,0.0,0.0,0.0,0.0,0.0,0.0,0.0,0.0,0.0,0.0,0.0,0.0,0.0,0.0,0.0,0.0,0.0,0.0,0.0,0.0,0.0,0.0,0.0,0.0,0.0,0.0,0.0,0.0,0.0,0.0,0.0,0.0,0.0,0.0,0.0,0.0,0.0,0.0,0.0,0.0,0.0,0.0,0.0,0.0,0.0,0.0,0.0,0.0,0.0,0.0,0.0,0.0,0.0,0.0,0.0,0.0,0.0,0.0,0.0,0.0,0.0,0.0,0.0,0.0,0.0,0.0,0.0,0.0,0.0,-4.6219,-4.6219,-4.6219,-4.6219,0.0,0.0,0.0,0.0,0.0,0.0,0.0,0.0,0.0,0.0,0.0,0.0,0.0,0.0,0.0,0.0,0.0,0.0,0.0,0.0,0.0,0.0,0.0,0.0,0.0,0.0,0.0,0.0,0.0,0.0,0.0,0.0,0.0,0.0,0.0,0.0,0.0,0.0,0.0,0.0,0.0,0.0,0.0,0.0,0.0,0.0,0.0,0.0,0.0,0.0,0.0,0.0,0.0,0.0,0.0,0.0,0.0,0.0,0.0,0.0,0.0,0.0,0.0,0.0,0.0,0.0,0.0,0.0,0.0,0.0,0.0,0.0,0.0,0.0,0.0,0.0,0.0,0.0,0.0,0.0,0.0,0.0,0.0,0.0,0.0,0.0,0.0,0.0,0.0,0.0,0.0,0.0,0.0,0.0,0.0,0.0,0.0,0.0,0.0,0.0,0.0,0.0,0.0,0.0,0.0,0.0,0.0,0.0,0.0,0.0,-4.6212,-4.6212,-4.6212,-4.6208,-4.6212,-4.6219,0.0,0.0,0.0,0.0,0.0,0.0,0.0,0.0,0.0,0.0,0.0,0.0,0.0,0.0,0.0,0.0,0.0,0.0,0.0,0.0,0.0,0.0,0.0,0.0,0.0,0.0,0.0,0.0,0.0,0.0,0.0,0.0,0.0,0.0,0.0,0.0,0.0,0.0,0.0,0.0,0.0,0.0,0.0,0.0,0.0,0.0,0.0,0.0,0.0,0.0,0.0,0.0,0.0,0.0,0.0,0.0,0.0,0.0,0.0,0.0,0.0,0.0,0.0,0.0,0.0,0.0,0.0,0.0,0.0,0.0,0.0,0.0,0.0,0.0,0.0,0.0,0.0,0.0,0.0,0.0,0.0,0.0,0.0,0.0,0.0,0.0,0.0,0.0,0.0,0.0,0.0,0.0,0.0,0.0,0.0,0.0,0.0,0.0,0.0,0.0,0.0,0.0,0.0,0.0,0.0,0.0,0.0,0.0,0.0,-4.6189,-4.6189,-4.6189,-4.6189,-4.6201,0.0,0.0,0.0,0.0,0.0,0.0,0.0,0.0,0.0,0.0,0.0,0.0,0.0,0.0,0.0,0.0,0.0,0.0,0.0,0.0,0.0,0.0,0.0,0.0,0.0,0.0,0.0,0.0,0.0,0.0,0.0,0.0,0.0,0.0,0.0,0.0,0.0,0.0,0.0,0.0,0.0,0.0,0.0,0.0,0.0,0.0,0.0,0.0,0.0,0.0,0.0,0.0,0.0,0.0,0.0,0.0,0.0,0.0,0.0,0.0,0.0,0.0,0.0,0.0,0.0,0.0,0.0,0.0,0.0,0.0,0.0,0.0,0.0,0.0,0.0,0.0,0.0,0.0,0.0,0.0,0.0,0.0,0.0,0.0,0.0,0.0,0.0,0.0,0.0,0.0,0.0,0.0,0.0,0.0,0.0,0.0,0.0,0.0,0.0,0.0,0.0,0.0,0.0,0.0,0.0,0.0,0.0,0.0,0.0,-4.6185,-4.6134,-4.6126,-4.613,-4.613,-4.6177,0.0,0.0,0.0,0.0,0.0,0.0,0.0,0.0,0.0,0.0,0.0,0.0,0.0,0.0,0.0,0.0,0.0,0.0,0.0,0.0,0.0,0.0,0.0,0.0,0.0,0.0,0.0,0.0,0.0,0.0,0.0,0.0,0.0,0.0,0.0,0.0,0.0,0.0,0.0,0.0,0.0,0.0,0.0,0.0,0.0,0.0,0.0,0.0,0.0,0.0,0.0,0.0,0.0,0.0,0.0,0.0,0.0,0.0,0.0,0.0,0.0,0.0,0.0,0.0,0.0,0.0,0.0,0.0,0.0,0.0,0.0,0.0,0.0,0.0,0.0,0.0,0.0,0.0,0.0,0.0,0.0,0.0,0.0,0.0,0.0,0.0,0.0,0.0,0.0,0.0,0.0,0.0,0.0,0.0,0.0,0.0,0.0,0.0,0.0,0.0,0.0,0.0,0.0,0.0,0.0,0.0,0.0,0.0,0.0,-4.6541,0.0,-4.6882,-4.6853,-4.663,-4.6493,0.0,0.0,0.0,0.0,0.0,0.0,0.0,0.0,0.0,0.0,0.0,0.0,0.0,0.0,0.0,0.0,0.0,0.0,0.0,0.0,0.0,0.0,0.0,0.0,0.0,0.0,0.0,0.0,0.0,0.0,0.0,0.0,0.0,0.0,0.0,0.0,0.0,0.0,0.0,0.0,0.0,0.0,0.0,0.0,0.0,0.0,0.0,0.0,0.0,0.0,0.0,0.0,0.0,0.0,0.0,0.0,0.0,0.0,0.0,0.0,0.0,0.0,0.0,0.0,0.0,0.0,0.0,0.0,0.0,0.0,0.0,0.0,0.0,0.0,0.0,0.0,0.0,0.0,0.0,0.0,0.0,0.0,0.0,0.0,0.0,0.0,0.0,0.0,0.0,0.0,0.0,0.0,0.0,0.0,0.0,0.0,0.0,0.0,0.0,0.0,0.0,0.0,0.0,0.0,0.0,0.0,0.0,0.0,-4.6653,-4.7317,-4.8069,-4.8477,-4.8502,-4.7761,-4.7323,0.0,0.0,0.0,0.0,0.0,0.0,0.0,0.0,0.0,0.0,0.0,0.0,0.0,0.0,0.0,0.0,0.0,0.0,0.0,0.0,0.0,0.0,0.0,0.0,0.0,0.0,0.0,0.0,0.0,0.0,0.0,0.0,0.0,0.0,0.0,0.0,0.0,0.0,0.0,0.0,0.0,0.0,0.0,0.0,0.0,0.0,0.0,0.0,0.0,0.0,0.0,0.0,0.0,0.0,0.0,0.0,0.0,0.0,0.0,0.0,0.0,0.0,0.0,0.0,0.0,0.0,0.0,0.0,0.0,0.0,0.0,0.0,0.0,0.0,0.0,0.0,0.0,0.0,0.0,0.0,0.0,0.0,0.0,0.0,0.0,0.0,0.0,0.0,0.0,0.0,0.0,0.0,0.0,0.0,0.0,0.0,0.0,0.0,0.0,0.0,0.0,0.0,0.0,0.0,0.0,0.0,0.0,0.0,0.0,-4.8948,-4.9178,-4.9234,-4.9241,-4.9083,-4.8399,0.0,0.0,0.0,0.0,0.0,0.0,0.0,0.0,0.0,0.0,0.0,0.0,0.0,0.0,0.0,0.0,0.0,0.0,0.0,0.0,0.0,0.0,0.0,0.0,0.0,0.0,0.0,0.0,0.0,0.0,0.0,0.0,0.0,0.0,0.0,0.0,0.0,0.0,0.0,0.0,0.0,0.0,0.0,0.0,0.0,0.0,0.0,0.0,0.0,0.0,0.0,0.0,0.0,0.0,0.0,0.0,0.0,0.0,0.0,0.0,0.0,0.0,0.0,0.0,0.0,0.0,0.0,0.0,0.0,0.0,0.0,0.0,0.0,0.0,0.0,0.0,0.0,0.0,0.0,0.0,0.0,0.0,0.0,0.0,0.0,0.0,0.0,0.0,0.0,0.0,0.0,0.0,0.0,0.0,0.0,0.0,0.0,0.0,0.0,0.0,0.0,0.0,0.0,0.0,0.0,0.0,0.0,0.0,0.0,-5.1932,-5.1305,-5.0996,-5.0996,-5.0434,-4.9681,-4.8651,0.0,0.0,0.0,0.0,0.0,0.0,0.0,0.0,0.0,0.0,0.0,0.0,0.0,0.0,0.0,0.0,0.0,0.0,0.0,0.0,0.0,0.0,0.0,0.0,0.0,0.0,0.0,0.0,0.0,0.0,0.0,0.0,0.0,0.0,0.0,0.0,0.0,0.0,0.0,0.0,0.0,0.0,0.0,0.0,0.0,0.0,0.0,0.0,0.0,0.0,0.0,0.0,0.0,0.0,0.0,0.0,0.0,0.0,0.0,0.0,0.0,0.0,0.0,0.0,0.0,0.0,0.0,0.0,0.0,0.0,0.0,0.0,0.0,0.0,0.0,0.0,0.0,0.0,0.0,0.0,0.0,0.0,0.0,0.0,0.0,0.0,0.0,0.0,0.0,0.0,0.0,0.0,0.0,0.0,0.0,0.0,0.0,0.0,0.0,0.0,0.0,0.0,0.0,0.0,0.0,0.0,0.0,0.0,-5.5738,-5.4352,-5.3532,-5.3378,-5.2,-5.1099,0.0,0.0,0.0,0.0,0.0,0.0,0.0,0.0,0.0,0.0,0.0,0.0,0.0,0.0,0.0,0.0,0.0,0.0,0.0,0.0,0.0,0.0,0.0,0.0,0.0,0.0,0.0,0.0,0.0,0.0,0.0,0.0,0.0,0.0,0.0,0.0,0.0,0.0,0.0,0.0,0.0,0.0,0.0,0.0,0.0,0.0,0.0,0.0,0.0,0.0,0.0,0.0,0.0,0.0,0.0,0.0,0.0,0.0,0.0,0.0,0.0,0.0,0.0,0.0,0.0,0.0,0.0,0.0,0.0,0.0,0.0,0.0,0.0,0.0,0.0,0.0,0.0,0.0,0.0,0.0,0.0,0.0,0.0,0.0,0.0,0.0,0.0,0.0,0.0,0.0,0.0,0.0,0.0,0.0,0.0,0.0,0.0,0.0,0.0,0.0,0.0,0.0,0.0,0.0,0.0,0.0,0.0,0.0,0.0,-5.5686,-5.65,-5.6346,-5.5129,-5.4728,-5.3367,0.0,0.0,0.0,0.0,0.0,0.0,0.0,0.0,0.0,0.0,0.0,0.0,0.0,0.0,0.0,0.0,0.0,0.0,0.0,0.0,0.0,0.0,0.0,0.0,0.0,0.0,0.0,0.0,0.0,0.0,0.0,0.0,0.0,0.0,0.0,0.0,0.0,0.0,0.0,0.0,0.0,0.0,0.0,0.0,0.0,0.0,0.0,0.0,0.0,0.0,0.0,0.0,0.0,0.0,0.0,0.0,0.0,0.0,0.0,0.0,0.0,0.0,0.0,0.0,0.0,0.0,0.0,0.0,0.0,0.0,0.0,0.0,0.0,0.0,0.0,0.0,0.0,0.0,0.0,0.0,0.0,0.0,0.0,0.0,0.0,0.0,0.0,0.0,0.0,0.0,0.0,0.0,0.0,0.0,0.0,0.0,0.0,0.0,0.0,0.0,0.0,0.0,0.0,0.0,0.0,0.0,0.0,0.0,-5.6312,-5.7774,-5.9122,-5.9149,-5.7816,-5.6472,-5.4718,0.0,0.0,0.0,0.0,0.0,0.0,0.0,0.0,0.0,0.0,0.0,0.0,0.0,0.0,0.0,0.0,0.0,0.0,0.0,0.0,0.0,0.0,0.0,0.0,0.0,0.0,0.0,0.0,0.0,0.0,0.0,0.0,0.0,0.0,0.0,0.0,0.0,0.0,0.0,0.0,0.0,0.0,0.0,0.0,0.0,0.0,0.0,0.0,0.0,0.0,0.0,0.0,0.0,0.0,0.0,0.0,0.0,0.0,0.0,0.0,0.0,0.0,0.0,0.0,0.0,0.0,0.0,0.0,0.0,0.0,0.0,0.0,0.0,0.0,0.0,0.0,0.0,0.0,0.0,0.0,0.0,0.0,0.0,0.0,0.0,0.0,0.0,0.0,0.0,0.0,0.0,0.0,0.0,0.0,0.0,0.0,0.0,0.0,0.0,0.0,0.0,0.0,0.0,0.0,0.0,0.0,0.0,0.0,-5.833,-6.0647,-6.1633,-6.1723,-6.0828,-5.7855,-5.5784,0.0,0.0,0.0,0.0,0.0,0.0,0.0,0.0,0.0,0.0,0.0,0.0,0.0,0.0,0.0,0.0,0.0,0.0,0.0,0.0,0.0,0.0,0.0,0.0,0.0,0.0,0.0,0.0,0.0,0.0,0.0,0.0,0.0,0.0,0.0,0.0,0.0,0.0,0.0,0.0,0.0,0.0,0.0,0.0,0.0,0.0,0.0,0.0,0.0,0.0,0.0,0.0,0.0,0.0,0.0,0.0,0.0,0.0,0.0,0.0,0.0,0.0,0.0,0.0,0.0,0.0,0.0,0.0,0.0,0.0,0.0,0.0,0.0,0.0,0.0,0.0,0.0,0.0,0.0,0.0,0.0,0.0,0.0,0.0,0.0,0.0,0.0,0.0,0.0,0.0,0.0,0.0,0.0,0.0,0.0,0.0,0.0,0.0,0.0,0.0,0.0,0.0,0.0,0.0,0.0,0.0,0.0,0.0,-5.8865,-6.0673,-6.2067,-6.2757,-6.2618,-6.0635,-5.8289,0.0,0.0,0.0,0.0,0.0,0.0,0.0,0.0,0.0,0.0,0.0,0.0,0.0,0.0,0.0,0.0,0.0,0.0,0.0,0.0,0.0,0.0,0.0,0.0,0.0,0.0,0.0,0.0,0.0,0.0,0.0,0.0,0.0,0.0,0.0,0.0,0.0,0.0,0.0,0.0,0.0,0.0,0.0,0.0,0.0,0.0,0.0,0.0,-5.2704,0.0,0.0,0.0,0.0,0.0,0.0,0.0,0.0,0.0,0.0,0.0,0.0,0.0,0.0,0.0,0.0,0.0,0.0,0.0,0.0,0.0,0.0,0.0,0.0,0.0,0.0,0.0,0.0,0.0,0.0,0.0,0.0,0.0,0.0,0.0,0.0,0.0,0.0,0.0,0.0,0.0,0.0,0.0,0.0,0.0,0.0,0.0,0.0,0.0,0.0,0.0,0.0,0.0,0.0,0.0,0.0,0.0,0.0,0.0,-6.0124,-6.1735,-6.2971,-6.366,-6.3652,-6.2437,-6.0252,0.0,0.0,0.0,0.0,0.0,0.0,0.0,0.0,0.0,0.0,0.0,0.0,0.0,0.0,0.0,0.0,0.0,0.0,0.0,0.0,0.0,0.0,0.0,0.0,0.0,0.0,0.0,0.0,0.0,0.0,0.0,0.0,0.0,0.0,0.0,0.0,0.0,0.0,0.0,0.0,0.0,0.0,0.0,0.0,0.0,0.0,0.0,0.0,0.0,0.0,0.0,0.0,0.0,0.0,0.0,0.0,0.0,0.0,0.0,0.0,0.0,0.0,0.0,0.0,0.0,0.0,0.0,0.0,0.0,0.0,0.0,0.0,0.0,0.0,0.0,0.0,0.0,0.0,0.0,0.0,0.0,0.0,0.0,0.0,0.0,0.0,0.0,0.0,0.0,0.0,0.0,0.0,0.0,0.0,0.0,0.0,0.0,0.0,0.0,0.0,0.0,0.0,0.0,0.0,0.0,0.0,0.0,-5.914,-6.1567,-6.3121,-6.4025,-6.4484,-6.4475,-6.3518,-6.1646,-5.8759,0.0,0.0,0.0,0.0,0.0,0.0,0.0,0.0,0.0,0.0,0.0,0.0,0.0,0.0,0.0,0.0,0.0,0.0,0.0,0.0,0.0,0.0,0.0,0.0,0.0,0.0,0.0,0.0,0.0,0.0,0.0,0.0,0.0,0.0,0.0,0.0,0.0,0.0,-5.1743,-5.4219,0.0,0.0,0.0,0.0,0.0,0.0,0.0,0.0,-5.7855,0.0,0.0,0.0,0.0,0.0,0.0,0.0,0.0,0.0,0.0,0.0,0.0,0.0,0.0,0.0,0.0,0.0,0.0,0.0,0.0,0.0,0.0,0.0,0.0,0.0,0.0,0.0,0.0,0.0,0.0,0.0,0.0,0.0,0.0,0.0,0.0,0.0,0.0,0.0,0.0,0.0,0.0,0.0,0.0,0.0,0.0,0.0,0.0,0.0,0.0,0.0,0.0,0.0,0.0,0.0,0.0,-5.7754,-6.0252,-6.2355,-6.4039,-6.4823,-6.5259,-6.535,-6.3893,-6.2247,-6.0408,0.0,0.0,0.0,0.0,0.0,0.0,0.0,0.0,0.0,0.0,0.0,0.0,0.0,0.0,0.0,0.0,0.0,0.0,0.0,0.0,0.0,0.0,0.0,0.0,0.0,0.0,0.0,0.0,0.0,0.0,0.0,0.0,0.0,0.0,0.0,0.0,0.0,0.0,0.0,-5.7281,-5.8421,0.0,0.0,0.0,0.0,0.0,0.0,0.0,0.0,-5.9222,0.0,0.0,0.0,0.0,0.0,0.0,0.0,0.0,0.0,0.0,0.0,0.0,0.0,0.0,0.0,0.0,0.0,0.0,0.0,0.0,0.0,0.0,0.0,0.0,0.0,0.0,0.0,0.0,0.0,0.0,0.0,0.0,0.0,0.0,0.0,0.0,0.0,0.0,0.0,0.0,0.0,0.0,0.0,0.0,0.0,0.0,0.0,0.0,0.0,0.0,0.0,0.0,0.0,0.0,0.0,-5.8078,-6.0901,-6.3126,-6.4823,-6.5238,-6.568,-6.6207,-6.4227,-6.2375,0.0,0.0,0.0,0.0,0.0,0.0,0.0,0.0,0.0,0.0,0.0,0.0,0.0,0.0,0.0,0.0,0.0,0.0,0.0,0.0,0.0,0.0,0.0,0.0,0.0,0.0,0.0,0.0,0.0,0.0,0.0,0.0,0.0,0.0,0.0,0.0,0.0,0.0,0.0,0.0,-5.9048,-6.0461,-6.0461,0.0,0.0,0.0,0.0,0.0,0.0,-6.336,-6.2501,0.0,0.0,0.0,0.0,0.0,0.0,0.0,0.0,0.0,0.0,0.0,0.0,0.0,0.0,0.0,0.0,0.0,0.0,0.0,0.0,0.0,0.0,0.0,0.0,0.0,0.0,0.0,0.0,0.0,0.0,0.0,0.0,0.0,0.0,0.0,0.0,0.0,0.0,0.0,0.0,0.0,0.0,0.0,0.0,0.0,0.0,0.0,0.0,0.0,0.0,0.0,0.0,0.0,0.0,0.0,-5.854,-6.1573,-6.3962,-6.5566,-6.5834,-6.6215,-6.6806,-6.4597,-6.2554,0.0,0.0,0.0,0.0,0.0,0.0,0.0,0.0,0.0,0.0,0.0,0.0,0.0,0.0,0.0,0.0,0.0,0.0,0.0,0.0,0.0,0.0,0.0,0.0,0.0,0.0,0.0,0.0,0.0,0.0,0.0,0.0,0.0,0.0,0.0,0.0,0.0,0.0,0.0,0.0,0.0,-6.2306,-6.2459,-6.3243,0.0,0.0,0.0,0.0,-6.6014,-6.5975,0.0,0.0,0.0,0.0,0.0,0.0,0.0,0.0,0.0,0.0,0.0,0.0,0.0,0.0,0.0,0.0,0.0,0.0,0.0,0.0,0.0,0.0,0.0,0.0,0.0,0.0,0.0,0.0,0.0,0.0,0.0,0.0,0.0,0.0,0.0,0.0,0.0,0.0,0.0,0.0,0.0,0.0,0.0,0.0,0.0,0.0,0.0,0.0,0.0,0.0,0.0,0.0,0.0,0.0,0.0,0.0,-6.0173,-6.2744,-6.4879,-6.6483,-6.7247,-6.737,-6.681,-6.5144,-6.3142,0.0,0.0,0.0,0.0,0.0,0.0,0.0,0.0,0.0,0.0,0.0,0.0,0.0,0.0,0.0,0.0,0.0,0.0,0.0,0.0,0.0,0.0,0.0,0.0,0.0,0.0,0.0,0.0,0.0,0.0,0.0,0.0,0.0,0.0,0.0,0.0,0.0,0.0,0.0,0.0,0.0,-6.4258,-6.5038,-6.5819,-6.6639,0.0,0.0,-6.7693,-6.781,-6.7146,0.0,0.0,0.0,0.0,0.0,0.0,0.0,0.0,0.0,0.0,0.0,0.0,0.0,0.0,0.0,0.0,0.0,0.0,0.0,0.0,0.0,0.0,0.0,0.0,0.0,0.0,0.0,0.0,0.0,0.0,0.0,0.0,0.0,0.0,0.0,0.0,0.0,0.0,0.0,0.0,0.0,0.0,0.0,0.0,0.0,0.0,0.0,0.0,0.0,0.0,0.0,0.0,0.0,0.0,0.0,-5.7161,-6.0441,-6.2935,-6.5222,-6.7286,-6.7706,-6.7791,-6.7469,-6.5935,-6.3717,0.0,0.0,0.0,0.0,0.0,0.0,0.0,0.0,0.0,0.0,0.0,0.0,0.0,0.0,0.0,0.0,0.0,0.0,0.0,0.0,0.0,0.0,0.0,0.0,0.0,0.0,0.0,0.0,0.0,0.0,0.0,0.0,0.0,0.0,0.0,0.0,0.0,0.0,0.0,0.0,0.0,0.0,-6.6834,-6.8161,0.0,0.0,0.0,-6.9564,-6.9606,0.0,0.0,0.0,0.0,0.0,0.0,0.0,0.0,0.0,0.0,0.0,0.0,0.0,0.0,0.0,0.0,0.0,0.0,0.0,0.0,0.0,0.0,0.0,0.0,0.0,0.0,0.0,0.0,0.0,0.0,0.0,0.0,0.0,0.0,0.0,0.0,0.0,0.0,0.0,0.0,0.0,0.0,0.0,0.0,0.0,0.0,0.0,0.0,0.0,0.0,0.0,0.0,0.0,0.0,0.0,0.0,0.0,-6.0453,-6.315,-6.5605,-6.7821,-6.8317,-6.8464,-6.8281,-6.671,0.0,0.0,0.0,0.0,0.0,0.0,0.0,0.0,0.0,0.0,0.0,0.0,0.0,0.0,0.0,0.0,0.0,0.0,0.0,0.0,0.0,0.0,0.0,0.0,0.0,0.0,0.0,-5.0555,0.0,0.0,0.0,0.0,0.0,0.0,0.0,0.0,0.0,0.0,0.0,0.0,0.0,0.0,-6.6366,-6.8474,-7.0074,-7.0855,0.0,0.0,-7.1285,-7.105,-6.9762,-6.8552,0.0,0.0,0.0,0.0,0.0,0.0,0.0,0.0,0.0,0.0,0.0,0.0,0.0,0.0,0.0,0.0,0.0,0.0,0.0,0.0,0.0,0.0,0.0,0.0,0.0,0.0,0.0,0.0,0.0,0.0,0.0,0.0,0.0,0.0,0.0,0.0,0.0,0.0,0.0,0.0,0.0,0.0,0.0,0.0,0.0,0.0,0.0,0.0,0.0,0.0,0.0,0.0,0.0,0.0,0.0,-6.0384,-6.3656,-6.6139,-6.7859,-6.9425,-6.9884,-6.9136,-6.7554,-6.5523,0.0,0.0,0.0,0.0,0.0,0.0,0.0,0.0,0.0,0.0,0.0,0.0,0.0,0.0,0.0,0.0,0.0,0.0,0.0,0.0,0.0,0.0,0.0,0.0,0.0,0.0,0.0,0.0,0.0,0.0,0.0,0.0,0.0,0.0,0.0,0.0,0.0,0.0,0.0,0.0,0.0,-6.6795,-7.0074,-7.1324,-7.2182,0.0,0.0,-7.2846,-7.2026,-7.1128,-6.9684,-6.7303,0.0,0.0,0.0,0.0,0.0,0.0,0.0,0.0,0.0,0.0,0.0,0.0,0.0,0.0,0.0,0.0,0.0,0.0,0.0,0.0,0.0,0.0,0.0,0.0,0.0,0.0,0.0,0.0,0.0,0.0,0.0,0.0,0.0,0.0,0.0,0.0,0.0,0.0,0.0,0.0,0.0,0.0,0.0,0.0,0.0,0.0,0.0,0.0,0.0,0.0,0.0,0.0,0.0,-5.7838,-6.1134,-6.4458,-6.6751,-6.7897,-6.954,-7.0037,-6.9196,-6.8128,-6.6374,0.0,0.0,0.0,0.0,0.0,0.0,0.0,0.0,0.0,0.0,0.0,0.0,0.0,0.0,0.0,0.0,0.0,0.0,0.0,0.0,0.0,0.0,0.0,0.0,0.0,0.0,0.0,0.0,-5.7816,-5.8402,-5.7855,0.0,0.0,0.0,0.0,0.0,0.0,0.0,0.0,0.0,0.0,-6.82,-7.1089,-7.269,0.0,0.0,-7.4486,-7.4525,-7.3666,-7.2417,-7.1167,-7.0152,-6.7264,0.0,0.0,0.0,0.0,0.0,0.0,0.0,0.0,0.0,0.0,0.0,0.0,0.0,0.0,0.0,0.0,0.0,0.0,0.0,0.0,0.0,0.0,0.0,0.0,0.0,0.0,0.0,0.0,0.0,0.0,0.0,0.0,0.0,0.0,0.0,0.0,0.0,0.0,0.0,0.0,0.0,0.0,0.0,0.0,0.0,0.0,0.0,0.0,0.0,0.0,0.0,0.0,-5.8691,-6.1975,-6.5108,-6.7247,-6.8241,-6.9655,-7.0151,-6.9578,-6.8785,-6.734,0.0,0.0,0.0,0.0,0.0,0.0,0.0,0.0,0.0,0.0,0.0,0.0,0.0,0.0,0.0,0.0,0.0,0.0,0.0,0.0,0.0,0.0,0.0,0.0,0.0,0.0,0.0,0.0,-5.8558,-5.887,-5.8246,0.0,0.0,0.0,0.0,0.0,0.0,0.0,0.0,0.0,0.0,-6.9723,-7.2065,-7.3822,-7.4915,-7.4876,-7.5384,-7.5504,-7.4642,-7.3315,-7.23,-7.2026,0.0,0.0,0.0,0.0,0.0,0.0,0.0,0.0,0.0,0.0,0.0,0.0,0.0,0.0,0.0,0.0,0.0,0.0,0.0,0.0,0.0,0.0,0.0,0.0,0.0,0.0,0.0,0.0,0.0,0.0,-4.8995,0.0,0.0,0.0,0.0,0.0,0.0,0.0,0.0,0.0,0.0,0.0,0.0,0.0,0.0,0.0,0.0,0.0,0.0,0.0,0.0,0.0,0.0,-5.9568,-6.2853,-6.5452,-6.7515,-6.912,-6.9999,-7.0402,-7.0381,-6.9578,-6.8403,-6.6719,0.0,0.0,0.0,0.0,0.0,0.0,0.0,0.0,0.0,0.0,0.0,0.0,0.0,0.0,0.0,0.0,0.0,0.0,0.0,0.0,0.0,0.0,0.0,0.0,0.0,0.0,-6.0119,-5.9612,-5.9102,0.0,0.0,0.0,0.0,0.0,0.0,0.0,0.0,0.0,0.0,-6.9528,-7.1285,-7.3038,-7.472,-7.5738,-7.5777,-7.5816,-7.5543,-7.4681,-7.3822,-7.3002,0.0,0.0,0.0,0.0,0.0,0.0,0.0,0.0,0.0,0.0,0.0,0.0,0.0,0.0,0.0,0.0,0.0,0.0,0.0,0.0,0.0,0.0,0.0,0.0,0.0,0.0,0.0,-5.418,-5.3683,0.0,0.0,0.0,0.0,0.0,0.0,0.0,0.0,0.0,0.0,0.0,-5.923,-5.8962,0.0,0.0,0.0,0.0,0.0,0.0,0.0,0.0,0.0,0.0,0.0,0.0,-6.1211,-6.4458,-6.6483,-6.8317,-6.996,-7.0801,-7.1259,-7.1259,-7.0457,-6.8731,-6.6015,0.0,0.0,0.0,0.0,0.0,0.0,0.0,0.0,0.0,0.0,0.0,0.0,0.0,0.0,0.0,0.0,0.0,0.0,0.0,0.0,0.0,0.0,0.0,0.0,0.0,-6.0237,0.0,0.0,0.0,0.0,0.0,0.0,0.0,0.0,0.0,0.0,0.0,-6.6912,-6.9489,-7.1324,-7.3041,-7.472,-7.5423,-7.6008,0.0,0.0,0.0,0.0,0.0,0.0,0.0,0.0,0.0,0.0,0.0,0.0,0.0,0.0,-6.6303,-6.372,-6.3231,-6.3369,-6.391,0.0,0.0,0.0,0.0,0.0,0.0,0.0,0.0,0.0,0.0,0.0,0.0,0.0,0.0,-5.7772,0.0,-5.6969,0.0,0.0,0.0,0.0,0.0,0.0,0.0,0.0,-6.1745,-6.2309,-6.2643,-6.2338,-6.2251,0.0,-6.168,-6.0302,0.0,0.0,0.0,0.0,0.0,0.0,0.0,0.0,-6.2777,-6.5796,-6.7782,-6.9425,-7.0801,-7.1718,-7.2138,-7.21,-7.0992,-6.9152,-6.6436,-6.4795,-6.2949,0.0,0.0,0.0,0.0,0.0,0.0,0.0,0.0,0.0,0.0,0.0,0.0,0.0,0.0,0.0,0.0,0.0,0.0,0.0,0.0,0.0,0.0,0.0,-6.254,0.0,0.0,0.0,0.0,0.0,0.0,0.0,0.0,0.0,-6.5234,-6.7185,-6.945,-7.1714,-7.351,-7.5032,-7.6086,0.0,0.0,0.0,0.0,0.0,0.0,0.0,-7.6906,-7.7453,-7.636,-7.5384,-7.5423,-7.4011,-7.2903,-7.2881,0.0,0.0,-6.8756,-6.831,-6.8649,-6.9156,-6.9253,-6.9544,-7.0339,-7.0472,-7.0736,0.0,0.0,0.0,0.0,0.0,0.0,0.0,0.0,-6.0599,-6.1019,0.0,-6.0026,0.0,0.0,0.0,0.0,0.0,-6.1846,0.0,0.0,-6.507,-6.5948,-6.6636,-6.5834,-6.549,-6.549,-6.5452,-6.5375,-6.5108,-6.0655,0.0,0.0,0.0,0.0,0.0,0.0,-6.4229,-6.6789,-6.9158,-7.0839,-7.1735,-7.2597,-7.3017,-7.2979,-7.1374,-6.9687,-6.812,-6.6474,-6.4862,-6.331,-6.0914,0.0,0.0,0.0,0.0,0.0,0.0,0.0,0.0,0.0,0.0,0.0,0.0,0.0,0.0,0.0,0.0,0.0,0.0,0.0,0.0,-6.4219,0.0,0.0,0.0,0.0,0.0,0.0,0.0,0.0,0.0,0.0,-6.945,-7.1089,-7.2729,-7.4408,0.0,0.0,0.0,0.0,-7.9678,-7.9678,-7.9717,-7.9405,-7.8546,-7.8429,-7.8468,-7.8546,0.0,0.0,-7.7335,-7.7296,-7.7218,-7.7221,-7.7287,-7.6474,-7.396,-7.3865,-7.4287,-7.4359,-7.4412,-7.4767,-7.5468,-7.5485,-7.5767,-6.6674,0.0,0.0,0.0,0.0,-6.4,-6.4305,-6.4,-6.4649,-6.4649,-6.4305,-6.3809,0.0,0.0,0.0,0.0,0.0,0.0,-6.6063,-6.6827,-6.7056,-6.763,-6.8432,-6.7591,-6.7515,-6.8088,-6.7477,-6.7171,-6.7095,-6.5773,-6.3723,-6.1186,0.0,0.0,0.0,0.0,-6.5948,-6.8394,-6.9769,-7.1107,-7.2597,-7.3437,-7.3858,-7.3858,-7.2215,-7.0817,-6.9725,-6.8128,-6.6528,-6.4886,-6.313,0.0,0.0,0.0,0.0,0.0,0.0,0.0,0.0,0.0,0.0,0.0,0.0,0.0,0.0,0.0,0.0,0.0,0.0,0.0,-6.6912,-6.7888,-6.82,0.0,0.0,0.0,0.0,0.0,0.0,0.0,0.0,0.0,-7.4564,-7.4759,-7.5345,0.0,0.0,-7.8936,-7.8936,-7.9405,-7.9717,-7.9717,-7.9717,0.0,-7.9366,-7.9326,-7.9756,-8.0966,-8.1435,-8.1672,-8.1722,-8.1217,-8.0827,-8.079,-8.1341,-8.1454,-8.0647,-7.8616,-7.7521,-7.793,-7.8542,-7.8759,-7.8501,-7.8845,-7.9144,-7.0419,-6.7668,-6.7477,-6.7095,-6.6751,-6.7744,-6.7859,-6.7439,-6.7973,-6.8088,-6.7859,-6.7515,-6.7095,-6.6636,-6.633,0.0,0.0,0.0,-6.8929,-6.9441,-6.9731,-7.019,-7.0648,-7.0151,-7.019,-7.0648,-7.0151,-6.9922,-6.9922,-6.9922,-6.8738,-6.6407,0.0,0.0,-6.5222,-6.633,-6.7821,-6.9655,-7.1145,-7.2444,-7.3476,-7.4278,-7.4545,-7.4201,-7.3208,-7.2138,-7.0954,-6.9664,-6.8357,-6.7049,-6.5172,-6.3361,0.0,0.0,0.0,0.0,0.0,0.0,0.0,0.0,0.0,0.0,0.0,-5.6016,0.0,0.0,0.0,0.0,-6.5429,-6.7966,-7.0699,-7.0933,0.0,0.0,0.0,0.0,0.0,0.0,0.0,-7.269,-7.4056,-7.5657,-7.7843,-7.8272,-7.8507,-7.8858,-7.9951,-8.0732,-8.0732,0.0,-8.1708,-8.1708,-8.1708,-8.1747,-8.1708,-8.1708,-8.2098,-8.3113,-8.3666,-8.4023,-8.4031,-8.3648,-8.3341,-8.3384,-8.3776,-8.4089,-8.4048,-8.231,-8.1034,-8.1559,-8.2045,-8.2148,-8.166,-8.2039,-8.2223,-7.3323,-7.3246,-7.168,-7.0877,-7.061,-7.061,-7.061,-7.061,-7.061,-7.103,-7.1735,-7.0954,-7.0593,-7.0572,-6.9846,0.0,-6.9578,-7.1107,-7.1773,-7.1833,-7.2635,-7.3017,-7.3093,-7.3017,-7.3017,-7.3055,-7.3017,-7.2979,-7.2941,-7.2979,-7.2597,-7.1718,-6.8738,-6.7171,-6.7171,-6.8623,-6.9807,-7.061,-7.2979,-7.4201,-7.4316,-7.508,-7.5119,-7.4354,-7.424,-7.3437,-7.1871,-7.0954,-7.0145,-6.9268,-6.7122,-6.5534,-6.4667,0.0,0.0,0.0,0.0,0.0,0.0,0.0,0.0,0.0,0.0,0.0,0.0,0.0,0.0,0.0,-6.9137,0.0,-7.3549,-7.3627,0.0,0.0,0.0,-7.1245,-7.1324,-7.2026,-7.3197,-7.4915,0.0,0.0,-7.9873,-8.1513,-8.1903,-8.0302,-8.1474,-8.2489,-8.2489,-8.3738,-8.4831,-8.4597,-8.4753,-8.4753,-8.448,-8.4597,-8.4675,-8.4795,-8.4963,-8.5049,-8.5053,-8.5101,-8.5069,-8.5114,-8.5111,-8.5149,-8.5114,-8.4994,-8.5067,-8.4938,-8.4876,-8.4853,-8.4579,-8.4642,-8.4668,-7.6227,-7.6761,-7.6379,-7.4736,-7.2406,-7.2406,-7.2367,-7.2367,-7.2367,-7.2482,-7.2673,-7.2482,-7.2367,-7.2367,-7.2176,-7.21,-7.21,-7.252,-7.2673,-7.2711,-7.2902,-7.3323,-7.3858,-7.3284,-7.3323,-7.3858,-7.3284,-7.2979,-7.2979,-7.2979,-7.2902,-7.2635,-7.1871,-7.1145,-7.0533,-7.0877,-7.1527,-7.2367,-7.359,-7.4545,-7.5157,-7.5386,-7.5386,-7.5195,-7.4545,-7.3743,-7.2711,-7.1833,-7.0703,-6.9305,-6.8732,-6.7467,-6.5457,-6.414,0.0,0.0,0.0,0.0,0.0,0.0,0.0,0.0,0.0,-6.2137,-6.5351,0.0,-6.8825,0.0,-7.3002,-7.5305,-7.7023,-7.6594,0.0,0.0,-7.6086,-7.5852,-7.6477,-7.675,-7.7804,-8.0185,-8.081,-8.1708,-8.3386,-8.3933,-8.405,-8.366,-8.3933,-8.4206,-8.4245,-8.4519,-8.4831,-8.4831,-8.487,-8.4831,-8.4909,-8.5377,-8.5813,-8.5786,-8.6335,-8.6774,-8.6749,-8.679,-8.6832,-8.6874,-8.6874,-8.6874,-8.6836,-8.6874,-8.6875,-8.6795,-8.6279,-8.5602,-8.5017,-8.5364,-8.5593,-7.7564,-7.8022,-7.8022,-7.6914,-7.5233,-7.5233,-7.5233,-7.5233,-7.5233,-7.5195,-7.5157,-7.4431,-7.4087,-7.4142,-7.4087,-7.4087,-7.4163,-7.4851,-7.5233,-7.5233,-7.5233,-7.5462,-7.5883,-7.5424,-7.5462,-7.5883,-7.5424,-7.5233,-7.5233,-7.5233,-7.5233,-7.5233,-7.5233,-7.4966,-7.4469,-7.3361,-7.3055,-7.3552,-7.4354,-7.5004,-7.548,-7.5518,-7.5518,-7.548,-7.5042,-7.4393,-7.3552,-7.275,-7.168,-7.0381,-6.9689,-6.8746,-6.7357,-6.6269,-6.4775,0.0,0.0,0.0,0.0,0.0,0.0,0.0,0.0,0.0,0.0,0.0,-7.1597,-7.4056,-7.5891,-7.7492,-7.8858,-7.8897,-7.9014,-7.9483,-7.9483,-7.96,-8.0107,-8.0459,-8.1239,-8.2645,-8.3191,-8.3777,-8.4675,-8.5143,-8.5377,-8.5377,-8.5729,-8.5804,-8.5495,-8.569,-8.596,-8.5963,-8.5963,-8.5963,-8.5963,-8.636,-8.6681,-8.6728,-8.7088,-8.741,-8.7417,-8.742,-8.746,-8.75,-8.75,-8.75,-8.75,-8.75,-8.75,-8.7422,-8.7108,-8.6597,-8.6125,-8.6357,-8.6508,-7.8213,-7.8328,-7.8328,-7.8328,-7.8328,-7.8328,-7.8213,-7.8022,-7.8022,-7.8022,-7.7908,-7.6456,-7.5806,-7.5806,-7.5806,-7.5806,-7.5921,-7.7335,-7.8022,-7.8022,-7.8022,-7.8022,-7.8022,-7.8022,-7.8022,-7.8022,-7.8022,-7.8022,-7.8022,-7.8022,-7.8022,-7.8022,-7.8022,-7.8022,-7.7908,-7.5806,-7.4698,-7.4698,-7.5424,-7.5768,-7.5671,-7.5653,-7.5577,-7.5518,-7.5518,-7.508,-7.424,-7.3437,-7.2614,-7.1751,-7.0425,-6.9672,-6.9534,-6.8408,-6.7422,0.0,-6.5933,0.0,0.0,0.0,0.0,0.0,0.0,0.0,0.0,-7.1597,-7.4017,-7.7335,-7.839,-7.9248,-8.0107,-8.0966,-8.1474,-8.1513,-8.2176,-8.2606,-8.2645,-8.323,-8.3699,-8.3816,-8.4519,-8.4987,-8.5221,-8.5807,-8.6275,-8.6314,-8.6978,-8.7251,-8.6666,-8.6939,-8.7287,-8.7521,-8.7677,-8.7681,-8.7528,-8.754,-8.7509,-8.7436,-8.7371,-8.7418,-8.7419,-8.746,-8.75,-8.75,-8.75,-8.75,-8.75,-8.75,-8.75,-8.75,-8.7461,-8.7383,-8.7303,-8.7299,-8.7411,-7.9436,-8.0009,-8.0047,-8.0047,-8.0009,-8.0009,-7.9245,-7.8022,-7.8022,-7.8022,-7.7984,-7.7678,-7.7526,-7.7526,-7.7526,-7.7526,-7.7526,-7.787,-7.8022,-7.8022,-7.8022,-7.8022,-7.8022,-7.8022,-7.8022,-7.8022,-7.8022,-7.8022,-7.8022,-7.8022,-7.8022,-7.8022,-7.8022,-7.8022,-7.7984,0.0,0.0,0.0,-7.7449,-7.7182,-7.6494,-7.6456,-7.615,-7.5556,-7.5518,0.0,-7.424,-7.3437,-7.2592,-7.1816,-7.1504,0.0,0.0,0.0,0.0,0.0,0.0,0.0,0.0,0.0,0.0,0.0,-7.2576,-7.2711,-7.2648,-7.4759,-7.7296,-7.999,-8.1044,-8.1903,-8.2684,-8.3582,-8.4089,-8.4089,-8.4206,-8.4323,-8.4323,-8.448,-8.4792,-8.5534,-8.5768,-8.6119,-8.6783,-8.7056,-8.7173,-8.7251,-8.7915,-8.8344,-8.8227,-8.7759,-8.772,-8.8305,-8.8969,-8.9171,-8.8558,-8.8446,-8.8221,-8.7646,-8.7416,-8.7458,-8.7577,-8.7539,-8.7539,-8.7578,-8.75,-8.7539,-8.7539,-8.75,-8.7617,-8.75,-8.7539,-8.75,-8.75,-8.75,-8.7499,-8.0124,0.0,-8.0506,-8.0506,0.0,-8.0506,-8.0009,-7.9245,-7.9245,-7.9245,-7.9207,-7.8825,-7.8634,-7.8634,-7.8634,-7.8634,-7.8672,-7.9054,-7.9245,-7.9245,-7.9704,-7.9895,-7.9895,-8.0277,-8.0468,-8.0468,-8.0047,-7.9895,-7.9856,-7.9436,-7.9245,-7.9245,-7.9245,-7.9245,-7.9245,-7.9245,-7.8825,-7.8022,-7.8022,-7.7793,-7.7373,-7.7335,-7.6914,-7.615,-7.6074,0.0,0.0,0.0,0.0,0.0,0.0,0.0,0.0,0.0,0.0,-7.1893,-7.1936,-7.2132,-7.2305,-7.2757,-7.3603,-7.501,-7.633,-7.6702,-7.5891,-7.8194,-8.0224,-8.1513,-8.2801,-8.3699,-8.4089,-8.4909,-8.5456,-8.5456,-8.5807,-8.608,-8.608,-8.608,-8.6236,-8.6627,-8.6744,-8.7056,-8.7954,-8.8032,-8.8266,-8.8618,-8.9047,-8.932,-8.932,-8.8969,-8.8891,-8.9281,-8.9642,-8.9844,-8.9461,-8.9356,-8.9246,-8.8785,-8.867,-8.8671,-8.875,-8.875,-8.875,-8.8711,-8.875,-8.875,-8.8711,-8.875,-8.8711,-8.875,-8.875,-8.875,-8.8672,-8.8086,-8.75,-8.0506,-8.0506,-8.0506,-8.0506,-8.0506,-8.0506,-8.0506,-8.0506,0.0,0.0,0.0,-7.9818,-7.9531,-7.9531,-7.9513,-7.9531,-7.9569,-8.0353,-8.0735,-8.0773,-8.1614,-8.1996,-8.2073,-8.2684,-8.299,-8.2951,-8.234,-8.1996,-8.1996,-8.127,-8.0926,-8.0926,-8.0964,-8.0926,-8.0926,-8.0926,-8.0277,-7.8939,-7.8596,-7.8366,-7.8252,-7.8213,-7.7793,-7.6953,-7.6914,-7.6626,-7.5994,-7.5221,-7.485,-7.4845,-7.4282,-7.3989,-7.4019,-7.4302,-7.4591,-7.4695,-7.4773,-7.4916,-7.5167,-7.5878,-7.6727,-7.771,-7.9271,-7.9834,-7.9131,-8.1083,-8.245,-8.2723,-8.4128,-8.5026,-8.5026,-8.5807,-8.6314,-8.6353,-8.6978,-8.7365,-8.7404,-8.756,-8.7603,-8.7638,-8.7798,-8.811,-8.8813,-8.893,-8.9164,-8.9828,-9.0062,-9.0296,-9.0374,-9.0296,-9.0179,-9.0222,-9.0504,-9.0477,-9.025,-9.0222,-9.0192,-8.9881,-8.9921,-9.0,-9.0,-9.0,-9.0,-8.9844,-9.0,-8.9922,-8.9961,-8.9883,-9.0,-9.0,-9.0,-9.0,-8.9883,-8.8906,-8.8047,-8.0506,-8.0506,-8.0506,-8.0506,-8.0506,-8.0506,-8.0506,-8.0506,-8.0506,-8.0506,-8.0506,-8.0391,-8.0315,-8.0315,-8.0315,-8.0353,-8.0391,-8.1232,-8.1614,-8.1652,-8.2455,-8.2837,-8.2837,-8.2951,-8.299,-8.299,-8.2875,-8.2798,-8.2798,-8.2684,-8.2646,-8.2607,-8.2646,-8.2607,-8.2646,-8.2646,-8.2531,-8.2264,-8.0888,-7.9818,-7.9149,-7.9092,-7.871,-7.787,-7.7831,-7.7791,-7.7726,-7.6939,-7.6602,-7.6693,-7.6625,-7.6662,-7.6833,-7.7533,-7.8052,-7.8247,-7.8314,-7.8486,-7.8637,-7.8844,-7.9349,-8.0302,-8.1347,-8.1864,-8.1786,-8.2059,-8.2879,-8.4284,-8.5338,-8.5924,-8.5963,-8.6666,-8.7173,-8.7212,-8.7329,-8.7404,-8.7482,-8.811,-8.854,-8.854,-8.9203,-8.9594,-8.975,-8.9789,-8.9867,-9.0101,-9.0726,-9.1311,-9.1741,-9.1546,-9.1155,-9.1237,-9.1757,-9.1848,-9.131,-9.1125,-9.0857,-9.0117,-9.0117,-9.0195,-9.0234,-9.0234,-9.0234,-9.0078,-9.0195,-9.0156,-9.0117,-9.0,-9.0156,-9.0195,-9.0234,-9.0156,-9.0195,-8.9883,-8.9609,-8.0506,-8.0506,-8.0506,-8.0506,-8.0506,-8.0506,-8.0506,-8.0506,-8.0506,-8.0506,-8.0506,-8.0506,-8.0506,-8.0506,-8.0506,-8.0735,-8.1232,-8.1614,-8.2034,-8.2493,-8.3295,-8.3715,-8.3754,-8.4136,-8.4365,-8.4327,-8.3907,-8.3715,-8.3639,-8.3219,-8.299,-8.299,-8.299,-8.299,-8.299,-8.299,-8.299,-8.299,-8.2225,-8.1461,-8.0697,-8.0659,-8.0009,-7.8748,-7.8726,-7.855,-7.8126,-7.7845,-7.7735,-7.7815,-7.7824,-7.7915,-7.8055,-7.8513,-7.8838,-7.8994,-7.9093,-7.9223,-7.9376,-8.0377,-8.1353,-8.2237,-8.3149,-8.3855,-8.4323,-8.4362,-8.4675,-8.5456,-8.6314,-8.6822,-8.6822,-8.7173,-8.7404,-8.7404,-8.7798,-8.811,-8.8188,-8.8852,-8.9398,-8.9437,-8.975,-9.0179,-9.0648,-9.0687,-9.0921,-9.1272,-9.1741,-9.2092,-9.2443,-9.2209,-9.1936,-9.1978,-9.2309,-9.2402,-9.2056,-9.1988,-9.1835,-9.1445,-9.1406,-9.1406,-9.1406,-9.1406,-9.1406,-9.1406,-9.1406,-9.1406,-9.1367,-9.1406,-9.1406,-9.1406,-9.1406,-9.1406,-9.1406,-9.1406,-9.1094,-8.0506,-8.0506,-8.0506,-8.0506,-8.0506,-8.0506,-8.0582,-8.0773,-8.0812,-8.0888,-8.1003,-8.0888,-8.0773,-8.0812,-8.1003,-8.1423,-8.2034,-8.2264,-8.2684,-8.3333,-8.4174,-8.4556,-8.4632,-8.5244,-8.5511,-8.5435,-8.4862,-8.4594,-8.448,-8.3868,-8.3563,-8.3563,-8.3563,-8.3563,-8.3563,-8.3563,-8.3563,-8.3563,-8.3563,-8.3066,-8.2111,-8.2073,-8.1442,-8.0332,-8.0234,-7.9884,-7.9076,-7.9172,-7.9191,-7.9031,-7.9092,-7.9129,-7.9229,-7.9352,-7.9467,-7.9598,-7.9717,-7.9968,-8.0355,-8.1633,-8.2877,-8.3735,-8.4597,-8.5377,-8.6002,-8.6275,-8.6392,-8.6471,-8.6978,-8.7365,-8.7365,-8.7404,-8.7404,-8.7443,-8.8188,-8.8618,-8.8774,-8.9633,-9.0296,-9.0296,-9.0452,-9.0882,-9.1389,-9.1585,-9.178,-9.2287,-9.2482,-9.2482,-9.2482,-9.2482,-9.2486,-9.2535,-9.2551,-9.2564,-9.2606,-9.2575,-9.2539,-9.2578,-9.2539,-9.2422,-9.2461,-9.2539,-9.2578,-9.2461,-9.25,-9.2422,-9.2539,-9.2539,-9.2461,-9.2422,-9.2383,-9.25,-9.2422,-9.2461,-9.2187,-8.0506,-8.0506,-8.0506,-8.0506,-8.0544,-8.0544,-8.0964,-8.1652,-8.169,-8.2111,-8.2569,-8.1996,-8.169,-8.1767,-8.2416,-8.276,-8.2951,-8.3715,-8.4059,-8.425,-8.5015,-8.5397,-8.5358,-8.5473,-8.5511,-8.5511,-8.5397,-8.532,-8.532,-8.5244,-8.5244,-8.5282,-8.5282,-8.5244,-8.5244,-8.5244,-8.5244,-8.5282,-8.5282,-8.4518,-8.299,-8.2875,-8.2894,-8.2854,-8.2796,-8.2542,-8.1738,-8.1848,-8.1545,-8.1015,-8.093,-8.1003,-8.109,-8.1182,-8.1282,-8.1409,-8.1485,-8.199,-8.2902,-8.3264,-8.3775,-8.4629,-8.5495,-8.6002,-8.6158,-8.6861,-8.729,-8.7326,-8.7368,-8.7404,-8.7404,-8.7404,-8.7443,-8.756,-8.8266,-8.8696,-8.8969,-9.0179,-9.1194,-9.1194,-9.1702,-9.2287,-9.2287,-9.2287,-9.2365,-9.2482,-9.2482,-9.2482,-9.2482,-9.2482,-9.2528,-9.2583,-9.2597,-9.2606,-9.2611,-9.2577,-9.2578,-9.2578,-9.2578,-9.2578,-9.2578,-9.2539,-9.2578,-9.2344,-9.2383,-9.2344,-9.2383,-9.2578,-9.2461,-9.2265,-9.2344,-9.2539,-9.2578,-9.2578,-9.2383,-8.0506,-8.0506,-8.0506,-8.0812,-8.1232,-8.127,-8.1729,-8.2455,-8.2493,-8.2684,-8.3009,-8.3181,-8.299,-8.2531,-8.2837,-8.3257,-8.3792,-8.4136,-8.4556,-8.4976,-8.5358,-8.5511,-8.5511,-8.5511,-8.5511,-8.5511,-8.5511,-8.5511,-8.5511,-8.5511,-8.5779,-8.6237,-8.6275,-8.6275,-8.6275,-8.6275,-8.6046,-8.555,-8.5511,-8.5187,-8.4595,-8.406,-8.3582,-8.3217,-8.3234,-8.3205,-8.3067,-8.3054,-8.2748,-8.2082,-8.2005,-8.1845,-8.1491,-8.1528,-8.1624,-8.1783,-8.2366,-8.3127,-8.4095,-8.4688,-8.5192,-8.5534,-8.6392,-8.6861,-8.69,-8.7681,-8.8188,-8.811,-8.7716,-8.7404,-8.7443,-8.7404,-8.7599,-8.8149,-8.8969,-8.9672,-9.0218,-9.1272,-9.2014,-9.2053,-9.2287,-9.2482,-9.2482,-9.2482,-9.2482,-9.2482,-9.2482,-9.2482,-9.2482,-9.2482,-9.2535,-9.2593,-9.2601,-9.2606,-9.2573,-9.2577,-9.2578,-9.2578,-9.2578,-9.2578,-9.25,-9.2109,-9.1836,-9.1836,-9.1484,-9.1211,-9.0976,-9.1054,-9.1094,-9.125,-9.1679,-9.1953,-9.2461,-9.2578,-9.2578,-8.0506,-8.0544,-8.0735,-8.1232,-8.1805,-8.2034,-8.2607,-8.3295,-8.3333,-8.3486,-8.3754,-8.4365,-8.4289,-8.3754,-8.3677,-8.4059,-8.4556,-8.4632,-8.4938,-8.5473,-8.5511,-8.5511,-8.5511,-8.5511,-8.5511,-8.5511,-8.5511,-8.5626,-8.5855,-8.6161,-8.6543,-8.7078,-8.7154,-8.7154,-8.7154,-8.7154,-8.6869,-8.6315,-8.6239,-8.6298,-8.6336,-8.5762,-8.4959,-8.4074,-8.4049,-8.4054,-8.3971,-8.405,-8.3717,-8.3007,-8.3007,-8.2766,-8.2288,-8.2282,-8.2411,-8.2582,-8.3237,-8.4085,-8.5003,-8.5717,-8.6297,-8.6779,-8.7446,-8.7876,-8.8149,-8.8696,-8.9047,-8.9008,-8.8461,-8.8188,-8.811,-8.811,-8.8383,-8.9047,-8.9828,-9.0609,-9.1194,-9.2014,-9.2482,-9.2482,-9.2482,-9.2482,-9.2482,-9.2482,-9.2482,-9.2482,-9.2482,-9.2482,-9.2525,-9.2528,-9.2541,-9.2601,-9.2605,-9.261,-9.2575,-9.2577,-9.2578,-9.2578,-9.2578,-9.25,-9.2344,-9.164,-9.1054,-9.1054,-9.039,-9.0117,-9.0351,-9.0195,-9.0195,-9.0429,-9.0898,-9.164,-9.2422,-9.2578,-9.2734,-8.0506,-8.0621,-8.1385,-8.1805,-8.1881,-8.2646,-8.3448,-8.425,-8.425,-8.4632,-8.5206,-8.5358,-8.5397,-8.5282,-8.5244,-8.5397,-8.5435,-8.5397,-8.5435,-8.5511,-8.5511,-8.5511,-8.5511,-8.5511,-8.5511,-8.5626,-8.5626,-8.6008,-8.6734,-8.7536,-8.7995,-8.8033,-8.8033,-8.8033,-8.8033,-8.8053,-8.8056,-8.7906,-8.7887,-8.806,-8.8193,-8.8155,-8.7328,-8.6035,-8.5911,-8.5626,-8.5067,-8.4989,-8.4705,-8.3966,-8.3928,-8.3952,-8.4045,-8.4072,-8.4136,-8.4349,-8.4518,-8.5058,-8.5854,-8.6159,-8.6882,-8.8224,-8.8579,-8.8969,-8.9555,-8.9828,-8.9945,-8.9945,-8.9906,-8.9867,-8.9867,-8.9672,-8.975,-8.9945,-9.0687,-9.1155,-9.135,-9.2053,-9.2443,-9.2482,-9.2482,-9.2482,-9.2482,-9.2482,-9.2482,-9.2482,-9.2482,-9.2482,-9.2486,-9.2535,-9.259,-9.2601,-9.2609,-9.2576,-9.2578,-9.2578,-9.2578,-9.2539,-9.2422,-9.2304,-9.1758,-9.1211,-9.0742,-9.0273,-8.9844,-8.9687,-8.9883,-9.0117,-9.0312,-9.0586,-9.0976,-9.164,-9.2422,-9.2578,-9.2851,-8.085,-8.1347,-8.1652,-8.2416,-8.341,-8.3715,-8.4289,-8.5053,-8.5053,-8.5206,-8.5473,-8.5511,-8.5511,-8.5511,-8.5511,-8.5511,-8.5511,-8.5511,-8.5511,-8.5511,-8.5511,-8.5511,-8.5511,-8.5511,-8.5817,-8.6275,-8.6332,-8.6772,-8.7575,-8.7957,-8.8377,-8.8797,-8.8874,-8.8874,-8.8894,-8.8935,-8.8728,-8.8289,-8.8289,-8.8457,-8.8584,-8.8598,-8.8392,-8.7943,-8.7292,-8.6916,-8.6848,-8.636,-8.5707,-8.4994,-8.4955,-8.4743,-8.4397,-8.4446,-8.4768,-8.5329,-8.5462,-8.6139,-8.7438,-8.7737,-8.8259,-8.9359,-8.9516,-8.9633,-9.0023,-9.0492,-9.0843,-9.0882,-9.135,-9.1585,-9.135,-9.0687,-9.0218,-9.0765,-9.1116,-9.1546,-9.1975,-9.2326,-9.2482,-9.2482,-9.2482,-9.2482,-9.2482,-9.2482,-9.2482,-9.2482,-9.2482,-9.2482,-9.2525,-9.2538,-9.259,-9.2603,-9.261,-9.2576,-9.2578,-9.2578,-9.2539,-9.2383,-9.2226,-9.1758,-9.1289,-9.0195,-8.9531,-8.9258,-8.8984,-8.8789,-8.8867,-8.9258,-8.9648,-9.0469,-9.0859,-9.1601,-9.2422,-9.2851,-9.332,-8.1423,-8.2149,-8.2493,-8.3257,-8.425,-8.4594,-8.4976,-8.5511,-8.5511,-8.5511,-8.5511,-8.5511,-8.5511,-8.5511,-8.5511,-8.5511,-8.5511,-8.5511,-8.5511,-8.5511,-8.5511,-8.5511,-8.555,-8.5779,-8.6237,-8.6849,-8.7422,-8.7918,-8.8453,-8.8759,-8.9218,-8.9714,-8.9714,-8.9735,-8.9776,-8.9837,-8.9611,-8.9228,-8.9317,-8.9457,-8.9536,-8.9655,-8.9778,-8.975,-8.8929,-8.8349,-8.8352,-8.7746,-8.7267,-8.682,-8.6777,-8.6465,-8.5814,-8.5774,-8.6108,-8.6676,-8.6802,-8.7463,-8.8778,-8.9075,-8.9477,-9.0335,-9.0413,-9.0492,-9.0804,-9.135,-9.1624,-9.1819,-9.2131,-9.2482,-9.2287,-9.1467,-9.1077,-9.1585,-9.1702,-9.1897,-9.2404,-9.2482,-9.2482,-9.2482,-9.2482,-9.2482,-9.2482,-9.2482,-9.2482,-9.2482,-9.2482,-9.2486,-9.2532,-9.2583,-9.2597,-9.2606,-9.2574,-9.2421,-9.2187,-9.2031,-9.2031,-9.1914,-9.164,-9.125,-9.0508,-8.9336,-8.8672,-8.8359,-8.8086,-8.7851,-8.7969,-8.8398,-8.9179,-9.0156,-9.0859,-9.1562,-9.2422,-9.3281,-9.3789,-8.2264,-8.3066,-8.3907,-8.4212,-8.4518,-8.5129,-8.5473,-8.5511,-8.5511,-8.5511,-8.5511,-8.5511,-8.5511,-8.5511,-8.5511,-8.5511,-8.5511,-8.5588,-8.5588,-8.5511,-8.5588,-8.5626,-8.5664,-8.6467,-8.6925,-8.7154,-8.853,-8.9256,-8.937,-8.9982,-9.0402,-9.0555,-9.0478,-9.0464,-9.0623,-9.0625,-9.082,-9.0926,-9.0988,-9.1213,-9.1469,-9.1364,-9.1409,-9.1528,-9.0882,-9.0106,-8.9345,-8.9201,-8.9066,-8.9199,-8.9253,-8.908,-8.8305,-8.824,-8.8436,-8.8395,-8.8521,-8.9012,-8.9762,-8.9973,-9.0374,-9.1116,-9.1311,-9.1585,-9.2053,-9.2326,-9.2365,-9.2365,-9.2443,-9.2482,-9.2482,-9.2326,-9.2287,-9.2482,-9.2365,-9.2404,-9.2482,-9.2482,-9.2482,-9.2482,-9.2482,-9.2482,-9.2482,-9.2482,-9.2482,-9.2482,-9.2482,-9.2528,-9.258,-9.2593,-9.2606,-9.2573,-9.2578,-9.2422,-9.1875,-9.1367,-9.1367,-9.1328,-9.1015,-9.0625,-8.9726,-8.8711,-8.8554,-8.832,-8.8515,-8.8359,-8.875,-8.9219,-8.9804,-9.0664,-9.1133,-9.1679,-9.2461,-9.332,-9.4219,-8.3104,-8.3868,-8.4174,-8.4632,-8.5129,-8.5435,-8.5511,-8.5511,-8.5511,-8.5511,-8.5511,-8.5511,-8.5511,-8.5511,-8.5511,-8.5511,-8.555,-8.6084,-8.6084,-8.5702,-8.6123,-8.639,-8.6581,-8.7269,-8.7957,-8.8606,-8.9676,-9.0211,-9.0249,-9.0478,-9.0631,-9.0593,-9.0656,-9.0679,-9.0739,-9.0915,-9.1118,-9.1258,-9.147,-9.161,-9.1708,-9.1812,-9.1897,-9.1961,-9.176,-9.1498,-9.1218,-9.0149,-8.9586,-8.9624,-8.9643,-8.9549,-8.9409,-8.943,-8.9432,-8.9462,-8.9476,-8.9883,-9.0715,-9.0878,-9.1233,-9.1897,-9.2092,-9.2209,-9.2443,-9.2482,-9.2482,-9.2482,-9.2482,-9.2482,-9.2482,-9.2482,-9.2482,-9.2482,-9.2482,-9.2482,-9.2482,-9.2482,-9.2482,-9.2482,-9.2482,-9.2482,-9.2482,-9.2482,-9.2482,-9.2482,-9.2482,-9.2532,-9.2585,-9.2597,-9.2606,-9.2573,-9.2539,-9.2461,-9.1992,-9.1562,-9.1445,-9.1133,-9.0664,-9.0351,-8.9414,-8.8867,-8.8633,-8.8594,-8.8828,-8.914,-8.9531,-9.0039,-9.0586,-9.1133,-9.1719,-9.2187,-9.2656,-9.3476,-9.4531,-8.3983,-8.4709,-8.4747,-8.5015,-8.5511,-8.5511,-8.5511,-8.5511,-8.5511,-8.5511,-8.5511,-8.5511,-8.5511,-8.5588,-8.5855,-8.6008,-8.6084,-8.6887,-8.7001,-8.6581,-8.7001,-8.7269,-8.7422,-8.8148,-8.8988,-8.9752,-9.0364,-9.0593,-9.0631,-9.0631,-9.0614,-9.0656,-9.0679,-9.0779,-9.0896,-9.1118,-9.1292,-9.1454,-9.1691,-9.1812,-9.1921,-9.2021,-9.2142,-9.216,-9.2195,-9.2229,-9.2176,-9.1202,-9.068,-9.0672,-9.0688,-9.0585,-9.0384,-9.0345,-9.0413,-9.043,-9.0473,-9.0793,-9.1624,-9.1741,-9.1936,-9.2404,-9.2482,-9.2482,-9.2482,-9.2482,-9.2482,-9.2482,-9.2482,-9.2482,-9.2482,-9.2482,-9.2482,-9.2482,-9.2482,-9.2482,-9.2482,-9.2482,-9.2482,-9.2482,-9.2482,-9.2482,-9.2482,-9.2482,-9.2482,-9.2482,-9.2528,-9.2538,-9.259,-9.2603,-9.261,-9.2575,-9.2578,-9.2422,-9.2109,-9.1836,-9.164,-9.1054,-9.0429,-9.0156,-8.957,-8.9414,-8.9258,-8.9297,-8.9453,-8.9883,-9.0312,-9.0703,-9.1211,-9.1719,-9.2226,-9.2656,-9.3164,-9.414,-9.5156,-8.4824,-8.5473,-8.5511,-8.5473,-8.5511,-8.5511,-8.5511,-8.5511,-8.5511,-8.5511,-8.5511,-8.5664,-8.5664,-8.5817,-8.6505,-8.6887,-8.704,-8.7766,-8.8148,-8.8071,-8.8262,-8.8339,-8.8492,-8.9065,-8.9752,-9.0402,-9.0555,-9.0593,-9.0631,-9.0631,-9.0635,-9.0699,-9.0719,-9.0877,-9.11,-9.1258,-9.1454,-9.1677,-9.1837,-9.1967,-9.2092,-9.2217,-9.2293,-9.23,-9.2366,-9.2393,-9.236,-9.2267,-9.2249,-9.2292,-9.2139,-9.1883,-9.1423,-9.128,-9.1293,-9.1347,-9.135,-9.1702,-9.2287,-9.2365,-9.2404,-9.2482,-9.2482,-9.2482,-9.2482,-9.2482,-9.2482,-9.2482,-9.2482,-9.2482,-9.2482,-9.2482,-9.2482,-9.2482,-9.2482,-9.2482,-9.2482,-9.2482,-9.2482,-9.2482,-9.2482,-9.2482,-9.2482,-9.2482,-9.2486,-9.2528,-9.2577,-9.2588,-9.2603,-9.261,-9.2576,-9.2578,-9.2578,-9.2461,-9.2226,-9.2148,-9.1953,-9.1719,-9.1015,-9.0586,-9.0195,-9.0039,-9.0273,-9.0312,-9.0351,-9.0742,-9.1054,-9.1484,-9.1797,-9.2187,-9.2656,-9.3086,-9.3789,-9.4687,-9.5586,-8.532,-8.5511,-8.5511,-8.5511,-8.5511,-8.5511,-8.5511,-8.5511,-8.5511,-8.5511,-8.5626,-8.6199,-8.6408,-8.6561,-8.7345,-8.7766,-8.7957,-8.8606,-8.8988,-8.9103,-8.9676,-8.9905,-8.9944,-9.0135,-9.0364,-9.0593,-9.0631,-9.0631,-9.0631,-9.0631,-9.0656,-9.0719,-9.0799,-9.0992,-9.1192,-9.1352,-9.1581,-9.1786,-9.1971,-9.2093,-9.2229,-9.2277,-9.2366,-9.2456,-9.2474,-9.2479,-9.2485,-9.2505,-9.2505,-9.2468,-9.2451,-9.2398,-9.2139,-9.2116,-9.2085,-9.2092,-9.217,-9.2209,-9.2443,-9.2482,-9.2482,-9.2482,-9.2482,-9.2482,-9.2482,-9.2482,-9.2482,-9.2482,-9.2482,-9.2482,-9.2482,-9.2482,-9.2482,-9.2482,-9.2482,-9.2482,-9.2482,-9.2482,-9.2482,-9.2482,-9.2482,-9.2482,-9.2525,-9.2525,-9.2528,-9.2538,-9.2585,-9.2595,-9.2608,-9.2573,-9.2578,-9.2578,-9.2578,-9.25,-9.2422,-9.2344,-9.2304,-9.2344,-9.1914,-9.1523,-9.1094,-9.0742,-9.125,-9.1758,-9.1758,-9.2031,-9.2109,-9.2304,-9.2539,-9.2773,-9.3281,-9.3789,-9.4258,-9.5,-9.5898,-8.5511,-8.5511,-8.5511,-8.5511,-8.5511,-8.5511,-8.5511,-8.5511,-8.5511,-8.5741,-8.6084,-8.6581,-8.7001,-8.7422,-8.8224,-8.8606,-8.8721,-8.9447,-8.9829,-8.9905,-9.0326,-9.0555,-9.0593,-9.0593,-9.0631,-9.0631,-9.0631,-9.0631,-9.0631,-9.0631,-9.0676,-9.0798,-9.0877,-9.1009,-9.1292,-9.1462,-9.1641,-9.1885,-9.2071,-9.2217,-9.2299,-9.238,-9.2423,-9.2505,-9.252,-9.2485,-9.249,-9.2498,-9.2494,-9.252,-9.249,-9.2507,-9.2507,-9.2518,-9.2482,-9.2482,-9.2482,-9.2482,-9.2482,-9.2482,-9.2482,-9.2482,-9.2482,-9.2482,-9.2482,-9.2482,-9.2482,-9.2482,-9.2482,-9.2482,-9.2482,-9.2482,-9.2482,-9.2482,-9.2482,-9.2482,-9.2482,-9.2482,-9.2482,-9.2482,-9.2482,-9.2525,-9.2532,-9.2532,-9.258,-9.2593,-9.2599,-9.2606,-9.2613,-9.2575,-9.2656,-9.2695,-9.2734,-9.2656,-9.2734,-9.2695,-9.3008,-9.3047,-9.3203,-9.2734,-9.2422,-9.1992,-9.2344,-9.2969,-9.3086,-9.3086,-9.3008,-9.3008,-9.3203,-9.3515,-9.4023,-9.457,-9.5117,-9.5508,-9.6328,-8.5511,-8.5511,-8.5511,-8.5511,-8.5511,-8.5511,-8.5511,-8.5511,-8.5511,-8.597,-8.6658,-8.6887,-8.7498,-8.8262,-8.9065,-8.9447,-8.9485,-9.0135,-9.044,-9.0517,-9.0593,-9.0631,-9.0631,-9.0631,-9.0631,-9.0631,-9.0631,-9.0631,-9.0631,-9.0631,-9.0717,-9.0857,-9.0896,-9.11,-9.1336,-9.1513,-9.1708,-9.1944,-9.2142,-9.2229,-9.2327,-9.2423,-9.25,-9.249,-9.251,-9.2514,-9.2518,-9.2522,-9.2514,-9.2498,-9.2514,-9.2518,-9.2482,-9.2482,-9.26,-9.2717,-9.2756,-9.2756,-9.2678,-9.2756,-9.26,-9.2561,-9.2482,-9.2482,-9.2482,-9.2482,-9.2482,-9.2482,-9.2482,-9.2482,-9.2482,-9.2482,-9.2482,-9.2482,-9.2482,-9.2482,-9.2482,-9.2482,-9.2482,-9.2522,-9.2525,-9.2535,-9.258,-9.2588,-9.2593,-9.2603,-9.2608,-9.2611,-9.2576,-9.2577,-9.2773,-9.2969,-9.2969,-9.289,-9.3008,-9.3086,-9.3554,-9.3906,-9.4375,-9.4297,-9.4179,-9.3906,-9.3906,-9.4023,-9.4023,-9.3828,-9.3476,-9.3594,-9.3906,-9.4297,-9.4804,-9.5508,-9.6211,-9.6406,-9.6992,-8.5511,-8.5511,-8.5511,-8.5511,-8.5511,-8.5511,-8.5511,-8.5511,-8.5511,-8.6084,-8.681,-8.7498,-8.8262,-8.9103,-8.9867,-9.0326,-9.0249,-9.0517,-9.0593,-9.0631,-9.0631,-9.0631,-9.0631,-9.0631,-9.0631,-9.0631,-9.0631,-9.0631,-9.0631,-9.0614,-9.0697,-9.0896,-9.0954,-9.1064,-9.1384,-9.1528,-9.1735,-9.195,-9.2132,-9.23,-9.2411,-9.2479,-9.2515,-9.251,-9.2522,-9.2482,-9.2482,-9.2482,-9.2522,-9.2518,-9.26,-9.2717,-9.2639,-9.2639,-9.2951,-9.338,-9.3537,-9.3497,-9.3537,-9.3497,-9.3185,-9.2678,-9.26,-9.2482,-9.2482,-9.2482,-9.2482,-9.2482,-9.2482,-9.2482,-9.2482,-9.2482,-9.2482,-9.2482,-9.2482,-9.2482,-9.2482,-9.2482,-9.2482,-9.2525,-9.2574,-9.2583,-9.2588,-9.2597,-9.2603,-9.261,-9.2617,-9.2617,-9.2695,-9.2773,-9.3164,-9.3594,-9.3633,-9.3711,-9.3984,-9.414,-9.4531,-9.4922,-9.5351,-9.5703,-9.5625,-9.539,-9.5195,-9.5039,-9.4922,-9.4609,-9.4219,-9.4531,-9.4922,-9.5234,-9.5547,-9.6172,-9.6719,-9.707,-9.7304,-8.5511,-8.5511,-8.5511,-8.5511,-8.5511,-8.5511,-8.5511,-8.5588,-8.597,-8.6619,-8.746,-8.8301,-8.9141,-8.9905,-9.0402,-9.0593,-9.0631,-9.0631,-9.0631,-9.0631,-9.0631,-9.0631,-9.0631,-9.0631,-9.0631,-9.0631,-9.0631,-9.0631,-9.0593,-9.0656,-9.0739,-9.0934,-9.1029,-9.1206,-9.147,-9.1649,-9.1773,-9.1972,-9.2132,-9.2308,-9.2474,-9.2495,-9.252,-9.2514,-9.2482,-9.2482,-9.2482,-9.2951,-9.3068,-9.3224,-9.3497,-9.3497,-9.3302,-9.3497,-9.3966,-9.4278,-9.4395,-9.4395,-9.4395,-9.4356,-9.4044,-9.3185,-9.3107,-9.2834,-9.2639,-9.2482,-9.2482,-9.2482,-9.2482,-9.2482,-9.2482,-9.2482,-9.2482,-9.2482,-9.2482,-9.2482,-9.2522,-9.2522,-9.2528,-9.2535,-9.258,-9.2593,-9.2599,-9.2723,-9.269,-9.2732,-9.332,-9.3359,-9.3594,-9.3711,-9.4101,-9.4453,-9.4492,-9.4648,-9.5039,-9.5312,-9.5625,-9.5976,-9.6328,-9.6679,-9.6836,-9.6562,-9.6289,-9.6094,-9.582,-9.539,-9.5156,-9.5508,-9.5898,-9.6054,-9.6367,-9.6797,-9.7148,-9.7383,-9.75,-8.5511,-8.5511,-8.5511,-8.5511,-8.555,-8.5664,-8.5741,-8.5855,-8.6619,-8.7498,-8.8262,-8.9027,-8.9676,-9.044,-9.0593,-9.0631,-9.0631,-9.0631,-9.0631,-9.0631,-9.0631,-9.0631,-9.0631,-9.0614,-9.0635,-9.0614,-9.0614,-9.0614,-9.0656,-9.0699,-9.0877,-9.1046,-9.1171,-9.1341,-9.1561,-9.1732,-9.1861,-9.2004,-9.2141,-9.2269,-9.2474,-9.2534,-9.2559,-9.2827,-9.2834,-9.299,-9.3224,-9.3654,-9.4005,-9.4044,-9.4825,-9.4825,-9.4591,-9.463,-9.5215,-9.5254,-9.5293,-9.5293,-9.5293,-9.5215,-9.4864,-9.3966,-9.3771,-9.3341,-9.2756,-9.2482,-9.2482,-9.2482,-9.2482,-9.2482,-9.2482,-9.2482,-9.2482,-9.2482,-9.2482,-9.2561,-9.2678,-9.2681,-9.2769,-9.2583,-9.2632,-9.2642,-9.2843,-9.3043,-9.2968,-9.3047,-9.3672,-9.414,-9.4375,-9.4609,-9.4922,-9.5312,-9.539,-9.5742,-9.6133,-9.625,-9.6562,-9.6719,-9.7109,-9.7304,-9.7578,-9.7304,-9.6953,-9.6914,-9.6679,-9.6367,-9.6562,-9.7187,-9.7383,-9.7109,-9.7187,-9.7656,-9.7773,-9.7695,-9.7695,-8.5511,-8.5511,-8.5511,-8.5511,-8.5626,-8.6275,-8.6619,-8.6714,-8.7498,-8.8339,-8.9027,-8.9294,-8.9867,-9.044,-9.0631,-9.0631,-9.0631,-9.0631,-9.0631,-9.0631,-9.0631,-9.0631,-9.0614,-9.0676,-9.0679,-9.0679,-9.0699,-9.0719,-9.0739,-9.0839,-9.1046,-9.1171,-9.1308,-9.15,-9.1663,-9.1812,-9.1933,-9.2112,-9.2277,-9.244,-9.2579,-9.2773,-9.3066,-9.3494,-9.3576,-9.3888,-9.4434,-9.4747,-9.4903,-9.4981,-9.5723,-9.5996,-9.584,-9.5488,-9.5606,-9.6035,-9.6191,-9.6191,-9.6191,-9.6152,-9.5332,-9.4278,-9.3888,-9.3458,-9.2834,-9.2522,-9.2482,-9.2482,-9.2482,-9.2482,-9.2482,-9.2639,-9.2561,-9.2561,-9.2717,-9.2954,-9.3423,-9.355,-9.3366,-9.3061,-9.2915,-9.2962,-9.3396,-9.375,-9.3828,-9.4101,-9.4609,-9.4922,-9.5078,-9.5312,-9.5586,-9.5937,-9.6289,-9.6758,-9.7265,-9.7265,-9.7383,-9.7265,-9.7461,-9.7461,-9.7656,-9.7656,-9.7578,-9.7617,-9.7812,-9.7851,-9.8242,-9.8594,-9.8437,-9.7851,-9.8164,-9.8476,-9.8086,-9.7695,-9.7695,-8.5511,-8.555,-8.595,-8.6199,-8.6314,-8.7116,-8.746,-8.7613,-8.8339,-8.8912,-8.9332,-8.9752,-9.0173,-9.0517,-9.0631,-9.0631,-9.0631,-9.0631,-9.0631,-9.0631,-9.0631,-9.0614,-9.0617,-9.0699,-9.0779,-9.0858,-9.0915,-9.0934,-9.0858,-9.1044,-9.1202,-9.1352,-9.1477,-9.1649,-9.1786,-9.1924,-9.2077,-9.2229,-9.2615,-9.2993,-9.3187,-9.3491,-9.4107,-9.431,-9.4473,-9.4708,-9.502,-9.5645,-9.5762,-9.5918,-9.6621,-9.6972,-9.6894,-9.6738,-9.6582,-9.6972,-9.705,-9.705,-9.705,-9.705,-9.6464,-9.5371,-9.4747,-9.4083,-9.3302,-9.2834,-9.26,-9.2561,-9.2522,-9.2678,-9.3146,-9.3146,-9.338,-9.3771,-9.381,-9.3973,-9.4331,-9.4462,-9.4235,-9.3968,-9.4171,-9.4333,-9.4374,-9.4648,-9.4804,-9.5156,-9.5586,-9.5781,-9.5859,-9.6133,-9.6367,-9.6601,-9.6953,-9.7148,-9.7656,-9.7812,-9.789,-9.789,-9.8008,-9.8008,-9.8047,-9.8203,-9.832,-9.8398,-9.8672,-9.8828,-9.8398,-9.8203,-9.8398,-9.8633,-9.8476,-9.8359,-9.7929,-9.7695,-9.789,-8.5855,-8.6084,-8.6772,-8.7078,-8.7192,-8.7957,-8.8339,-8.853,-8.9218,-8.96,-8.9676,-9.0249,-9.0555,-9.0631,-9.0631,-9.0631,-9.0631,-9.0631,-9.0631,-9.0593,-9.0614,-9.0638,-9.0699,-9.0799,-9.0896,-9.1046,-9.1549,-9.1378,-9.1171,-9.127,-9.1431,-9.1644,-9.1821,-9.2083,-9.2247,-9.271,-9.255,-9.2899,-9.335,-9.3879,-9.4167,-9.4688,-9.5215,-9.5371,-9.5371,-9.5449,-9.5879,-9.6347,-9.6621,-9.6816,-9.7245,-9.7636,-9.7675,-9.7675,-9.7675,-9.7675,-9.7675,-9.7675,-9.7675,-9.7636,-9.7167,-9.6152,-9.5684,-9.4981,-9.4239,-9.3615,-9.3146,-9.3029,-9.3107,-9.338,-9.3966,-9.4044,-9.4356,-9.4708,-9.4945,-9.5147,-9.528,-9.5409,-9.5575,-9.5501,-9.5622,-9.5586,-9.5508,-9.5547,-9.5664,-9.6133,-9.6601,-9.664,-9.6758,-9.7031,-9.7265,-9.7383,-9.7539,-9.7539,-9.7773,-9.8047,-9.8203,-9.8281,-9.8633,-9.8867,-9.8867,-9.8945,-9.9062,-9.9258,-9.9062,-9.9062,-9.8437,-9.8554,-9.957,-9.9844,-9.8906,-9.8554,-9.875,-9.875,-9.8828,-8.7078,-8.7804,-8.788,-8.7957,-8.8071,-8.8835,-8.9179,-8.9294,-9.002,-9.044,-9.0364,-9.0517,-9.0631,-9.0631,-9.0631,-9.0631,-9.0631,-9.0631,-9.0631,-9.0614,-9.0658,-9.0758,-9.0818,-9.1048,-9.1349,-9.1626,-9.235,-9.2095,-9.1887,-9.1823,-9.1793,-9.2096,-9.2739,-9.3126,-9.3187,-9.3756,-9.4492,-9.4543,-9.4668,-9.4855,-9.5012,-9.5204,-9.5645,-9.6074,-9.6308,-9.6503,-9.6972,-9.7284,-9.7401,-9.744,-9.7558,-9.7675,-9.7675,-9.7675,-9.7675,-9.7675,-9.7675,-9.7675,-9.7675,-9.7675,-9.744,-9.6699,-9.623,-9.5762,-9.502,-9.4669,-9.4512,-9.4786,-9.4669,-9.4708,-9.4864,-9.4942,-9.502,-9.5222,-9.5502,-9.5782,-9.6027,-9.6274,-9.6439,-9.6677,-9.6679,-9.6562,-9.6445,-9.6484,-9.6601,-9.7109,-9.7461,-9.7461,-9.75,-9.7617,-9.7695,-9.7695,-9.8008,-9.8047,-9.8281,-9.8515,-9.875,-9.8867,-9.9179,-9.9609,-9.9648,-9.9687,-10.0,-10.0078,-9.9883,-10.0117,-10.0351,-10.0781,-10.1445,-10.0937,-9.9883,-9.9844,-10.0117,-10.0,-9.9687,-8.8186,-8.8148,-8.8606,-8.8797,-8.8874,-8.9676,-9.0058,-9.0135,-9.044,-9.0631,-9.0631,-9.0631,-9.0631,-9.0631,-9.0631,-9.0631,-9.0631,-9.0593,-9.0635,-9.0735,-9.0836,-9.1145,-9.1624,-9.1941,-9.2177,-9.2852,-9.3365,-9.3633,-9.3245,-9.3246,-9.3335,-9.3407,-9.3819,-9.4115,-9.4164,-9.4596,-9.4801,-9.5002,-9.5446,-9.6006,-9.6392,-9.657,-9.6738,-9.7089,-9.7089,-9.7323,-9.7558,-9.7675,-9.7675,-9.7675,-9.7675,-9.7675,-9.7675,-9.7675,-9.7675,-9.7675,-9.7675,-9.7675,-9.7675,-9.7675,-9.744,-9.7128,-9.6699,-9.5957,-9.5332,-9.5176,-9.5176,-9.5059,-9.5098,-9.5332,-9.5723,-9.5801,-9.6152,-9.6315,-9.6289,-9.6534,-9.6854,-9.7021,-9.7262,-9.7498,-9.7656,-9.7344,-9.7109,-9.7109,-9.7109,-9.7304,-9.7617,-9.7617,-9.7617,-9.7656,-9.7695,-9.7695,-9.8125,-9.8554,-9.8906,-9.9179,-9.9609,-9.9765,-9.9804,-10.0156,-10.0312,-10.0469,-10.0859,-10.1289,-10.1445,-10.1797,-10.2265,-10.1758,-10.1289,-10.1054,-10.082,-10.0976,-10.1054,-10.0547,-10.039,-8.9256,-8.8797,-8.937,-8.9638,-8.9676,-9.0326,-9.0593,-9.0593,-9.0593,-9.0631,-9.0631,-9.0631,-9.0631,-9.0631,-9.0631,-9.0631,-9.0631,-9.0614,-9.0829,-9.0969,-9.126,-9.1891,-9.2515,-9.296,-9.3385,-9.4301,-9.455,-9.4715,-9.4896,-9.5066,-9.5076,-9.4708,-9.4883,-9.5084,-9.5213,-9.554,-9.5817,-9.5882,-9.6396,-9.6934,-9.742,-9.755,-9.7597,-9.7636,-9.7675,-9.7675,-9.7675,-9.7675,-9.7675,-9.7675,-9.7675,-9.7675,-9.7675,-9.7675,-9.7675,-9.7675,-9.7675,-9.7675,-9.7675,-9.7675,-9.7675,-9.7479,-9.7245,-9.6621,-9.6074,-9.5762,-9.5762,-9.5957,-9.5957,-9.623,-9.6503,-9.6699,-9.6937,-9.7259,-9.7464,-9.7633,-9.7682,-9.7573,-9.75,-9.7617,-9.7695,-9.7695,-9.7539,-9.7617,-9.7617,-9.7656,-9.7734,-9.7812,-9.7969,-9.8125,-9.8398,-9.8594,-9.8867,-9.9336,-9.957,-9.9922,-10.0351,-10.0703,-10.0742,-10.0937,-10.125,-10.1484,-10.1836,-10.2265,-10.2695,-10.3008,-10.3203,-10.2031,-10.1054,-10.1836,-10.2344,-10.2031,-10.1836,-10.1406,-10.1601,-9.0517,-9.044,-9.0478,-9.0478,-9.0478,-9.0593,-9.0631,-9.0631,-9.0631,-9.0631,-9.0631,-9.0631,-9.0631,-9.0631,-9.0708,-9.0746,-9.0669,-9.0658,-9.1294,-9.1835,-9.2238,-9.2861,-9.3533,-9.398,-9.4248,-9.4718,-9.5332,-9.5804,-9.6069,-9.6537,-9.5992,-9.5135,-9.5829,-9.6023,-9.6291,-9.6629,-9.6976,-9.7031,-9.729,-9.742,-9.7624,-9.7675,-9.7675,-9.7675,-9.7675,-9.7675,-9.7675,-9.7675,-9.7675,-9.7675,-9.7675,-9.7675,-9.7675,-9.7675,-9.7675,-9.7675,-9.7675,-9.7675,-9.7675,-9.7675,-9.7675,-9.7675,-9.7558,-9.7362,-9.7089,-9.7323,-9.744,-9.7206,-9.7011,-9.7206,-9.744,-9.76,-9.7526,-9.7578,-9.7706,-9.7678,-9.7688,-9.7694,-9.7656,-9.7656,-9.7812,-9.7969,-9.8203,-9.832,-9.8164,-9.8164,-9.8476,-9.8594,-9.8984,-9.9179,-9.9609,-9.9883,-10.0039,-10.0234,-10.0312,-10.0703,-10.1328,-10.164,-10.1758,-10.2109,-10.2461,-10.2695,-10.2812,-10.3086,-10.3476,-10.3828,-10.4062,-10.3281,-10.3008,-10.3633,-10.3867,-10.3515,-10.3633,-10.3672,-10.4023,-9.0631,-9.0631,-9.0631,-9.0631,-9.0631,-9.0631,-9.0631,-9.0631,-9.0631,-9.0631,-9.0631,-9.0631,-9.0631,-9.0746,-9.1166,-9.1357,-9.1455,-9.2074,-9.2465,-9.2834,-9.3269,-9.3902,-9.4543,-9.5057,-9.5403,-9.5965,-9.6553,-9.6817,-9.6982,-9.7369,-9.722,-9.683,-9.6902,-9.6986,-9.7277,-9.7416,-9.7636,-9.7733,-9.7702,-9.7706,-9.7671,-9.7675,-9.7675,-9.7675,-9.7675,-9.7675,-9.7675,-9.7675,-9.7675,-9.7753,-9.7792,-9.7831,-9.787,-9.787,-9.787,-9.787,-9.787,-9.787,-9.7831,-9.7753,-9.7675,-9.7675,-9.7675,-9.7753,-9.787,-9.7753,-9.7714,-9.7675,-9.7753,-9.7792,-9.7714,-9.7675,-9.7643,-9.7698,-9.7789,-9.7877,-9.7924,-9.8045,-9.8047,-9.8242,-9.8398,-9.8594,-9.8828,-9.9062,-9.8867,-9.8711,-9.9062,-9.9414,-9.9804,-10.0195,-10.0586,-10.0859,-10.0976,-10.1094,-10.1172,-10.1719,-10.2344,-10.25,-10.2695,-10.2929,-10.3203,-10.3594,-10.375,-10.4023,-10.4297,-10.4765,-10.4922,-10.4687,-10.4726,-10.4922,-10.5,-10.4961,-10.5234,-10.5664,-10.5898,-9.0631,-9.0631,-9.0631,-9.0631,-9.0631,-9.0631,-9.0631,-9.0631,-9.0631,-9.0784,-9.0975,-9.0975,-9.1166,-9.1434,-9.1935,-9.2261,-9.2456,-9.2942,-9.3485,-9.3868,-9.4275,-9.4952,-9.5598,-9.6114,-9.6407,-9.7175,-9.7323,-9.7371,-9.7415,-9.755,-9.77,-9.7866,-9.7988,-9.79,-9.7632,-9.7914,-9.8049,-9.81,-9.8377,-9.8455,-9.8533,-9.8533,-9.8572,-9.8612,-9.8651,-9.8651,-9.869,-9.8729,-9.869,-9.8651,-9.8612,-9.8572,-9.8533,-9.8494,-9.8455,-9.8455,-9.8455,-9.8455,-9.8416,-9.8182,-9.826,-9.8612,-9.8651,-9.8612,-9.8455,-9.8455,-9.8729,-9.8612,-9.8377,-9.8104,-9.8104,-9.8182,-9.8228,-9.8323,-9.8799,-9.8926,-9.8894,-9.8939,-9.8863,-9.8828,-9.9062,-9.9414,-9.9687,-9.9961,-9.9883,-9.9804,-10.0117,-10.0429,-10.0703,-10.1054,-10.1406,-10.164,-10.1758,-10.1875,-10.2031,-10.2383,-10.2695,-10.2812,-10.3047,-10.3359,-10.3672,-10.414,-10.457,-10.4765,-10.5117,-10.5664,-10.5898,-10.5937,-10.5898,-10.5859,-10.6015,-10.6211,-10.6445,-10.6797,-10.6797,-9.0631,-9.0631,-9.0631,-9.0631,-9.0631,-9.0631,-9.0631,-9.0631,-9.0708,-9.1128,-9.1739,-9.1816,-9.2198,-9.2754,-9.303,-9.3225,-9.3364,-9.3639,-9.4195,-9.4862,-9.5258,-9.5965,-9.6486,-9.6914,-9.6977,-9.7314,-9.7605,-9.7759,-9.7751,-9.8056,-9.8353,-9.8756,-9.8912,-9.8678,-9.7905,-9.8569,-9.8959,-9.908,-9.9744,-9.99,-9.99,-9.9861,-9.9822,-9.9822,-9.9783,-9.9744,-9.9705,-9.9744,-9.9705,-9.9705,-9.9783,-9.9783,-9.9822,-9.9861,-9.99,-9.9939,-10.0017,-10.0095,-10.0134,-9.9431,-9.9431,-9.9744,-9.9666,-9.9783,-10.0056,-10.0095,-9.9896,-9.9541,-9.931,-9.8998,-9.8959,-9.8963,-9.897,-9.9101,-9.9578,-9.9742,-9.9672,-9.9637,-9.9522,-9.9524,-9.9949,-10.0312,-10.0625,-10.0859,-10.0898,-10.0976,-10.125,-10.1445,-10.1601,-10.1797,-10.2109,-10.2187,-10.2344,-10.2617,-10.2734,-10.2851,-10.3047,-10.3164,-10.3515,-10.3984,-10.4414,-10.4961,-10.5312,-10.5469,-10.6015,-10.664,-10.6992,-10.7265,-10.6719,-10.6211,-10.7187,-10.7578,-10.7773,-10.7734,-10.7578,-9.0631,-9.0631,-9.0631,-9.0631,-9.0631,-9.0631,-9.0631,-9.0708,-9.1166,-9.1854,-9.2542,-9.2656,-9.2814,-9.3298,-9.3896,-9.415,-9.4346,-9.5137,-9.5711,-9.5875,-9.6127,-9.6517,-9.6954,-9.7219,-9.7323,-9.7563,-9.7925,-9.8429,-9.8524,-9.886,-9.938,-9.9822,-9.9939,-9.9744,-9.9548,-9.9783,-9.9861,-9.99,-10.0173,-10.029,-10.0329,-10.0368,-10.0407,-10.0407,-10.0446,-10.0485,-10.0485,-10.0524,-10.0524,-10.0524,-10.0524,-10.0485,-10.0485,-10.0485,-10.0446,-10.0368,-10.0368,-10.0603,-10.0876,-10.072,-10.0485,-10.0524,-10.0482,-10.0482,-10.0329,-10.0329,-10.0282,-10.0274,-10.0074,-9.9797,-9.9797,-9.9797,-9.981,-9.9842,-10.0125,-10.0132,-10.0137,-10.0141,-10.0143,-10.0299,-10.0609,-10.1347,-10.1818,-10.1781,-10.1788,-10.2028,-10.2303,-10.2265,-10.2383,-10.2461,-10.2656,-10.2695,-10.2812,-10.3203,-10.3476,-10.3672,-10.3984,-10.4336,-10.4609,-10.4961,-10.539,-10.5742,-10.5976,-10.6133,-10.6875,-10.7578,-10.7461,-10.7265,-10.6601,-10.6523,-10.7422,-10.7773,-10.7539,-10.7656,-10.789,-9.0631,-9.0631,-9.0631,-9.0614,-9.0635,-9.0593,-9.0767,-9.117,-9.1956,-9.2818,-9.3527,-9.3663,-9.3914,-9.4303,-9.4766,-9.5075,-9.529,-9.5866,-9.6317,-9.6476,-9.6684,-9.7119,-9.7431,-9.7676,-9.8122,-9.8353,-9.8864,-9.9317,-9.9353,-9.9966,-10.0407,-10.0681,-10.1032,-10.1422,-10.1383,-10.1266,-10.072,-10.0837,-10.1071,-10.1344,-10.1305,-10.1266,-10.1266,-10.1266,-10.1266,-10.1266,-10.1227,-10.1149,-10.1149,-10.111,-10.111,-10.111,-10.1149,-10.1149,-10.1149,-10.1149,-10.1227,-10.1496,-10.1805,-10.1918,-10.164,-10.1353,-10.1172,-10.1176,-10.1172,-10.1319,-10.127,-10.1144,-10.0787,-10.0631,-10.0631,-10.0592,-10.0646,-10.0681,-10.0958,-10.1004,-10.1082,-10.116,-10.116,-10.1284,-10.1482,-10.2263,-10.278,-10.2788,-10.2675,-10.2997,-10.3316,-10.3202,-10.3125,-10.3242,-10.3359,-10.3398,-10.3633,-10.414,-10.4453,-10.457,-10.4961,-10.5429,-10.5625,-10.5781,-10.6015,-10.6289,-10.6523,-10.6601,-10.6719,-10.6875,-10.7265,-10.7148,-10.6875,-10.6953,-10.75,-10.7578,-10.7265,-10.7461,-10.7773,-9.0593,-9.0593,-9.0593,-9.0656,-9.0699,-9.0847,-9.1326,-9.2174,-9.2998,-9.3864,-9.4691,-9.4691,-9.4998,-9.569,-9.5962,-9.5982,-9.6117,-9.6361,-9.6613,-9.6854,-9.7253,-9.7794,-9.8303,-9.8627,-9.8965,-9.9639,-10.0145,-10.0236,-10.0256,-10.0708,-10.111,-10.1696,-10.2359,-10.2867,-10.2906,-10.2515,-10.193,-10.2242,-10.2359,-10.2593,-10.2554,-10.2515,-10.2359,-10.232,-10.2359,-10.2359,-10.2359,-10.2398,-10.2476,-10.2515,-10.2593,-10.2633,-10.2711,-10.275,-10.2789,-10.2707,-10.2629,-10.2616,-10.2558,-10.2558,-10.2582,-10.2254,-10.2415,-10.266,-10.2548,-10.2265,-10.2137,-10.2008,-10.1768,-10.1573,-10.1456,-10.1456,-10.1423,-10.1747,-10.2103,-10.222,-10.2371,-10.241,-10.241,-10.2449,-10.2532,-10.2939,-10.3128,-10.3183,-10.3633,-10.3923,-10.4128,-10.3978,-10.3943,-10.4101,-10.4219,-10.4336,-10.4648,-10.5234,-10.5429,-10.5469,-10.5586,-10.5937,-10.6211,-10.6406,-10.6601,-10.6679,-10.6836,-10.6719,-10.6133,-10.6211,-10.6875,-10.7304,-10.75,-10.7617,-10.7187,-10.7383,-10.7109,-10.7226,-10.7422,-9.0818,-9.0818,-9.0818,-9.0837,-9.101,-9.2102,-9.3098,-9.3905,-9.4211,-9.4768,-9.5555,-9.5555,-9.573,-9.602,-9.6059,-9.6193,-9.6553,-9.6986,-9.7407,-9.7774,-9.8243,-9.8893,-9.9319,-9.9541,-9.9834,-10.0268,-10.0721,-10.1114,-10.1293,-10.1618,-10.2398,-10.3335,-10.3296,-10.3765,-10.3804,-10.3608,-10.3687,-10.3726,-10.3687,-10.3491,-10.3335,-10.3023,-10.2906,-10.2789,-10.2789,-10.2789,-10.2789,-10.2789,-10.2789,-10.2789,-10.2789,-10.2789,-10.2789,-10.2789,-10.2785,-10.2763,-10.2763,-10.2753,-10.2727,-10.2704,-10.2718,-10.2698,-10.2638,-10.2646,-10.2673,-10.2686,-10.2673,-10.2458,-10.2373,-10.2139,-10.2022,-10.2061,-10.2068,-10.227,-10.2504,-10.2549,-10.2698,-10.2848,-10.2848,-10.3184,-10.3269,-10.3589,-10.3708,-10.4129,-10.4545,-10.4879,-10.4972,-10.4867,-10.4836,-10.5037,-10.5078,-10.5156,-10.5508,-10.6015,-10.625,-10.6289,-10.6328,-10.6445,-10.6719,-10.6836,-10.6797,-10.6914,-10.707,-10.6953,-10.6523,-10.6484,-10.6679,-10.7109,-10.7578,-10.6601,-10.6172,-10.664,-10.7031,-10.7148,-10.7265,-9.0915,-9.0915,-9.0915,-9.128,-9.2085,-9.3045,-9.4177,-9.5175,-9.529,-9.5597,-9.602,-9.604,-9.6098,-9.6232,-9.6558,-9.6863,-9.7049,-9.797,-9.8462,-9.8699,-9.9371,-9.9806,-10.0172,-10.0483,-10.0816,-10.1198,-10.1596,-10.2021,-10.2121,-10.2437,-10.3101,-10.3374,-10.3608,-10.3843,-10.3921,-10.4038,-10.4506,-10.4467,-10.4311,-10.3765,-10.3413,-10.3101,-10.2906,-10.2789,-10.2789,-10.2789,-10.2789,-10.2789,-10.2789,-10.2789,-10.2789,-10.2789,-10.2785,-10.2781,-10.2763,-10.2777,-10.2761,-10.2698,-10.2666,-10.2631,-10.2648,-10.2616,-10.2612,-10.2516,-10.2534,-10.256,-10.256,-10.2482,-10.253,-10.2577,-10.2569,-10.2607,-10.2577,-10.2585,-10.2593,-10.2609,-10.2796,-10.2974,-10.3278,-10.3651,-10.3957,-10.4322,-10.4681,-10.5107,-10.549,-10.5752,-10.6047,-10.6183,-10.6077,-10.6087,-10.6013,-10.5976,-10.6328,-10.6758,-10.6875,-10.6875,-10.6875,-10.6914,-10.7187,-10.7265,-10.7109,-10.6914,-10.6875,-10.6953,-10.7031,-10.6953,-10.6875,-10.7187,-10.7344,-10.6523,-10.6289,-10.6953,-10.7344,-10.7148,-10.7265,-9.0935,-9.0935,-9.1011,-9.2047,-9.3466,-9.3789,-9.4731,-9.6192,-9.6194,-9.6232,-9.6308,-9.6385,-9.6462,-9.673,-9.7323,-9.776,-9.8151,-9.8895,-9.9459,-9.956,-10.0082,-10.0624,-10.1137,-10.14,-10.1717,-10.2392,-10.2704,-10.2538,-10.2707,-10.2828,-10.2906,-10.2906,-10.3101,-10.3491,-10.4038,-10.4077,-10.4311,-10.4272,-10.3726,-10.3062,-10.3101,-10.2945,-10.2789,-10.2789,-10.2789,-10.2789,-10.2789,-10.2789,-10.2789,-10.2789,-10.2785,-10.2785,-10.2772,-10.2988,-10.2923,-10.3049,-10.3173,-10.3255,-10.3208,-10.3157,-10.3034,-10.2927,-10.2702,-10.2883,-10.3067,-10.2606,-10.2509,-10.246,-10.247,-10.2528,-10.2528,-10.2848,-10.3013,-10.3121,-10.3189,-10.3258,-10.3423,-10.3646,-10.3937,-10.4336,-10.4737,-10.5122,-10.5445,-10.5845,-10.6383,-10.6612,-10.684,-10.7137,-10.7114,-10.7013,-10.6748,-10.6596,-10.6992,-10.7187,-10.6953,-10.6992,-10.7187,-10.7344,-10.7461,-10.7422,-10.7109,-10.6836,-10.6601,-10.6953,-10.7383,-10.7148,-10.7109,-10.7422,-10.7695,-10.7617,-10.75,-10.7773,-10.7773,-10.7422,-10.7383,-9.1139,-9.1216,-9.1831,-9.2733,-9.3713,-9.4403,-9.5288,-9.6326,-9.6962,-9.6846,-9.648,-9.6903,-9.7287,-9.7475,-9.8261,-9.8713,-9.9127,-9.9839,-10.0306,-10.0754,-10.1177,-10.1466,-10.2088,-10.2141,-10.2491,-10.266,-10.2768,-10.2898,-10.2945,-10.2984,-10.3218,-10.3726,-10.3804,-10.4038,-10.4194,-10.4233,-10.4194,-10.4077,-10.3452,-10.3257,-10.3569,-10.3101,-10.2789,-10.2789,-10.2789,-10.2789,-10.2789,-10.2789,-10.2789,-10.2789,-10.2811,-10.2753,-10.2733,-10.3322,-10.3602,-10.3684,-10.4026,-10.414,-10.4162,-10.4015,-10.3989,-10.4048,-10.409,-10.4131,-10.3833,-10.2944,-10.2494,-10.2473,-10.2473,-10.2533,-10.2661,-10.311,-10.347,-10.3633,-10.3794,-10.3943,-10.4102,-10.4362,-10.4621,-10.5097,-10.5544,-10.5884,-10.6222,-10.6607,-10.715,-10.743,-10.7548,-10.769,-10.7664,-10.7528,-10.7042,-10.6974,-10.7495,-10.7617,-10.7225,-10.7187,-10.7344,-10.7187,-10.7187,-10.7148,-10.7148,-10.7226,-10.7226,-10.75,-10.7695,-10.75,-10.7461,-10.7734,-10.7969,-10.8008,-10.8008,-10.8008,-10.8008,-10.7734,-10.7734,-9.121,-9.1325,-9.2133,-9.321,-9.4249,-9.4788,-9.5672,-9.6788,-9.7326,-9.7499,-9.7498,-9.7901,-9.8168,-9.8412,-9.9214,-9.9719,-10.0063,-10.0901,-10.1284,-10.1723,-10.2023,-10.2294,-10.256,-10.2724,-10.2704,-10.2831,-10.3245,-10.3413,-10.3413,-10.3921,-10.4389,-10.4623,-10.4663,-10.4663,-10.4663,-10.4623,-10.4467,-10.4038,-10.3608,-10.3726,-10.4077,-10.3374,-10.2828,-10.2789,-10.2789,-10.2789,-10.2785,-10.2781,-10.2772,-10.2958,-10.3128,-10.3673,-10.3875,-10.4261,-10.4416,-10.4442,-10.4659,-10.4948,-10.4961,-10.493,-10.4881,-10.4867,-10.4696,-10.4446,-10.4349,-10.3585,-10.3613,-10.36,-10.3678,-10.3703,-10.3742,-10.4065,-10.4143,-10.4234,-10.4389,-10.4519,-10.4842,-10.5191,-10.5643,-10.6213,-10.6524,-10.666,-10.6935,-10.7109,-10.7541,-10.7574,-10.7788,-10.7827,-10.7844,-10.7871,-10.7434,-10.7225,-10.7672,-10.7567,-10.7023,-10.7144,-10.7539,-10.7304,-10.7031,-10.7304,-10.7617,-10.7812,-10.7969,-10.7929,-10.7929,-10.789,-10.7969,-10.8008,-10.8008,-10.8008,-10.8008,-10.8008,-10.8008,-10.8008,-10.7969,-9.1479,-9.1633,-9.2479,-9.3633,-9.4941,-9.5288,-9.6134,-9.7365,-9.7768,-9.8363,-9.8993,-9.9221,-9.9221,-9.9519,-10.0231,-10.0597,-10.1027,-10.1608,-10.2072,-10.2284,-10.2625,-10.2876,-10.3037,-10.3076,-10.3357,-10.3617,-10.3991,-10.4194,-10.4272,-10.4741,-10.5092,-10.5365,-10.5521,-10.556,-10.5599,-10.5717,-10.5678,-10.5326,-10.4936,-10.4467,-10.3999,-10.3335,-10.2945,-10.2789,-10.2789,-10.2828,-10.2898,-10.2963,-10.2988,-10.334,-10.3771,-10.4229,-10.4719,-10.5017,-10.5126,-10.5221,-10.5404,-10.5461,-10.5321,-10.5344,-10.5211,-10.5076,-10.4822,-10.476,-10.4735,-10.4729,-10.4768,-10.4775,-10.4819,-10.4644,-10.4644,-10.4813,-10.4851,-10.4901,-10.5056,-10.5235,-10.5662,-10.6011,-10.6515,-10.7072,-10.7156,-10.7288,-10.7398,-10.7576,-10.7627,-10.7665,-10.7711,-10.7761,-10.7806,-10.7814,-10.7616,-10.7495,-10.7676,-10.7382,-10.6852,-10.7216,-10.7729,-10.7615,-10.7499,-10.7773,-10.8008,-10.8008,-10.8008,-10.8008,-10.8008,-10.8008,-10.8008,-10.8008,-10.8008,-10.8008,-10.8008,-10.8008,-10.8008,-10.8008,-10.8008,-9.2633,-9.3287,-9.4172,-9.4749,-9.5211,-9.6403,-9.7211,-9.773,-9.9056,-9.9804,-10.0126,-10.0894,-10.1014,-10.0318,-10.1239,-10.1656,-10.1724,-10.2279,-10.2338,-10.2406,-10.3286,-10.3567,-10.379,-10.4126,-10.471,-10.4884,-10.4932,-10.5092,-10.5248,-10.5404,-10.5521,-10.5678,-10.638,-10.6536,-10.6653,-10.6888,-10.7239,-10.6849,-10.6458,-10.6029,-10.4936,-10.4116,-10.2984,-10.2789,-10.2789,-10.3245,-10.3622,-10.3846,-10.4204,-10.4584,-10.4791,-10.4997,-10.5359,-10.5705,-10.5843,-10.594,-10.6149,-10.63,-10.6214,-10.6139,-10.6038,-10.6034,-10.5928,-10.5936,-10.5957,-10.6049,-10.6001,-10.5879,-10.5673,-10.5037,-10.5013,-10.5507,-10.5662,-10.5836,-10.596,-10.6239,-10.6572,-10.6665,-10.6859,-10.7045,-10.7105,-10.7206,-10.7301,-10.7428,-10.7487,-10.7544,-10.7617,-10.7665,-10.7693,-10.7683,-10.7703,-10.7743,-10.7738,-10.7317,-10.6916,-10.7479,-10.7878,-10.7845,-10.7848,-10.7928,-10.8008,-10.8008,-10.8008,-10.8008,-10.8008,-10.8008,-10.8008,-10.8008,-10.8008,-10.8008,-10.8008,-10.8008,-10.8008,-10.8008,-10.8008]},{"header":{"parameterUnit":"m.s-1","parameterCategory":1,"la1":31.0,"la2":29.5877,"lo1":-88.7671,"lo2":-86.6584,"dx":0.0162,"dy":0.0185,"nx":115,"ny":88,"refTime":"2023-01-15T06:00:00:Z","depth":0,"parameterNumber":3,"parameterNumberName":"V-component_of_WINDS"},"data":[0.0,0.0,0.0,0.0,0.0,0.0,0.0,0.0,0.0,0.0,0.0,0.0,0.0,0.0,0.0,0.0,0.0,0.0,0.0,0.0,0.0,0.0,0.0,0.0,0.0,0.0,0.0,0.0,0.0,0.0,0.0,0.0,0.0,0.0,0.0,0.0,0.0,0.0,0.0,0.0,0.0,0.0,0.0,0.0,0.0,0.0,0.0,0.0,0.0,0.0,0.0,0.0,0.0,0.0,0.0,0.0,0.0,0.0,0.0,0.0,0.0,0.0,0.0,0.0,0.0,0.0,0.0,0.0,0.0,0.0,0.0,0.0,0.0,0.0,0.0,0.0,0.0,0.0,0.0,0.0,0.0,0.0,0.0,0.0,0.0,0.0,0.0,0.0,0.0,0.0,0.0,0.0,0.0,0.0,0.0,0.0,0.0,0.0,0.0,0.0,0.0,0.0,0.0,0.0,0.0,0.0,0.0,0.0,0.0,0.0,0.0,0.0,0.0,0.0,0.0,0.0,0.0,0.0,0.0,0.0,0.0,0.0,0.0,0.0,0.0,0.0,0.0,0.0,0.0,0.0,0.0,0.0,0.0,0.0,0.0,0.0,0.0,0.0,0.0,0.0,0.0,0.0,0.0,0.0,0.0,0.0,0.0,0.0,0.0,0.0,0.0,0.0,0.0,0.0,0.0,0.0,0.0,0.0,0.0,0.0,0.0,0.0,0.0,0.0,0.0,0.0,0.0,0.0,0.0,0.0,0.0,0.0,0.0,0.0,0.0,0.0,0.0,0.0,0.0,0.0,0.0,0.0,0.0,0.0,0.0,0.0,0.0,0.0,0.0,0.0,0.0,0.0,0.0,0.0,0.0,0.0,0.0,0.0,0.0,0.0,0.0,0.0,0.0,0.0,0.0,0.0,0.0,0.0,0.0,0.0,0.0,0.0,0.0,0.0,0.0,0.0,0.0,0.0,0.0,0.0,0.0,0.0,0.0,0.0,0.0,0.0,0.0,0.0,0.0,0.0,0.0,0.0,0.0,0.0,0.0,0.0,0.0,0.0,0.0,0.0,0.0,0.0,0.0,0.0,0.0,0.0,0.0,0.0,0.0,0.0,0.0,0.0,0.0,0.0,0.0,0.0,0.0,0.0,0.0,0.0,0.0,0.0,0.0,0.0,0.0,0.0,0.0,0.0,0.0,0.0,0.0,0.0,0.0,0.0,0.0,0.0,0.0,0.0,0.0,0.0,0.0,0.0,0.0,0.0,0.0,0.0,0.0,0.0,0.0,0.0,0.0,0.0,0.0,0.0,0.0,0.0,0.0,0.0,0.0,0.0,0.0,0.0,0.0,0.0,0.0,0.0,0.0,0.0,0.0,0.0,0.0,0.0,0.0,0.0,0.0,0.0,0.0,0.0,0.0,0.0,0.0,0.0,0.0,0.0,0.0,0.0,0.0,0.0,0.0,0.0,0.0,0.0,0.0,0.0,0.0,0.0,0.0,0.0,0.0,0.0,0.0,0.0,0.0,0.0,0.0,0.0,0.0,0.0,0.0,0.0,0.0,0.0,0.0,0.0,0.0,0.0,0.0,0.0,0.0,0.0,0.0,0.0,0.0,0.0,0.0,0.0,0.0,0.0,0.0,0.0,0.0,0.0,0.0,0.0,0.0,0.0,0.0,0.0,0.0,0.0,0.0,0.0,0.0,0.0,0.0,0.0,0.0,0.0,0.0,0.0,0.0,0.0,0.0,0.0,0.0,0.0,0.0,0.0,0.0,0.0,0.0,0.0,0.0,0.0,0.0,0.0,0.0,0.0,0.0,0.0,0.0,0.0,0.0,0.0,0.0,0.0,0.0,0.0,0.0,0.0,0.0,0.0,0.0,0.0,0.0,0.0,0.0,0.0,0.0,0.0,0.0,0.0,0.0,0.0,0.0,0.0,0.0,0.0,0.0,0.0,0.0,0.0,0.0,0.0,0.0,0.0,0.0,0.0,0.0,0.0,0.0,0.0,0.0,0.0,0.0,0.0,0.0,0.0,0.0,0.0,0.0,0.0,0.0,0.0,0.0,0.0,0.0,0.0,0.0,0.0,0.0,0.0,0.0,0.0,0.0,0.0,0.0,0.0,0.0,0.0,0.0,0.0,0.0,0.0,0.0,0.0,0.0,0.0,0.0,0.0,0.0,0.0,0.0,0.0,0.0,0.0,0.0,0.0,0.0,0.0,0.0,0.0,0.0,0.0,0.0,0.0,0.0,0.0,0.0,0.0,0.0,0.0,0.0,0.0,0.0,0.0,0.0,0.0,0.0,0.0,0.0,0.0,0.0,0.0,0.0,0.0,0.0,0.0,0.0,0.0,0.0,0.0,0.0,0.0,0.0,0.0,0.0,0.0,0.0,0.0,0.0,0.0,0.0,0.0,0.0,0.0,0.0,0.0,0.0,0.0,0.0,0.0,0.0,0.0,0.0,0.0,0.0,0.0,0.0,0.0,0.0,0.0,0.0,0.0,0.0,0.0,0.0,0.0,0.0,0.0,0.0,0.0,0.0,0.0,0.0,0.0,0.0,0.0,0.0,0.0,0.0,0.0,0.0,0.0,0.0,0.0,0.0,0.0,0.0,0.0,0.0,0.0,0.0,0.0,0.0,0.0,0.0,0.0,0.0,0.0,0.0,0.0,0.0,0.0,0.0,0.0,0.0,0.0,0.0,0.0,0.0,0.0,0.0,0.0,0.0,0.0,0.0,0.0,0.0,0.0,0.0,0.0,0.0,0.0,0.0,0.0,0.0,0.0,0.0,0.0,0.0,0.0,0.0,0.0,0.0,0.0,0.0,0.0,0.0,0.0,0.0,0.0,0.0,0.0,0.0,0.0,0.0,0.0,0.0,0.0,0.0,0.0,0.0,0.0,0.0,0.0,0.0,0.0,0.0,0.0,0.0,0.0,0.0,0.0,0.0,0.0,0.0,0.0,0.0,0.0,0.0,0.0,0.0,0.0,0.0,0.0,0.0,0.0,0.0,0.0,0.0,0.0,0.0,0.0,0.0,0.0,0.0,0.0,0.0,0.0,0.0,0.0,0.0,0.0,0.0,0.0,0.0,0.0,0.0,0.0,0.0,0.0,0.0,0.0,0.0,0.0,0.0,0.0,0.0,0.0,0.0,0.0,0.0,0.0,0.0,0.0,0.0,0.0,0.0,0.0,0.0,0.0,0.0,0.0,0.0,0.0,0.0,0.0,0.0,0.0,0.0,0.0,0.0,0.0,0.0,0.0,0.0,0.0,0.0,0.0,0.0,0.0,0.0,0.0,0.0,0.0,0.0,0.0,0.0,0.0,0.0,0.0,0.0,0.0,0.0,0.0,0.0,0.0,0.0,0.0,0.0,0.0,0.0,0.0,0.0,0.0,0.0,0.0,0.0,0.0,0.0,0.0,0.0,0.0,0.0,0.0,0.0,0.0,0.0,0.0,0.0,0.0,0.0,0.0,0.0,0.0,0.0,0.0,0.0,0.0,0.0,0.0,0.0,0.0,0.0,0.0,0.0,0.0,0.0,0.0,0.0,0.0,0.0,0.0,0.0,0.0,0.0,0.0,0.0,0.0,0.0,0.0,0.0,0.0,0.0,0.0,0.0,0.0,0.0,0.0,0.0,0.0,0.0,0.0,0.0,0.0,0.0,0.0,0.0,0.0,0.0,0.0,0.0,0.0,0.0,0.0,0.0,0.0,0.0,0.0,0.0,0.0,0.0,0.0,0.0,0.0,0.0,0.0,0.0,0.0,0.0,0.0,0.0,0.0,0.0,0.0,0.0,0.0,0.0,0.0,0.0,0.0,0.0,0.0,0.0,0.0,0.0,0.0,0.0,0.0,0.0,0.0,0.0,0.0,0.0,0.0,0.0,0.0,0.0,0.0,0.0,0.0,0.0,0.0,0.0,0.0,0.0,0.0,0.0,0.0,0.0,0.0,0.0,0.0,0.0,0.0,0.0,0.0,0.0,0.0,0.0,0.0,0.0,0.0,0.0,0.0,0.0,0.0,0.0,0.0,0.0,0.0,0.0,0.0,0.0,0.0,0.0,0.0,0.0,0.0,0.0,0.0,0.0,0.0,0.0,0.0,0.0,0.0,0.0,0.0,0.0,0.0,0.0,0.0,0.0,0.0,0.0,0.0,0.0,0.0,0.0,0.0,0.0,0.0,0.0,0.0,0.0,0.0,0.0,0.0,0.0,0.0,0.0,0.0,0.0,0.0,0.0,0.0,0.0,0.0,0.0,0.0,0.0,0.0,0.0,0.0,0.3181,0.0,0.0,0.0,0.0,0.0,0.0,0.0,0.0,0.0,0.0,0.0,0.0,0.0,0.0,0.0,0.0,0.0,0.0,0.0,0.0,0.0,0.0,0.0,0.0,0.0,0.0,0.0,0.0,0.0,0.0,0.0,0.0,0.0,0.0,0.0,0.0,0.0,0.0,0.0,0.0,0.0,0.0,0.0,0.0,0.0,0.0,0.0,0.0,0.0,0.0,0.0,0.0,0.0,0.0,0.0,0.0,0.0,0.0,0.0,0.0,0.0,0.0,0.0,0.0,0.0,0.0,0.0,0.0,0.0,0.0,0.0,0.0,0.0,0.0,0.0,0.0,0.0,0.0,0.0,0.0,0.0,0.0,0.0,0.0,0.0,0.0,0.0,0.0,0.0,0.0,0.0,0.0,0.0,0.0,0.0,0.0,0.0,0.0,0.0,0.0,0.0,0.0,0.0,0.0,0.0,0.0,0.0,0.0,0.0,0.0,0.3181,0.3181,0.3181,0.3181,0.3181,0.0,0.0,0.0,0.0,0.0,0.0,0.0,0.0,0.0,0.0,0.0,0.0,0.0,0.0,0.0,0.0,0.0,0.0,0.0,0.0,0.0,0.0,0.0,0.0,0.0,0.0,0.0,0.0,0.0,0.0,0.0,0.0,0.0,0.0,0.0,0.0,0.0,0.0,0.0,0.0,0.0,0.0,0.0,0.0,0.0,0.0,0.0,0.0,0.0,0.0,0.0,0.0,0.0,0.0,0.0,0.0,0.0,0.0,0.0,0.0,0.0,0.0,0.0,0.0,0.0,0.0,0.0,0.0,0.0,0.0,0.0,0.0,0.0,0.0,0.0,0.0,0.0,0.0,0.0,0.0,0.0,0.0,0.0,0.0,0.0,0.0,0.0,0.0,0.0,0.0,0.0,0.0,0.0,0.0,0.0,0.0,0.0,0.0,0.0,0.0,0.0,0.0,0.0,0.0,0.0,0.0,0.0,0.0,0.0,0.0,0.0,0.0,0.3181,0.3181,0.3181,0.0,0.0,0.0,0.0,0.0,0.0,0.0,0.0,0.0,0.0,0.0,0.0,0.0,0.0,0.0,0.0,0.0,0.0,0.0,0.0,0.0,0.0,0.0,0.0,0.0,0.0,0.0,0.0,0.0,0.0,0.0,0.0,0.0,0.0,0.0,0.0,0.0,0.0,0.0,0.0,0.0,0.0,0.0,0.0,0.0,0.0,0.0,0.0,0.0,0.0,0.0,0.0,0.0,0.0,0.0,0.0,0.0,0.0,0.0,0.0,0.0,0.0,0.0,0.0,0.0,0.0,0.0,0.0,0.0,0.0,0.0,0.0,0.0,0.0,0.0,0.0,0.0,0.0,0.0,0.0,0.0,0.0,0.0,0.0,0.0,0.0,0.0,0.0,0.0,0.0,0.0,0.0,0.0,0.0,0.0,0.0,0.0,0.0,0.0,0.0,0.0,0.0,0.0,0.0,0.0,0.0,0.0,0.0,0.0,0.0,0.3181,0.3181,0.3181,0.0,0.3181,0.0,0.0,0.0,0.0,0.0,0.0,0.0,0.0,0.0,0.0,0.0,0.0,0.0,0.0,0.0,0.0,0.0,0.0,0.0,0.0,0.0,0.0,0.0,0.0,0.0,0.0,0.0,0.0,0.0,0.0,0.0,0.0,0.0,0.0,0.0,0.0,0.0,0.0,0.0,0.0,0.0,0.0,0.0,0.0,0.0,0.0,0.0,0.0,0.0,0.0,0.0,0.0,0.0,0.0,0.0,0.0,0.0,0.0,0.0,0.0,0.0,0.0,0.0,0.0,0.0,0.0,0.0,0.0,0.0,0.0,0.0,0.0,0.0,0.0,0.0,0.0,0.0,0.0,0.0,0.0,0.0,0.0,0.0,0.0,0.0,0.0,0.0,0.0,0.0,0.0,0.0,0.0,0.0,0.0,0.0,0.0,0.0,0.0,0.0,0.0,0.0,0.0,0.0,0.0,0.0,0.0,0.0,0.0,0.0,0.0,0.3181,0.3181,0.3181,0.3181,0.0,0.0,0.0,0.0,0.0,0.0,0.0,0.0,0.0,0.0,0.0,0.0,0.0,0.0,0.0,0.0,0.0,0.0,0.0,0.0,0.0,0.0,0.0,0.0,0.0,0.0,0.0,0.0,0.0,0.0,0.0,0.0,0.0,0.0,0.0,0.0,0.0,0.0,0.0,0.0,0.0,0.0,0.0,0.0,0.0,0.0,0.0,0.0,0.0,0.0,0.0,0.0,0.0,0.0,0.0,0.0,0.0,0.0,0.0,0.0,0.0,0.0,0.0,0.0,0.0,0.0,0.0,0.0,0.0,0.0,0.0,0.0,0.0,0.0,0.0,0.0,0.0,0.0,0.0,0.0,0.0,0.0,0.0,0.0,0.0,0.0,0.0,0.0,0.0,0.0,0.0,0.0,0.0,0.0,0.0,0.0,0.0,0.0,0.0,0.0,0.0,0.0,0.0,0.0,0.0,0.0,0.0,0.0,0.0,0.0,0.3282,0.3282,0.3282,0.3332,0.3282,0.3181,0.0,0.0,0.0,0.0,0.0,0.0,0.0,0.0,0.0,0.0,0.0,0.0,0.0,0.0,0.0,0.0,0.0,0.0,0.0,0.0,0.0,0.0,0.0,0.0,0.0,0.0,0.0,0.0,0.0,0.0,0.0,0.0,0.0,0.0,0.0,0.0,0.0,0.0,0.0,0.0,0.0,0.0,0.0,0.0,0.0,0.0,0.0,0.0,0.0,0.0,0.0,0.0,0.0,0.0,0.0,0.0,0.0,0.0,0.0,0.0,0.0,0.0,0.0,0.0,0.0,0.0,0.0,0.0,0.0,0.0,0.0,0.0,0.0,0.0,0.0,0.0,0.0,0.0,0.0,0.0,0.0,0.0,0.0,0.0,0.0,0.0,0.0,0.0,0.0,0.0,0.0,0.0,0.0,0.0,0.0,0.0,0.0,0.0,0.0,0.0,0.0,0.0,0.0,0.0,0.0,0.0,0.0,0.0,0.0,0.3584,0.3584,0.3584,0.3584,0.3433,0.0,0.0,0.0,0.0,0.0,0.0,0.0,0.0,0.0,0.0,0.0,0.0,0.0,0.0,0.0,0.0,0.0,0.0,0.0,0.0,0.0,0.0,0.0,0.0,0.0,0.0,0.0,0.0,0.0,0.0,0.0,0.0,0.0,0.0,0.0,0.0,0.0,0.0,0.0,0.0,0.0,0.0,0.0,0.0,0.0,0.0,0.0,0.0,0.0,0.0,0.0,0.0,0.0,0.0,0.0,0.0,0.0,0.0,0.0,0.0,0.0,0.0,0.0,0.0,0.0,0.0,0.0,0.0,0.0,0.0,0.0,0.0,0.0,0.0,0.0,0.0,0.0,0.0,0.0,0.0,0.0,0.0,0.0,0.0,0.0,0.0,0.0,0.0,0.0,0.0,0.0,0.0,0.0,0.0,0.0,0.0,0.0,0.0,0.0,0.0,0.0,0.0,0.0,0.0,0.0,0.0,0.0,0.0,0.0,0.3635,0.3783,0.3883,0.3833,0.3833,0.3736,0.0,0.0,0.0,0.0,0.0,0.0,0.0,0.0,0.0,0.0,0.0,0.0,0.0,0.0,0.0,0.0,0.0,0.0,0.0,0.0,0.0,0.0,0.0,0.0,0.0,0.0,0.0,0.0,0.0,0.0,0.0,0.0,0.0,0.0,0.0,0.0,0.0,0.0,0.0,0.0,0.0,0.0,0.0,0.0,0.0,0.0,0.0,0.0,0.0,0.0,0.0,0.0,0.0,0.0,0.0,0.0,0.0,0.0,0.0,0.0,0.0,0.0,0.0,0.0,0.0,0.0,0.0,0.0,0.0,0.0,0.0,0.0,0.0,0.0,0.0,0.0,0.0,0.0,0.0,0.0,0.0,0.0,0.0,0.0,0.0,0.0,0.0,0.0,0.0,0.0,0.0,0.0,0.0,0.0,0.0,0.0,0.0,0.0,0.0,0.0,0.0,0.0,0.0,0.0,0.0,0.0,0.0,0.0,0.0,0.4072,0.0,0.4618,0.4511,0.4387,0.417,0.0,0.0,0.0,0.0,0.0,0.0,0.0,0.0,0.0,0.0,0.0,0.0,0.0,0.0,0.0,0.0,0.0,0.0,0.0,0.0,0.0,0.0,0.0,0.0,0.0,0.0,0.0,0.0,0.0,0.0,0.0,0.0,0.0,0.0,0.0,0.0,0.0,0.0,0.0,0.0,0.0,0.0,0.0,0.0,0.0,0.0,0.0,0.0,0.0,0.0,0.0,0.0,0.0,0.0,0.0,0.0,0.0,0.0,0.0,0.0,0.0,0.0,0.0,0.0,0.0,0.0,0.0,0.0,0.0,0.0,0.0,0.0,0.0,0.0,0.0,0.0,0.0,0.0,0.0,0.0,0.0,0.0,0.0,0.0,0.0,0.0,0.0,0.0,0.0,0.0,0.0,0.0,0.0,0.0,0.0,0.0,0.0,0.0,0.0,0.0,0.0,0.0,0.0,0.0,0.0,0.0,0.0,0.0,0.4133,0.4973,0.5636,0.5845,0.5633,0.5231,0.4922,0.0,0.0,0.0,0.0,0.0,0.0,0.0,0.0,0.0,0.0,0.0,0.0,0.0,0.0,0.0,0.0,0.0,0.0,0.0,0.0,0.0,0.0,0.0,0.0,0.0,0.0,0.0,0.0,0.0,0.0,0.0,0.0,0.0,0.0,0.0,0.0,0.0,0.0,0.0,0.0,0.0,0.0,0.0,0.0,0.0,0.0,0.0,0.0,0.0,0.0,0.0,0.0,0.0,0.0,0.0,0.0,0.0,0.0,0.0,0.0,0.0,0.0,0.0,0.0,0.0,0.0,0.0,0.0,0.0,0.0,0.0,0.0,0.0,0.0,0.0,0.0,0.0,0.0,0.0,0.0,0.0,0.0,0.0,0.0,0.0,0.0,0.0,0.0,0.0,0.0,0.0,0.0,0.0,0.0,0.0,0.0,0.0,0.0,0.0,0.0,0.0,0.0,0.0,0.0,0.0,0.0,0.0,0.0,0.0,0.6173,0.6529,0.67,0.6647,0.6353,0.5836,0.0,0.0,0.0,0.0,0.0,0.0,0.0,0.0,0.0,0.0,0.0,0.0,0.0,0.0,0.0,0.0,0.0,0.0,0.0,0.0,0.0,0.0,0.0,0.0,0.0,0.0,0.0,0.0,0.0,0.0,0.0,0.0,0.0,0.0,0.0,0.0,0.0,0.0,0.0,0.0,0.0,0.0,0.0,0.0,0.0,0.0,0.0,0.0,0.0,0.0,0.0,0.0,0.0,0.0,0.0,0.0,0.0,0.0,0.0,0.0,0.0,0.0,0.0,0.0,0.0,0.0,0.0,0.0,0.0,0.0,0.0,0.0,0.0,0.0,0.0,0.0,0.0,0.0,0.0,0.0,0.0,0.0,0.0,0.0,0.0,0.0,0.0,0.0,0.0,0.0,0.0,0.0,0.0,0.0,0.0,0.0,0.0,0.0,0.0,0.0,0.0,0.0,0.0,0.0,0.0,0.0,0.0,0.0,0.0,0.7703,0.7668,0.7621,0.7621,0.7144,0.6596,0.6028,0.0,0.0,0.0,0.0,0.0,0.0,0.0,0.0,0.0,0.0,0.0,0.0,0.0,0.0,0.0,0.0,0.0,0.0,0.0,0.0,0.0,0.0,0.0,0.0,0.0,0.0,0.0,0.0,0.0,0.0,0.0,0.0,0.0,0.0,0.0,0.0,0.0,0.0,0.0,0.0,0.0,0.0,0.0,0.0,0.0,0.0,0.0,0.0,0.0,0.0,0.0,0.0,0.0,0.0,0.0,0.0,0.0,0.0,0.0,0.0,0.0,0.0,0.0,0.0,0.0,0.0,0.0,0.0,0.0,0.0,0.0,0.0,0.0,0.0,0.0,0.0,0.0,0.0,0.0,0.0,0.0,0.0,0.0,0.0,0.0,0.0,0.0,0.0,0.0,0.0,0.0,0.0,0.0,0.0,0.0,0.0,0.0,0.0,0.0,0.0,0.0,0.0,0.0,0.0,0.0,0.0,0.0,0.0,0.939,0.8913,0.8598,0.8574,0.7772,0.7182,0.0,0.0,0.0,0.0,0.0,0.0,0.0,0.0,0.0,0.0,0.0,0.0,0.0,0.0,0.0,0.0,0.0,0.0,0.0,0.0,0.0,0.0,0.0,0.0,0.0,0.0,0.0,0.0,0.0,0.0,0.0,0.0,0.0,0.0,0.0,0.0,0.0,0.0,0.0,0.0,0.0,0.0,0.0,0.0,0.0,0.0,0.0,0.0,0.0,0.0,0.0,0.0,0.0,0.0,0.0,0.0,0.0,0.0,0.0,0.0,0.0,0.0,0.0,0.0,0.0,0.0,0.0,0.0,0.0,0.0,0.0,0.0,0.0,0.0,0.0,0.0,0.0,0.0,0.0,0.0,0.0,0.0,0.0,0.0,0.0,0.0,0.0,0.0,0.0,0.0,0.0,0.0,0.0,0.0,0.0,0.0,0.0,0.0,0.0,0.0,0.0,0.0,0.0,0.0,0.0,0.0,0.0,0.0,0.0,0.9694,1.0026,0.9999,0.9473,0.9036,0.8393,0.0,0.0,0.0,0.0,0.0,0.0,0.0,0.0,0.0,0.0,0.0,0.0,0.0,0.0,0.0,0.0,0.0,0.0,0.0,0.0,0.0,0.0,0.0,0.0,0.0,0.0,0.0,0.0,0.0,0.0,0.0,0.0,0.0,0.0,0.0,0.0,0.0,0.0,0.0,0.0,0.0,0.0,0.0,0.0,0.0,0.0,0.0,0.0,0.0,0.0,0.0,0.0,0.0,0.0,0.0,0.0,0.0,0.0,0.0,0.0,0.0,0.0,0.0,0.0,0.0,0.0,0.0,0.0,0.0,0.0,0.0,0.0,0.0,0.0,0.0,0.0,0.0,0.0,0.0,0.0,0.0,0.0,0.0,0.0,0.0,0.0,0.0,0.0,0.0,0.0,0.0,0.0,0.0,0.0,0.0,0.0,0.0,0.0,0.0,0.0,0.0,0.0,0.0,0.0,0.0,0.0,0.0,0.0,0.9739,1.0447,1.0891,1.0963,1.065,0.9958,0.9095,0.0,0.0,0.0,0.0,0.0,0.0,0.0,0.0,0.0,0.0,0.0,0.0,0.0,0.0,0.0,0.0,0.0,0.0,0.0,0.0,0.0,0.0,0.0,0.0,0.0,0.0,0.0,0.0,0.0,0.0,0.0,0.0,0.0,0.0,0.0,0.0,0.0,0.0,0.0,0.0,0.0,0.0,0.0,0.0,0.0,0.0,0.0,0.0,0.0,0.0,0.0,0.0,0.0,0.0,0.0,0.0,0.0,0.0,0.0,0.0,0.0,0.0,0.0,0.0,0.0,0.0,0.0,0.0,0.0,0.0,0.0,0.0,0.0,0.0,0.0,0.0,0.0,0.0,0.0,0.0,0.0,0.0,0.0,0.0,0.0,0.0,0.0,0.0,0.0,0.0,0.0,0.0,0.0,0.0,0.0,0.0,0.0,0.0,0.0,0.0,0.0,0.0,0.0,0.0,0.0,0.0,0.0,0.0,1.022,1.124,1.1493,1.1649,1.1755,1.0657,0.9585,0.0,0.0,0.0,0.0,0.0,0.0,0.0,0.0,0.0,0.0,0.0,0.0,0.0,0.0,0.0,0.0,0.0,0.0,0.0,0.0,0.0,0.0,0.0,0.0,0.0,0.0,0.0,0.0,0.0,0.0,0.0,0.0,0.0,0.0,0.0,0.0,0.0,0.0,0.0,0.0,0.0,0.0,0.0,0.0,0.0,0.0,0.0,0.0,0.0,0.0,0.0,0.0,0.0,0.0,0.0,0.0,0.0,0.0,0.0,0.0,0.0,0.0,0.0,0.0,0.0,0.0,0.0,0.0,0.0,0.0,0.0,0.0,0.0,0.0,0.0,0.0,0.0,0.0,0.0,0.0,0.0,0.0,0.0,0.0,0.0,0.0,0.0,0.0,0.0,0.0,0.0,0.0,0.0,0.0,0.0,0.0,0.0,0.0,0.0,0.0,0.0,0.0,0.0,0.0,0.0,0.0,0.0,0.0,1.0777,1.1314,1.2135,1.227,1.1747,1.1512,1.0672,0.0,0.0,0.0,0.0,0.0,0.0,0.0,0.0,0.0,0.0,0.0,0.0,0.0,0.0,0.0,0.0,0.0,0.0,0.0,0.0,0.0,0.0,0.0,0.0,0.0,0.0,0.0,0.0,0.0,0.0,0.0,0.0,0.0,0.0,0.0,0.0,0.0,0.0,0.0,0.0,0.0,0.0,0.0,0.0,0.0,0.0,0.0,0.0,0.2704,0.0,0.0,0.0,0.0,0.0,0.0,0.0,0.0,0.0,0.0,0.0,0.0,0.0,0.0,0.0,0.0,0.0,0.0,0.0,0.0,0.0,0.0,0.0,0.0,0.0,0.0,0.0,0.0,0.0,0.0,0.0,0.0,0.0,0.0,0.0,0.0,0.0,0.0,0.0,0.0,0.0,0.0,0.0,0.0,0.0,0.0,0.0,0.0,0.0,0.0,0.0,0.0,0.0,0.0,0.0,0.0,0.0,0.0,0.0,1.1483,1.2,1.2597,1.2735,1.2373,1.2278,1.1439,0.0,0.0,0.0,0.0,0.0,0.0,0.0,0.0,0.0,0.0,0.0,0.0,0.0,0.0,0.0,0.0,0.0,0.0,0.0,0.0,0.0,0.0,0.0,0.0,0.0,0.0,0.0,0.0,0.0,0.0,0.0,0.0,0.0,0.0,0.0,0.0,0.0,0.0,0.0,0.0,0.0,0.0,0.0,0.0,0.0,0.0,0.0,0.0,0.0,0.0,0.0,0.0,0.0,0.0,0.0,0.0,0.0,0.0,0.0,0.0,0.0,0.0,0.0,0.0,0.0,0.0,0.0,0.0,0.0,0.0,0.0,0.0,0.0,0.0,0.0,0.0,0.0,0.0,0.0,0.0,0.0,0.0,0.0,0.0,0.0,0.0,0.0,0.0,0.0,0.0,0.0,0.0,0.0,0.0,0.0,0.0,0.0,0.0,0.0,0.0,0.0,0.0,0.0,0.0,0.0,0.0,0.0,1.1429,1.2246,1.2842,1.3099,1.3193,1.3044,1.2851,1.1843,1.0031,0.0,0.0,0.0,0.0,0.0,0.0,0.0,0.0,0.0,0.0,0.0,0.0,0.0,0.0,0.0,0.0,0.0,0.0,0.0,0.0,0.0,0.0,0.0,0.0,0.0,0.0,0.0,0.0,0.0,0.0,0.0,0.0,0.0,0.0,0.0,0.0,0.0,0.0,0.3108,0.2901,0.0,0.0,0.0,0.0,0.0,0.0,0.0,0.0,0.202,0.0,0.0,0.0,0.0,0.0,0.0,0.0,0.0,0.0,0.0,0.0,0.0,0.0,0.0,0.0,0.0,0.0,0.0,0.0,0.0,0.0,0.0,0.0,0.0,0.0,0.0,0.0,0.0,0.0,0.0,0.0,0.0,0.0,0.0,0.0,0.0,0.0,0.0,0.0,0.0,0.0,0.0,0.0,0.0,0.0,0.0,0.0,0.0,0.0,0.0,0.0,0.0,0.0,0.0,0.0,0.0,1.0769,1.1848,1.2686,1.3029,1.3483,1.35,1.2851,1.2564,1.1818,1.0584,0.0,0.0,0.0,0.0,0.0,0.0,0.0,0.0,0.0,0.0,0.0,0.0,0.0,0.0,0.0,0.0,0.0,0.0,0.0,0.0,0.0,0.0,0.0,0.0,0.0,0.0,0.0,0.0,0.0,0.0,0.0,0.0,0.0,0.0,0.0,0.0,0.0,0.0,0.0,0.2689,0.2551,0.0,0.0,0.0,0.0,0.0,0.0,0.0,0.0,0.2068,0.0,0.0,0.0,0.0,0.0,0.0,0.0,0.0,0.0,0.0,0.0,0.0,0.0,0.0,0.0,0.0,0.0,0.0,0.0,0.0,0.0,0.0,0.0,0.0,0.0,0.0,0.0,0.0,0.0,0.0,0.0,0.0,0.0,0.0,0.0,0.0,0.0,0.0,0.0,0.0,0.0,0.0,0.0,0.0,0.0,0.0,0.0,0.0,0.0,0.0,0.0,0.0,0.0,0.0,0.0,1.1158,1.239,1.3202,1.3483,1.3792,1.3587,1.2944,1.2485,1.1772,0.0,0.0,0.0,0.0,0.0,0.0,0.0,0.0,0.0,0.0,0.0,0.0,0.0,0.0,0.0,0.0,0.0,0.0,0.0,0.0,0.0,0.0,0.0,0.0,0.0,0.0,0.0,0.0,0.0,0.0,0.0,0.0,0.0,0.0,0.0,0.0,0.0,0.0,0.0,0.0,0.2514,0.2376,0.2376,0.0,0.0,0.0,0.0,0.0,0.0,0.2213,0.2183,0.0,0.0,0.0,0.0,0.0,0.0,0.0,0.0,0.0,0.0,0.0,0.0,0.0,0.0,0.0,0.0,0.0,0.0,0.0,0.0,0.0,0.0,0.0,0.0,0.0,0.0,0.0,0.0,0.0,0.0,0.0,0.0,0.0,0.0,0.0,0.0,0.0,0.0,0.0,0.0,0.0,0.0,0.0,0.0,0.0,0.0,0.0,0.0,0.0,0.0,0.0,0.0,0.0,0.0,0.0,1.1644,1.2807,1.3595,1.3937,1.3993,1.3697,1.3137,1.263,1.1876,0.0,0.0,0.0,0.0,0.0,0.0,0.0,0.0,0.0,0.0,0.0,0.0,0.0,0.0,0.0,0.0,0.0,0.0,0.0,0.0,0.0,0.0,0.0,0.0,0.0,0.0,0.0,0.0,0.0,0.0,0.0,0.0,0.0,0.0,0.0,0.0,0.0,0.0,0.0,0.0,0.0,0.2176,0.2249,0.2208,0.0,0.0,0.0,0.0,0.2305,0.2304,0.0,0.0,0.0,0.0,0.0,0.0,0.0,0.0,0.0,0.0,0.0,0.0,0.0,0.0,0.0,0.0,0.0,0.0,0.0,0.0,0.0,0.0,0.0,0.0,0.0,0.0,0.0,0.0,0.0,0.0,0.0,0.0,0.0,0.0,0.0,0.0,0.0,0.0,0.0,0.0,0.0,0.0,0.0,0.0,0.0,0.0,0.0,0.0,0.0,0.0,0.0,0.0,0.0,0.0,0.0,0.0,1.2242,1.3122,1.379,1.4131,1.4294,1.409,1.3517,1.2884,1.2131,0.0,0.0,0.0,0.0,0.0,0.0,0.0,0.0,0.0,0.0,0.0,0.0,0.0,0.0,0.0,0.0,0.0,0.0,0.0,0.0,0.0,0.0,0.0,0.0,0.0,0.0,0.0,0.0,0.0,0.0,0.0,0.0,0.0,0.0,0.0,0.0,0.0,0.0,0.0,0.0,0.0,0.2244,0.2271,0.2298,0.2327,0.0,0.0,0.2364,0.2368,0.2345,0.0,0.0,0.0,0.0,0.0,0.0,0.0,0.0,0.0,0.0,0.0,0.0,0.0,0.0,0.0,0.0,0.0,0.0,0.0,0.0,0.0,0.0,0.0,0.0,0.0,0.0,0.0,0.0,0.0,0.0,0.0,0.0,0.0,0.0,0.0,0.0,0.0,0.0,0.0,0.0,0.0,0.0,0.0,0.0,0.0,0.0,0.0,0.0,0.0,0.0,0.0,0.0,0.0,0.0,0.0,1.137,1.2297,1.3162,1.3863,1.4302,1.4391,1.4178,1.3803,1.3115,1.2241,0.0,0.0,0.0,0.0,0.0,0.0,0.0,0.0,0.0,0.0,0.0,0.0,0.0,0.0,0.0,0.0,0.0,0.0,0.0,0.0,0.0,0.0,0.0,0.0,0.0,0.0,0.0,0.0,0.0,0.0,0.0,0.0,0.0,0.0,0.0,0.0,0.0,0.0,0.0,0.0,0.0,0.0,0.2334,0.238,0.0,0.0,0.0,0.2505,0.2431,0.0,0.0,0.0,0.0,0.0,0.0,0.0,0.0,0.0,0.0,0.0,0.0,0.0,0.0,0.0,0.0,0.0,0.0,0.0,0.0,0.0,0.0,0.0,0.0,0.0,0.0,0.0,0.0,0.0,0.0,0.0,0.0,0.0,0.0,0.0,0.0,0.0,0.0,0.0,0.0,0.0,0.0,0.0,0.0,0.0,0.0,0.0,0.0,0.0,0.0,0.0,0.0,0.0,0.0,0.0,0.0,0.0,1.2437,1.3279,1.3945,1.4416,1.4521,1.4396,1.4125,1.3421,0.0,0.0,0.0,0.0,0.0,0.0,0.0,0.0,0.0,0.0,0.0,0.0,0.0,0.0,0.0,0.0,0.0,0.0,0.0,0.0,0.0,0.0,0.0,0.0,0.0,0.0,0.0,0.1765,0.0,0.0,0.0,0.0,0.0,0.0,0.0,0.0,0.0,0.0,0.0,0.0,0.0,0.0,0.2318,0.2391,0.2447,0.2474,0.0,0.0,0.2489,0.2481,0.2436,0.2394,0.0,0.0,0.0,0.0,0.0,0.0,0.0,0.0,0.0,0.0,0.0,0.0,0.0,0.0,0.0,0.0,0.0,0.0,0.0,0.0,0.0,0.0,0.0,0.0,0.0,0.0,0.0,0.0,0.0,0.0,0.0,0.0,0.0,0.0,0.0,0.0,0.0,0.0,0.0,0.0,0.0,0.0,0.0,0.0,0.0,0.0,0.0,0.0,0.0,0.0,0.0,0.0,0.0,0.0,0.0,1.2766,1.353,1.4058,1.4424,1.4757,1.4854,1.4616,1.3974,1.3182,0.0,0.0,0.0,0.0,0.0,0.0,0.0,0.0,0.0,0.0,0.0,0.0,0.0,0.0,0.0,0.0,0.0,0.0,0.0,0.0,0.0,0.0,0.0,0.0,0.0,0.0,0.0,0.0,0.0,0.0,0.0,0.0,0.0,0.0,0.0,0.0,0.0,0.0,0.0,0.0,0.0,0.2333,0.2447,0.2491,0.2521,0.0,0.0,0.2544,0.2515,0.2484,0.2433,0.235,0.0,0.0,0.0,0.0,0.0,0.0,0.0,0.0,0.0,0.0,0.0,0.0,0.0,0.0,0.0,0.0,0.0,0.0,0.0,0.0,0.0,0.0,0.0,0.0,0.0,0.0,0.0,0.0,0.0,0.0,0.0,0.0,0.0,0.0,0.0,0.0,0.0,0.0,0.0,0.0,0.0,0.0,0.0,0.0,0.0,0.0,0.0,0.0,0.0,0.0,0.0,0.0,0.0,1.1964,1.2994,1.3701,1.4188,1.4432,1.4781,1.4887,1.4708,1.4093,1.3504,0.0,0.0,0.0,0.0,0.0,0.0,0.0,0.0,0.0,0.0,0.0,0.0,0.0,0.0,0.0,0.0,0.0,0.0,0.0,0.0,0.0,0.0,0.0,0.0,0.0,0.0,0.0,0.0,0.2019,0.2039,0.202,0.0,0.0,0.0,0.0,0.0,0.0,0.0,0.0,0.0,0.0,0.2382,0.2482,0.2538,0.0,0.0,0.2601,0.2602,0.2572,0.2529,0.2485,0.245,0.2349,0.0,0.0,0.0,0.0,0.0,0.0,0.0,0.0,0.0,0.0,0.0,0.0,0.0,0.0,0.0,0.0,0.0,0.0,0.0,0.0,0.0,0.0,0.0,0.0,0.0,0.0,0.0,0.0,0.0,0.0,0.0,0.0,0.0,0.0,0.0,0.0,0.0,0.0,0.0,0.0,0.0,0.0,0.0,0.0,0.0,0.0,0.0,0.0,0.0,0.0,0.0,0.0,1.2275,1.3173,1.3839,1.4294,1.4505,1.4806,1.4911,1.4789,1.4386,1.3853,0.0,0.0,0.0,0.0,0.0,0.0,0.0,0.0,0.0,0.0,0.0,0.0,0.0,0.0,0.0,0.0,0.0,0.0,0.0,0.0,0.0,0.0,0.0,0.0,0.0,0.0,0.0,0.0,0.2045,0.2056,0.2034,0.0,0.0,0.0,0.0,0.0,0.0,0.0,0.0,0.0,0.0,0.2435,0.2517,0.2578,0.2616,0.2615,0.2632,0.2554,0.2607,0.256,0.2525,0.2515,0.0,0.0,0.0,0.0,0.0,0.0,0.0,0.0,0.0,0.0,0.0,0.0,0.0,0.0,0.0,0.0,0.0,0.0,0.0,0.0,0.0,0.0,0.0,0.0,0.0,0.0,0.0,0.0,0.0,0.0,1.0358,0.0,0.0,0.0,0.0,0.0,0.0,0.0,0.0,0.0,0.0,0.0,0.0,0.0,0.0,0.0,0.0,0.0,0.0,0.0,0.0,0.0,0.0,1.2661,1.336,1.3912,1.4351,1.4692,1.4879,1.5045,1.496,1.4789,1.4306,1.3574,0.0,0.0,0.0,0.0,0.0,0.0,0.0,0.0,0.0,0.0,0.0,0.0,0.0,0.0,0.0,0.0,0.0,0.0,0.0,0.0,0.0,0.0,0.0,0.0,0.0,0.0,0.2099,0.2082,0.2128,0.0,0.0,0.0,0.0,0.0,0.0,0.0,0.0,0.0,0.0,0.2428,0.2489,0.263,0.2609,0.2562,0.2563,0.2565,0.2556,0.2608,0.2578,0.2549,0.0,0.0,0.0,0.0,0.0,0.0,0.0,0.0,0.0,0.0,0.0,0.0,0.0,0.0,0.0,0.0,0.0,0.0,0.0,0.0,0.0,0.0,0.0,0.0,0.0,0.0,0.0,1.1516,1.1411,0.0,0.0,0.0,0.0,0.0,0.0,0.0,0.0,0.0,0.0,0.0,1.1983,1.1929,0.0,0.0,0.0,0.0,0.0,0.0,0.0,0.0,0.0,0.0,0.0,0.0,1.3011,1.3701,1.4131,1.4521,1.4871,1.5049,1.5147,1.5147,1.4976,1.4453,1.3506,0.0,0.0,0.0,0.0,0.0,0.0,0.0,0.0,0.0,0.0,0.0,0.0,0.0,0.0,0.0,0.0,0.0,0.0,0.0,0.0,0.0,0.0,0.0,0.0,0.0,0.2104,0.0,0.0,0.0,0.0,0.0,0.0,0.0,0.0,0.0,0.0,0.0,0.2337,0.2427,0.2491,0.2551,0.2609,0.2634,0.2654,0.0,0.0,0.0,0.0,0.0,0.0,0.0,0.0,0.0,0.0,0.0,0.0,0.0,0.0,0.4346,0.4875,0.5115,0.5335,0.5873,0.0,0.0,0.0,0.0,0.0,0.0,0.0,0.0,0.0,0.0,0.0,0.0,0.0,0.0,1.228,0.0,1.2109,0.0,0.0,0.0,0.0,0.0,0.0,0.0,0.0,1.3124,1.3102,1.303,1.2966,1.2807,0.0,1.2479,1.22,0.0,0.0,0.0,0.0,0.0,0.0,0.0,0.0,1.3344,1.3985,1.4408,1.4757,1.5049,1.5244,1.5333,1.5325,1.509,1.4541,1.3592,1.3036,1.2307,0.0,0.0,0.0,0.0,0.0,0.0,0.0,0.0,0.0,0.0,0.0,0.0,0.0,0.0,0.0,0.0,0.0,0.0,0.0,0.0,0.0,0.0,0.0,0.2184,0.0,0.0,0.0,0.0,0.0,0.0,0.0,0.0,0.0,0.2278,0.2346,0.2425,0.2504,0.2567,0.262,0.2657,0.0,0.0,0.0,0.0,0.0,0.0,0.0,0.2686,0.2705,0.2667,0.2632,0.2634,0.2746,0.3103,0.358,0.0,0.0,0.5109,0.5301,0.5478,0.5974,0.6211,0.6467,0.6773,0.7018,0.7123,0.0,0.0,0.0,0.0,0.0,0.0,0.0,0.0,1.2881,1.297,0.0,1.2759,0.0,0.0,0.0,0.0,0.0,1.3216,0.0,0.0,1.3831,1.4018,1.4164,1.3993,1.392,1.392,1.3912,1.3896,1.3839,1.2616,0.0,0.0,0.0,0.0,0.0,0.0,1.3652,1.4196,1.47,1.5057,1.5166,1.5431,1.552,1.5512,1.5171,1.4654,1.3937,1.36,1.2902,1.1877,1.1084,0.0,0.0,0.0,0.0,0.0,0.0,0.0,0.0,0.0,0.0,0.0,0.0,0.0,0.0,0.0,0.0,0.0,0.0,0.0,0.0,0.2243,0.0,0.0,0.0,0.0,0.0,0.0,0.0,0.0,0.0,0.0,0.2425,0.2482,0.254,0.2598,0.0,0.0,0.0,0.0,0.2782,0.2782,0.2784,0.2773,0.2743,0.2739,0.274,0.2743,0.0,0.0,0.2701,0.2699,0.2697,0.2612,0.2952,0.3673,0.5172,0.5408,0.552,0.5607,0.5938,0.6377,0.6437,0.6687,0.7045,1.4172,0.0,0.0,0.0,0.0,1.3604,1.3669,1.3604,1.3742,1.3742,1.3669,1.3563,0.0,0.0,0.0,0.0,0.0,0.0,1.4042,1.4205,1.4253,1.4375,1.4546,1.4367,1.4351,1.4473,1.4343,1.4278,1.4261,1.3905,1.34,1.2936,0.0,0.0,0.0,0.0,1.4018,1.4538,1.483,1.5114,1.5431,1.561,1.5699,1.5699,1.535,1.4972,1.4662,1.4093,1.3535,1.298,1.1986,0.0,0.0,0.0,0.0,0.0,0.0,0.0,0.0,0.0,0.0,0.0,0.0,0.0,0.0,0.0,0.0,0.0,0.0,0.0,0.2337,0.2371,0.2382,0.0,0.0,0.0,0.0,0.0,0.0,0.0,0.0,0.0,0.2604,0.2611,0.2631,0.0,0.0,0.2757,0.2757,0.2773,0.2784,0.2784,0.2784,0.0,0.2772,0.277,0.2785,0.2827,0.2844,0.2763,0.2408,0.2304,0.2293,0.2204,0.2041,0.2222,0.2992,0.3862,0.4572,0.4937,0.5148,0.5421,0.5748,0.5859,0.6055,1.4968,1.4383,1.4343,1.4261,1.4188,1.4399,1.4424,1.4335,1.4448,1.4473,1.4424,1.4351,1.4261,1.4164,1.4099,0.0,0.0,0.0,1.4651,1.4681,1.4822,1.4919,1.5017,1.4911,1.4919,1.5017,1.4911,1.4862,1.4862,1.4862,1.4611,1.4115,0.0,0.0,1.3863,1.4099,1.4416,1.4806,1.5122,1.5398,1.5618,1.5788,1.5845,1.5772,1.5561,1.5333,1.5082,1.457,1.4141,1.3717,1.2742,1.1815,0.0,0.0,0.0,0.0,0.0,0.0,0.0,0.0,0.0,0.0,0.0,0.2078,0.0,0.0,0.0,0.0,0.2285,0.2373,0.2469,0.2477,0.0,0.0,0.0,0.0,0.0,0.0,0.0,0.2538,0.2586,0.2642,0.2718,0.2733,0.2742,0.2754,0.2792,0.2819,0.2819,0.0,0.2853,0.2853,0.2853,0.2855,0.2853,0.2853,0.2867,0.2902,0.2739,0.2567,0.2292,0.2008,0.1728,0.1546,0.1462,0.1468,0.1559,0.2335,0.3095,0.365,0.412,0.4395,0.4726,0.4928,0.5119,1.5585,1.5569,1.5236,1.5065,1.5009,1.5009,1.5009,1.5009,1.5009,1.5098,1.5166,1.5082,1.5086,1.5,1.4846,0.0,1.4789,1.5114,1.5174,1.5268,1.5439,1.552,1.5536,1.552,1.552,1.5528,1.552,1.5512,1.5504,1.5512,1.5431,1.5244,1.4611,1.4278,1.4278,1.4586,1.4838,1.5009,1.5512,1.5772,1.5796,1.5959,1.5967,1.5804,1.578,1.561,1.5277,1.5082,1.475,1.4171,1.3351,1.2516,1.1621,0.0,0.0,0.0,0.0,0.0,0.0,0.0,0.0,0.0,0.0,0.0,0.0,0.0,0.0,0.0,0.2414,0.0,0.2568,0.2571,0.0,0.0,0.0,0.2488,0.2491,0.2515,0.2556,0.2616,0.0,0.0,0.2789,0.2846,0.286,0.2804,0.2845,0.2881,0.2881,0.2924,0.2962,0.2954,0.296,0.296,0.295,0.2954,0.2957,0.2869,0.2503,0.2227,0.2042,0.1671,0.1206,0.0743,0.1021,0.1115,0.0743,0.102,0.1392,0.1946,0.2779,0.3427,0.3416,0.3788,0.4067,1.6202,1.6316,1.6235,1.5886,1.539,1.539,1.5382,1.5382,1.5382,1.5407,1.5447,1.5407,1.5382,1.5382,1.5342,1.5325,1.5325,1.5415,1.5447,1.5455,1.5496,1.5585,1.5699,1.5577,1.5585,1.5699,1.5577,1.5512,1.5512,1.5512,1.5496,1.5439,1.5277,1.5122,1.4992,1.5065,1.5204,1.5382,1.5642,1.5845,1.5975,1.6024,1.6024,1.5983,1.5845,1.5675,1.5455,1.5268,1.4948,1.4573,1.4062,1.342,1.2501,1.1237,0.0,0.0,0.0,0.0,0.0,0.0,0.0,0.0,0.0,0.2509,0.2282,0.0,0.2403,0.0,0.2549,0.263,0.269,0.2675,0.0,0.0,0.2657,0.2649,0.2671,0.268,0.2717,0.28,0.2822,0.2853,0.2912,0.2931,0.2935,0.2921,0.2931,0.2941,0.2942,0.2951,0.2962,0.2962,0.2964,0.2962,0.2965,0.2981,0.2809,0.2434,0.2355,0.1988,0.123,0.1041,0.0758,0.0284,0.0284,0.0284,0.0,0.0284,0.0,0.0568,0.1318,0.1961,0.1948,0.2142,0.2335,1.6487,1.6584,1.6584,1.6349,1.5991,1.5991,1.5991,1.5991,1.5991,1.5983,1.5975,1.5821,1.5748,1.5675,1.5748,1.5748,1.5764,1.591,1.5991,1.5991,1.5991,1.604,1.6129,1.6032,1.604,1.6129,1.6032,1.5991,1.5991,1.5991,1.5991,1.5991,1.5991,1.5934,1.5829,1.5593,1.5528,1.5634,1.5804,1.5943,1.5958,1.5966,1.5966,1.5958,1.5951,1.5813,1.5634,1.5463,1.5236,1.496,1.4258,1.3597,1.3169,1.1983,1.0767,0.0,0.0,0.0,0.0,0.0,0.0,0.0,0.0,0.0,0.0,0.0,0.25,0.2586,0.265,0.2706,0.2754,0.2755,0.2759,0.2776,0.2776,0.278,0.2797,0.281,0.2837,0.2886,0.2905,0.2926,0.2957,0.2973,0.2981,0.2981,0.2994,0.309,0.2986,0.2992,0.3096,0.3002,0.3002,0.3002,0.3002,0.2827,0.2554,0.2271,0.19,0.143,0.0858,0.0572,0.0382,0.0,0.0,0.0,0.0,0.0,0.0,0.0,0.0475,0.085,0.1127,0.1319,0.1604,1.6625,1.6649,1.6649,1.6649,1.6649,1.6649,1.6625,1.6584,1.6584,1.6584,1.656,1.6251,1.6113,1.6113,1.6113,1.6113,1.6137,1.6438,1.6584,1.6584,1.6584,1.6584,1.6584,1.6584,1.6584,1.6584,1.6584,1.6584,1.6584,1.6584,1.6584,1.6584,1.6584,1.6584,1.656,1.6113,1.5878,1.5878,1.6032,1.6105,1.5998,1.6081,1.6064,1.5966,1.5966,1.5959,1.578,1.561,1.5352,1.5088,1.4168,1.3543,1.3437,1.2447,1.1283,0.0,0.9413,0.0,0.0,0.0,0.0,0.0,0.0,0.0,0.0,0.25,0.2585,0.2701,0.2737,0.2767,0.2797,0.2827,0.2845,0.2846,0.287,0.2885,0.2886,0.2906,0.2923,0.2927,0.2951,0.2968,0.2976,0.2996,0.3013,0.3014,0.3037,0.3047,0.3026,0.3036,0.3143,0.3152,0.3158,0.3062,0.2961,0.2579,0.2292,0.2099,0.143,0.0763,0.0668,0.0286,0.0,0.0,0.0,0.0,0.0,0.0,0.0,0.0,0.0,0.0,0.0571,0.0952,0.1335,1.6885,1.7006,1.7015,1.7015,1.7006,1.7006,1.6844,1.6584,1.6584,1.6584,1.6576,1.6511,1.6479,1.6479,1.6479,1.6479,1.6479,1.6552,1.6584,1.6584,1.6584,1.6584,1.6584,1.6584,1.6584,1.6584,1.6584,1.6584,1.6584,1.6584,1.6584,1.6584,1.6584,1.6584,1.6576,0.0,0.0,0.0,1.6462,1.6405,1.6259,1.6251,1.6186,1.5974,1.5966,0.0,1.578,1.561,1.5264,1.4774,1.4548,0.0,0.0,0.0,0.0,0.0,0.0,0.0,0.0,0.0,0.0,0.0,0.3407,0.3016,0.2616,0.2611,0.2699,0.2793,0.283,0.286,0.2887,0.2919,0.2936,0.2936,0.2941,0.2945,0.2945,0.295,0.2961,0.2987,0.2995,0.3007,0.3031,0.304,0.3044,0.3047,0.307,0.3085,0.3081,0.3065,0.3063,0.3084,0.3107,0.2919,0.2512,0.2316,0.1925,0.1339,0.0954,0.0668,0.0287,0.0,0.0,0.0,0.0,0.0,0.0,0.0,0.0,0.0,0.0,0.0,0.0095,0.0,0.0286,1.7031,0.0,1.7112,1.7112,0.0,1.7112,1.7006,1.6844,1.6844,1.6844,1.6836,1.6755,1.6714,1.6714,1.6714,1.6714,1.6722,1.6803,1.6844,1.6844,1.6942,1.6982,1.6982,1.7063,1.7104,1.7104,1.7015,1.6982,1.6974,1.6885,1.6844,1.6844,1.6844,1.6844,1.6844,1.6844,1.6755,1.6584,1.6584,1.6535,1.6446,1.6438,1.6349,1.6186,1.617,0.0,0.0,0.0,0.0,0.0,0.0,0.0,0.0,0.0,0.0,1.0504,0.963,0.8378,0.6723,0.6046,0.5228,0.4013,0.3416,0.293,0.265,0.2731,0.2801,0.2846,0.2891,0.2923,0.2936,0.2965,0.2984,0.2984,0.2996,0.3006,0.3006,0.3006,0.3011,0.3025,0.3029,0.304,0.3071,0.3074,0.3082,0.3095,0.311,0.3119,0.3119,0.3107,0.3104,0.3118,0.2837,0.2647,0.2343,0.1852,0.146,0.0872,0.058,0.029,0.0,0.0,0.0,0.0,0.0,0.0,0.0,0.0,0.0,0.0,0.0,0.0,0.0,0.0,0.0,1.7112,1.7112,1.7112,1.7112,1.7112,1.7112,1.7112,1.7112,0.0,0.0,0.0,1.6966,1.6814,1.6814,1.6901,1.6814,1.6822,1.708,1.7161,1.7169,1.7348,1.7429,1.7445,1.7575,1.764,1.7632,1.7502,1.7429,1.7429,1.7274,1.7201,1.7201,1.721,1.7201,1.7201,1.7201,1.7063,1.6779,1.6706,1.6657,1.6633,1.6625,1.6535,1.6357,1.6349,1.62,1.598,1.5475,1.5143,1.4972,1.4187,1.363,1.3468,1.2767,1.1731,1.0498,0.9927,0.8784,0.6742,0.6222,0.5365,0.3988,0.3201,0.2788,0.2763,0.2831,0.2879,0.2889,0.2938,0.2969,0.2969,0.2996,0.3014,0.3016,0.3037,0.3146,0.3148,0.3153,0.3059,0.3156,0.3066,0.3077,0.3101,0.3106,0.3114,0.3137,0.3145,0.3153,0.3156,0.3153,0.3149,0.3052,0.2765,0.2369,0.2068,0.1476,0.0787,0.0588,0.0294,0.0,0.0,0.0,0.0,0.0,0.0,0.0,0.0,0.0,0.0,0.0,0.0,0.0,0.0,0.0,0.0,1.7112,1.7112,1.7112,1.7112,1.7112,1.7112,1.7112,1.7112,1.7112,1.7112,1.7112,1.7088,1.7071,1.7071,1.7071,1.708,1.7088,1.7266,1.7348,1.7356,1.7526,1.7607,1.7607,1.7632,1.764,1.764,1.7616,1.7599,1.7599,1.7575,1.7567,1.7559,1.7567,1.7559,1.7567,1.7567,1.7543,1.7486,1.7193,1.6966,1.6733,1.6812,1.673,1.6552,1.6544,1.6358,1.5902,1.5653,1.515,1.4474,1.4202,1.3776,1.303,1.2627,1.1839,1.0475,0.9963,0.8856,0.6966,0.6378,0.5375,0.3769,0.3107,0.2859,0.2856,0.2866,0.2894,0.2943,0.298,0.3001,0.3002,0.3026,0.3044,0.3046,0.305,0.3148,0.315,0.3077,0.3092,0.3092,0.3115,0.3129,0.3134,0.3135,0.3138,0.3146,0.3168,0.3189,0.3204,0.3197,0.3183,0.3086,0.2703,0.2205,0.1793,0.1193,0.0595,0.0197,0.0,0.0,0.0,0.0,0.0,0.0,0.0,0.0,0.0,0.0,0.0,0.0,0.0,0.0,0.0,0.0,0.0,1.7112,1.7112,1.7112,1.7112,1.7112,1.7112,1.7112,1.7112,1.7112,1.7112,1.7112,1.7112,1.7112,1.7112,1.7112,1.7161,1.7266,1.7348,1.7437,1.7534,1.7705,1.7794,1.7802,1.7884,1.7932,1.7924,1.7835,1.7794,1.7778,1.7689,1.764,1.764,1.764,1.764,1.764,1.764,1.764,1.764,1.7478,1.7315,1.7153,1.7145,1.7006,1.6738,1.6465,1.616,1.5895,1.5308,1.4846,1.4422,1.416,1.3651,1.3062,1.2435,1.1607,1.0487,0.9711,0.8589,0.7032,0.5797,0.462,0.3321,0.2994,0.2928,0.2945,0.2946,0.2957,0.2984,0.3014,0.3032,0.3032,0.3044,0.3148,0.3148,0.3066,0.3077,0.308,0.3103,0.3122,0.3123,0.3134,0.3149,0.3165,0.3167,0.3175,0.3187,0.3204,0.3216,0.3228,0.322,0.321,0.3112,0.2518,0.1915,0.1607,0.0903,0.0301,0.0,0.0,0.0,0.0,0.0,0.0,0.0,0.0,0.0,0.0,0.0,0.0,0.0,0.0,0.0,0.0,0.0,0.0,1.7112,1.7112,1.7112,1.7112,1.7112,1.7112,1.7128,1.7169,1.7177,1.7193,1.7218,1.7193,1.7169,1.7177,1.7218,1.7307,1.7437,1.7486,1.7575,1.7713,1.7892,1.7973,1.7989,1.8119,1.8176,1.816,1.8038,1.7981,1.7957,1.7827,1.7762,1.7762,1.7762,1.7762,1.7762,1.7762,1.7762,1.7762,1.7762,1.7656,1.7453,1.7445,1.7218,1.6801,1.6506,1.6071,1.5729,1.5031,1.4499,1.4291,1.3946,1.3508,1.2903,1.2125,1.1345,1.0391,0.9435,0.8229,0.6589,0.5172,0.389,0.3016,0.2954,0.2981,0.3003,0.3013,0.3017,0.302,0.3037,0.3146,0.3146,0.3148,0.3148,0.3149,0.308,0.3095,0.31,0.313,0.3153,0.3153,0.3159,0.3174,0.3191,0.3198,0.3205,0.3223,0.323,0.323,0.323,0.323,0.3129,0.2827,0.2221,0.1616,0.1414,0.0707,0.0,0.0,0.0,0.0,0.0,0.0,0.0,0.0,0.0,0.0,0.0,0.0,0.0,0.0,0.0,0.0,0.0,0.0,0.0,1.7112,1.7112,1.7112,1.7112,1.712,1.712,1.721,1.7356,1.7364,1.7453,1.7551,1.7429,1.7364,1.738,1.7518,1.7591,1.7632,1.7794,1.7867,1.7908,1.807,1.8152,1.8144,1.8168,1.8176,1.8176,1.8152,1.8135,1.8135,1.8119,1.8119,1.8127,1.8127,1.8119,1.8119,1.8119,1.8119,1.8127,1.8127,1.7965,1.764,1.7616,1.7336,1.6951,1.6845,1.6325,1.5334,1.517,1.4654,1.383,1.3634,1.3192,1.239,1.1771,1.1062,1.0086,0.9104,0.7624,0.5525,0.4728,0.3932,0.314,0.2986,0.3003,0.3009,0.3033,0.3048,0.3145,0.3051,0.3148,0.3148,0.3148,0.3149,0.3153,0.3082,0.3097,0.3107,0.3149,0.3185,0.3185,0.3202,0.3223,0.3223,0.3223,0.3225,0.323,0.323,0.323,0.323,0.323,0.3029,0.2525,0.1919,0.1414,0.101,0.0404,0.0,0.0,0.0,0.0,0.0,0.0,0.0,0.0,0.0,0.0,0.0,0.0,0.0,0.0,0.0,0.0,0.0,0.0,0.0,1.7112,1.7112,1.7112,1.7177,1.7266,1.7274,1.7372,1.7526,1.7534,1.7575,1.7549,1.7681,1.764,1.7543,1.7607,1.7697,1.7811,1.7884,1.7973,1.8062,1.8144,1.8176,1.8176,1.8176,1.8176,1.8176,1.8176,1.8176,1.8176,1.8176,1.8233,1.833,1.8338,1.8338,1.8338,1.8338,1.829,1.8184,1.8176,1.801,1.7596,1.7676,1.748,1.6931,1.6651,1.5985,1.5021,1.4645,1.4126,1.3368,1.3355,1.2872,1.1816,1.1277,1.0565,0.9589,0.8203,0.6725,0.5236,0.4438,0.372,0.2987,0.3017,0.3033,0.3035,0.3062,0.308,0.3077,0.3159,0.3148,0.3149,0.3148,0.3155,0.3078,0.3107,0.3131,0.315,0.3187,0.3213,0.3215,0.3223,0.323,0.323,0.323,0.323,0.323,0.323,0.323,0.323,0.323,0.2827,0.2121,0.1717,0.1414,0.0909,0.0303,0.0,0.0,0.0,0.0,0.0,0.0,0.0,0.0,0.0,0.0,0.0,0.0,0.0,0.0,0.0,0.0,0.0,0.0,0.0,1.7112,1.712,1.7161,1.7266,1.7388,1.7437,1.7559,1.7705,1.7713,1.7746,1.7802,1.7932,1.7916,1.7802,1.7786,1.7867,1.7973,1.7989,1.8054,1.8168,1.8176,1.8176,1.8176,1.8176,1.8176,1.8176,1.8176,1.82,1.8249,1.8314,1.8395,1.8509,1.8525,1.8525,1.8525,1.8525,1.8365,1.815,1.8134,1.7852,1.7467,1.7546,1.7382,1.6628,1.6147,1.5484,1.4618,1.4159,1.354,1.2776,1.2776,1.2277,1.1199,1.065,0.9936,0.8771,0.7282,0.5972,0.5106,0.4211,0.3485,0.3125,0.3054,0.3069,0.3078,0.3097,0.311,0.3108,0.3089,0.308,0.3077,0.3077,0.3086,0.311,0.3137,0.3164,0.3185,0.3213,0.323,0.323,0.323,0.323,0.323,0.323,0.323,0.323,0.323,0.323,0.313,0.3029,0.2625,0.1717,0.1515,0.1111,0.0707,0.0303,0.0,0.0,0.0,0.0,0.0,0.0,0.0,0.0,0.0,0.0,0.0,0.0,0.0,0.0,0.0,0.0,0.0,0.0,0.0,1.7112,1.7136,1.7299,1.7388,1.7404,1.7567,1.7737,1.7908,1.7908,1.7989,1.8111,1.8144,1.8152,1.8127,1.8119,1.8152,1.816,1.8152,1.816,1.8176,1.8176,1.8176,1.8176,1.8176,1.8176,1.82,1.82,1.8282,1.8436,1.8606,1.8704,1.8712,1.8712,1.8712,1.8712,1.8616,1.8416,1.7984,1.7881,1.7616,1.7143,1.7136,1.6678,1.5946,1.5535,1.4906,1.4235,1.3746,1.3037,1.1894,1.1889,1.1425,1.0412,0.9858,0.8936,0.7565,0.6466,0.5482,0.4593,0.395,0.3509,0.3177,0.3093,0.3107,0.3127,0.3137,0.3141,0.3141,0.314,0.3138,0.3138,0.3131,0.3134,0.3141,0.3167,0.3183,0.319,0.3215,0.3228,0.323,0.323,0.323,0.323,0.323,0.323,0.323,0.323,0.323,0.3129,0.2827,0.2222,0.1717,0.1212,0.0606,0.0202,0.0,0.0,0.0,0.0,0.0,0.0,0.0,0.0,0.0,0.0,0.0,0.0,0.0,0.0,0.0,0.0,0.0,0.0,0.0,0.0,1.7185,1.7291,1.7356,1.7518,1.7729,1.7794,1.7916,1.8079,1.8079,1.8111,1.8168,1.8176,1.8176,1.8176,1.8176,1.8176,1.8176,1.8176,1.8176,1.8176,1.8176,1.8176,1.8176,1.8176,1.8241,1.8338,1.8449,1.8444,1.8615,1.8696,1.8785,1.8874,1.8891,1.8891,1.8794,1.86,1.8254,1.7862,1.7262,1.6594,1.6118,1.5822,1.5188,1.4322,1.4901,1.4545,1.2979,1.281,1.2141,1.1001,1.0996,1.0499,0.9429,0.8596,0.7696,0.6622,0.5882,0.508,0.42,0.3639,0.3275,0.312,0.3126,0.313,0.3144,0.316,0.3172,0.3174,0.319,0.3198,0.319,0.3167,0.315,0.317,0.3182,0.3197,0.3212,0.3224,0.323,0.323,0.323,0.323,0.323,0.323,0.323,0.323,0.323,0.323,0.313,0.2726,0.2222,0.1616,0.1111,0.0606,0.0101,0.0,0.0,0.0,0.0,0.0,0.0,0.0,0.0,0.0,0.0,0.0,0.0,0.0,0.0,0.0,0.0,0.0,0.0,0.0,0.0,1.7307,1.7461,1.7534,1.7697,1.7908,1.7981,1.8062,1.8176,1.8176,1.8176,1.8176,1.8176,1.8176,1.8176,1.8176,1.8176,1.8176,1.8176,1.8176,1.8176,1.8176,1.8176,1.8184,1.8233,1.833,1.846,1.8582,1.8688,1.8801,1.8866,1.8964,1.9069,1.9069,1.8971,1.8776,1.8482,1.8028,1.7344,1.6453,1.5673,1.4983,1.4501,1.3718,1.3113,1.3588,1.35,1.2122,1.1942,1.1392,1.0564,1.0271,0.9565,0.8263,0.741,0.6682,0.5871,0.5119,0.4488,0.3973,0.3402,0.3125,0.3155,0.3157,0.316,0.3171,0.319,0.32,0.3206,0.3217,0.323,0.3223,0.3194,0.318,0.3198,0.3202,0.3209,0.3227,0.323,0.323,0.323,0.323,0.323,0.323,0.323,0.323,0.323,0.323,0.3129,0.2928,0.2525,0.1919,0.1414,0.0808,0.0403,0.0,0.0,0.0,0.0,0.0,0.0,0.0,0.0,0.0,0.0,0.0,0.0,0.0,0.0,0.0,0.0,0.0,0.0,0.0,0.0,0.0,1.7486,1.7656,1.7835,1.79,1.7965,1.8095,1.8168,1.8176,1.8176,1.8176,1.8176,1.8176,1.8176,1.8176,1.8176,1.8176,1.8176,1.8192,1.8192,1.8176,1.8192,1.82,1.8208,1.8379,1.8476,1.8525,1.8818,1.8972,1.8996,1.9126,1.9216,1.9248,1.9232,1.892,1.854,1.8335,1.7551,1.634,1.5532,1.4651,1.3772,1.3145,1.2542,1.1948,1.1461,1.1363,1.1465,1.1051,1.0542,1.0064,0.9578,0.8577,0.7144,0.6461,0.5893,0.531,0.4446,0.3984,0.3821,0.3437,0.3156,0.3182,0.3189,0.3198,0.3215,0.3224,0.3225,0.3225,0.3228,0.323,0.323,0.3224,0.3223,0.323,0.3225,0.3227,0.323,0.323,0.323,0.323,0.323,0.323,0.323,0.323,0.323,0.323,0.323,0.3029,0.2626,0.2121,0.1414,0.0909,0.0,0.0,0.0,0.0,0.0,0.0,0.0,0.0,0.0,0.0,0.0,0.0,0.0,0.0,0.0,0.0,0.0,0.0,0.0,0.0,0.0,0.0,0.0,1.7664,1.7827,1.7892,1.7989,1.8095,1.816,1.8176,1.8176,1.8176,1.8176,1.8176,1.8176,1.8176,1.8176,1.8176,1.8176,1.8184,1.8298,1.8298,1.8217,1.8306,1.8363,1.8403,1.855,1.8696,1.8834,1.9061,1.9175,1.9183,1.9232,1.9264,1.9256,1.896,1.8655,1.8358,1.7466,1.6374,1.5578,1.4283,1.3079,1.2074,1.1578,1.0877,0.997,0.9644,0.9516,0.9185,0.9276,0.9021,0.863,0.8434,0.7736,0.6546,0.5666,0.498,0.4395,0.4102,0.3728,0.3465,0.3273,0.3186,0.3209,0.3216,0.322,0.3228,0.323,0.323,0.323,0.323,0.323,0.323,0.323,0.323,0.323,0.323,0.323,0.323,0.323,0.323,0.323,0.323,0.323,0.323,0.323,0.323,0.323,0.323,0.2928,0.2424,0.1919,0.1414,0.0909,0.0,0.0,0.0,0.0,0.0,0.0,0.0,0.0,0.0,0.0,0.0,0.0,0.0,0.0,0.0,0.0,0.0,0.0,0.0,0.0,0.0,0.0,0.0,1.7851,1.8005,1.8014,1.807,1.8176,1.8176,1.8176,1.8176,1.8176,1.8176,1.8176,1.8176,1.8176,1.8192,1.8249,1.8282,1.8298,1.8468,1.8493,1.8403,1.8493,1.855,1.8582,1.8736,1.8915,1.9077,1.9207,1.9256,1.9264,1.9264,1.9157,1.896,1.8655,1.816,1.7566,1.6374,1.5379,1.4383,1.2784,1.1578,1.0676,0.9773,0.8974,0.8367,0.7965,0.7562,0.7254,0.7178,0.7336,0.7435,0.7237,0.6533,0.5429,0.4735,0.4145,0.3751,0.3654,0.3468,0.32,0.3204,0.321,0.3227,0.323,0.323,0.323,0.323,0.323,0.323,0.323,0.323,0.323,0.323,0.323,0.323,0.323,0.323,0.323,0.323,0.323,0.323,0.323,0.323,0.323,0.323,0.323,0.323,0.3029,0.2726,0.2222,0.1616,0.1111,0.0707,0.0,0.0,0.0,0.0,0.0,0.0,0.0,0.0,0.0,0.0,0.0,0.0,0.0,0.0,0.0,0.0,0.0,0.0,0.0,0.0,0.0,0.0,0.0,1.803,1.8168,1.8176,1.8168,1.8176,1.8176,1.8176,1.8176,1.8176,1.8176,1.8176,1.8208,1.8208,1.8241,1.8387,1.8468,1.8501,1.8655,1.8736,1.872,1.8761,1.8777,1.8809,1.8931,1.9077,1.9216,1.9248,1.9256,1.9264,1.9264,1.9058,1.8556,1.8457,1.7665,1.6474,1.5578,1.4383,1.2884,1.1378,1.0275,0.9476,0.8169,0.7264,0.7163,0.6256,0.5853,0.575,0.534,0.5642,0.6757,0.614,0.5217,0.4291,0.3985,0.3687,0.329,0.319,0.3202,0.3223,0.3225,0.3227,0.323,0.323,0.323,0.323,0.323,0.323,0.323,0.323,0.323,0.323,0.323,0.323,0.323,0.323,0.323,0.323,0.323,0.323,0.323,0.323,0.323,0.323,0.323,0.3129,0.3029,0.2727,0.2323,0.1616,0.1111,0.0606,0.0,0.0,0.0,0.0,0.0,0.0,0.0,0.0,0.0,0.0,0.0,0.0,0.0,0.0,0.0,0.0,0.0,0.0,0.0,0.0,0.0,0.0,0.0,0.0,1.8135,1.8176,1.8176,1.8176,1.8176,1.8176,1.8176,1.8176,1.8176,1.8176,1.82,1.8322,1.8465,1.8498,1.8566,1.8655,1.8696,1.8834,1.8915,1.8939,1.9061,1.911,1.9118,1.9159,1.9207,1.9256,1.9264,1.9264,1.9264,1.9264,1.896,1.8457,1.8061,1.7275,1.6182,1.4775,1.3279,1.1778,1.058,0.907,0.7562,0.6959,0.6256,0.5452,0.515,0.5049,0.4948,0.4544,0.4544,0.5251,0.4845,0.4337,0.4023,0.3619,0.3417,0.3216,0.3219,0.322,0.3228,0.323,0.323,0.323,0.323,0.323,0.323,0.323,0.323,0.323,0.323,0.323,0.323,0.323,0.323,0.323,0.323,0.323,0.323,0.323,0.323,0.323,0.323,0.323,0.313,0.313,0.3029,0.2726,0.2424,0.202,0.1313,0.0909,0.0,0.0,0.0,0.0,0.0,0.0,0.0,0.0,0.0,0.0,0.0,0.0,0.0,0.0,0.0,0.0,0.0,0.0,0.0,0.0,0.0,0.0,0.0,0.0,0.0,1.8176,1.8176,1.8176,1.8176,1.8176,1.8176,1.8176,1.8176,1.8176,1.8225,1.8298,1.8403,1.8493,1.8582,1.8753,1.8834,1.8858,1.9013,1.9094,1.911,1.9199,1.9248,1.9256,1.9256,1.9264,1.9264,1.9264,1.9264,1.9264,1.9264,1.8861,1.8267,1.787,1.697,1.5379,1.4077,1.2574,1.0977,0.9677,0.8169,0.6657,0.6055,0.5349,0.4544,0.4242,0.4139,0.4038,0.3836,0.3937,0.4242,0.4038,0.3635,0.3635,0.3332,0.323,0.323,0.323,0.323,0.323,0.323,0.323,0.323,0.323,0.323,0.323,0.323,0.323,0.323,0.323,0.323,0.323,0.323,0.323,0.323,0.323,0.323,0.323,0.323,0.323,0.323,0.323,0.313,0.2928,0.2928,0.2626,0.2121,0.1818,0.1414,0.0909,0.0707,0.0,0.0,0.0,0.0,0.0,0.0,0.0,0.0,0.0,0.0,0.0,0.0,0.0,0.0,0.0,0.0,0.0,0.0,0.0,0.0,0.0,0.0,0.0,0.0,0.0,1.8176,1.8176,1.8176,1.8176,1.8176,1.8176,1.8176,1.8176,1.8176,1.8273,1.842,1.8468,1.8598,1.8761,1.8931,1.9013,1.9021,1.9159,1.9224,1.924,1.9256,1.9264,1.9264,1.9264,1.9264,1.9264,1.9264,1.9264,1.9264,1.9264,1.8663,1.797,1.7771,1.6474,1.4875,1.3473,1.2074,1.0476,0.8974,0.7562,0.6254,0.5349,0.4645,0.4038,0.3534,0.3433,0.3332,0.3231,0.3433,0.3836,0.3433,0.3332,0.323,0.323,0.3234,0.3238,0.3239,0.3239,0.3236,0.3239,0.3234,0.3232,0.323,0.323,0.323,0.323,0.323,0.323,0.323,0.323,0.323,0.323,0.323,0.323,0.323,0.323,0.323,0.323,0.323,0.3231,0.313,0.2827,0.2626,0.2323,0.2121,0.1616,0.1313,0.101,0.0606,0.0404,0.0,0.0,0.0,0.0,0.0,0.0,0.0,0.0,0.0,0.0,0.0,0.0,0.0,0.0,0.0,0.0,0.0,0.0,0.0,0.0,0.0,0.0,0.0,0.0,0.0,1.8176,1.8176,1.8176,1.8176,1.8176,1.8176,1.8176,1.8176,1.8176,1.8298,1.8452,1.8598,1.8761,1.8939,1.9102,1.9199,1.9183,1.924,1.9256,1.9264,1.9264,1.9264,1.9264,1.9264,1.9264,1.9264,1.9264,1.9264,1.9264,1.9157,1.8762,1.7771,1.7474,1.6672,1.4576,1.3373,1.1874,1.007,0.8668,0.7163,0.5551,0.5049,0.4343,0.3534,0.3231,0.323,0.323,0.323,0.3231,0.3332,0.3234,0.3238,0.3235,0.3235,0.3246,0.3261,0.3266,0.3265,0.3266,0.3265,0.3254,0.3236,0.3234,0.323,0.323,0.323,0.323,0.323,0.323,0.323,0.323,0.323,0.323,0.323,0.323,0.323,0.323,0.323,0.323,0.313,0.2828,0.2525,0.2323,0.1919,0.1616,0.1111,0.0,0.0,0.0,0.0,0.0,0.0,0.0,0.0,0.0,0.0,0.0,0.0,0.0,0.0,0.0,0.0,0.0,0.0,0.0,0.0,0.0,0.0,0.0,0.0,0.0,0.0,0.0,0.0,0.0,1.8176,1.8176,1.8176,1.8176,1.8176,1.8176,1.8176,1.8192,1.8273,1.8412,1.859,1.8769,1.8948,1.911,1.9216,1.9256,1.9264,1.9264,1.9264,1.9264,1.9264,1.9264,1.9264,1.9264,1.9264,1.9264,1.9264,1.9264,1.9256,1.896,1.8358,1.7367,1.7077,1.5877,1.4283,1.3084,1.1573,0.987,0.8668,0.7062,0.515,0.4746,0.4242,0.3433,0.323,0.323,0.323,0.3246,0.325,0.3255,0.3265,0.3265,0.3258,0.3265,0.3281,0.3292,0.3296,0.3296,0.3296,0.3295,0.3284,0.3254,0.3251,0.3242,0.3235,0.323,0.323,0.323,0.323,0.323,0.323,0.323,0.323,0.323,0.323,0.323,0.3231,0.3231,0.3029,0.2827,0.2626,0.2121,0.1818,0.1416,0.1011,0.0607,0.0,0.0,0.0,0.0,0.0,0.0,0.0,0.0,0.0,0.0,0.0,0.0,0.0,0.0,0.0,0.0,0.0,0.0,0.0,0.0,0.0,0.0,0.0,0.0,0.0,0.0,0.0,0.0,0.0,1.8176,1.8176,1.8176,1.8176,1.8184,1.8208,1.8225,1.8249,1.8412,1.8598,1.8761,1.8923,1.9061,1.9224,1.9256,1.9264,1.9264,1.9264,1.9264,1.9264,1.9264,1.9264,1.9264,1.9157,1.9058,1.9157,1.9157,1.9157,1.896,1.8556,1.7665,1.6772,1.6076,1.5081,1.3684,1.2484,1.1177,0.9569,0.8568,0.7059,0.515,0.4748,0.4244,0.3444,0.3242,0.3247,0.3255,0.327,0.3283,0.3284,0.3311,0.3311,0.3303,0.3305,0.3325,0.3326,0.3328,0.3328,0.3328,0.3325,0.3313,0.3281,0.3275,0.326,0.3239,0.323,0.323,0.323,0.323,0.323,0.323,0.323,0.323,0.323,0.323,0.3232,0.3236,0.3135,0.2834,0.2525,0.2122,0.1617,0.1215,0.0812,0.0406,0.0,0.0,0.0,0.0,0.0,0.0,0.0,0.0,0.0,0.0,0.0,0.0,0.0,0.0,0.0,0.0,0.0,0.0,0.0,0.0,0.0,0.0,0.0,0.0,0.0,0.0,0.0,0.0,0.0,0.0,1.8176,1.8176,1.8176,1.8176,1.82,1.8338,1.8412,1.853,1.8598,1.8777,1.8923,1.898,1.9102,1.9224,1.9264,1.9264,1.9264,1.9264,1.9264,1.9264,1.9264,1.9264,1.9157,1.8861,1.8655,1.8655,1.8556,1.8457,1.8358,1.7657,1.6772,1.6076,1.528,1.4083,1.2984,1.1884,1.0576,0.9275,0.8378,0.6869,0.5358,0.4659,0.4267,0.3367,0.3268,0.3279,0.3298,0.3309,0.3314,0.3317,0.3343,0.3352,0.3347,0.3335,0.3339,0.3354,0.3359,0.3359,0.3359,0.3358,0.3329,0.3292,0.3279,0.3264,0.3242,0.3231,0.323,0.323,0.323,0.323,0.323,0.3235,0.3232,0.3232,0.3238,0.3145,0.316,0.2858,0.2445,0.2132,0.1622,0.1116,0.0713,0.0,0.0,0.0,0.0,0.0,0.0,0.0,0.0,0.0,0.0,0.0,0.0,0.0,0.0,0.0,0.0,0.0,0.0,0.0,0.0,0.0,0.0,0.0,0.0,0.0,0.0,0.0,0.0,0.0,0.0,0.0,0.0,1.8176,1.8184,1.8367,1.8322,1.8347,1.8517,1.859,1.8623,1.8777,1.8899,1.8988,1.9077,1.9167,1.924,1.9264,1.9264,1.9264,1.9264,1.9264,1.9264,1.9264,1.9157,1.8952,1.8556,1.816,1.7764,1.7466,1.7367,1.7558,1.6566,1.5671,1.4775,1.3978,1.3084,1.2084,1.0982,0.9982,0.8881,0.8103,0.6809,0.4986,0.4388,0.3697,0.3499,0.3299,0.3307,0.3318,0.334,0.3344,0.335,0.3374,0.3386,0.3384,0.3378,0.3373,0.3386,0.3389,0.3389,0.3389,0.3389,0.3369,0.333,0.3309,0.3285,0.3258,0.3242,0.3234,0.3232,0.3231,0.3236,0.3253,0.3253,0.3261,0.3275,0.3276,0.3076,0.2882,0.237,0.2056,0.1743,0.1233,0.072,0.0412,0.0,0.0,0.0,0.0,0.0,0.0,0.0,0.0,0.0,0.0,0.0,0.0,0.0,0.0,0.0,0.0,0.0,0.0,0.0,0.0,0.0,0.0,0.0,0.0,0.0,0.0,0.0,0.0,0.0,0.0,0.0,0.0,1.8249,1.8298,1.8444,1.8509,1.8533,1.8696,1.8777,1.8818,1.8964,1.9045,1.9061,1.9183,1.9248,1.9264,1.9264,1.9264,1.9264,1.9264,1.9264,1.9256,1.9157,1.8853,1.8556,1.8061,1.7566,1.6772,1.5731,1.5804,1.6076,1.5273,1.4277,1.339,1.27,1.1919,1.0918,0.9949,0.9217,0.8434,0.7757,0.6462,0.4935,0.3824,0.3325,0.333,0.333,0.3333,0.3348,0.3365,0.3374,0.3381,0.3396,0.341,0.3411,0.3411,0.3411,0.3411,0.3411,0.3411,0.3411,0.341,0.3393,0.3358,0.3341,0.3317,0.3291,0.3269,0.3253,0.3249,0.3251,0.3261,0.3281,0.3284,0.3295,0.3307,0.3212,0.3011,0.2495,0.1978,0.146,0.1146,0.073,0.0,0.0,0.0,0.0,0.0,0.0,0.0,0.0,0.0,0.0,0.0,0.0,0.0,0.0,0.0,0.0,0.0,0.0,0.0,0.0,0.0,0.0,0.0,0.0,0.0,0.0,0.0,0.0,0.0,0.0,0.0,0.0,0.0,0.0,1.8509,1.8663,1.868,1.8696,1.872,1.8883,1.8956,1.898,1.9134,1.9224,1.9207,1.924,1.9264,1.9264,1.9264,1.9264,1.9264,1.9264,1.9264,1.9157,1.8754,1.8465,1.8168,1.6977,1.6416,1.5744,1.4214,1.4072,1.4143,1.3518,1.2901,1.2125,1.1079,1.0096,0.9897,0.8924,0.8163,0.7544,0.6931,0.5905,0.446,0.3637,0.334,0.3355,0.3363,0.337,0.3386,0.3397,0.3401,0.3403,0.3407,0.3411,0.3411,0.3411,0.3411,0.3411,0.3411,0.3411,0.3411,0.3411,0.3403,0.3377,0.336,0.3344,0.3318,0.3306,0.33,0.331,0.3306,0.3307,0.3313,0.3315,0.3318,0.3117,0.2918,0.2717,0.2305,0.168,0.1052,0.0738,0.0422,0.0,0.0,0.0,0.0,0.0,0.0,0.0,0.0,0.0,0.0,0.0,0.0,0.0,0.0,0.0,0.0,0.0,0.0,0.0,0.0,0.0,0.0,0.0,0.0,0.0,0.0,0.0,0.0,0.0,0.0,0.0,0.0,0.0,0.0,1.8744,1.8736,1.8834,1.8874,1.8891,1.9061,1.9142,1.9159,1.9224,1.9264,1.9264,1.9264,1.9264,1.9264,1.9264,1.9264,1.9264,1.9256,1.9058,1.877,1.8275,1.7717,1.7085,1.6212,1.5529,1.4291,1.3225,1.2119,1.2069,1.1759,1.1357,1.0746,0.9861,0.9269,0.8756,0.786,0.7253,0.6643,0.5838,0.4926,0.4209,0.3689,0.3378,0.339,0.339,0.3399,0.3407,0.3411,0.3411,0.3411,0.3411,0.3411,0.3411,0.3411,0.3411,0.3411,0.3411,0.3411,0.3411,0.3411,0.3403,0.3392,0.3377,0.3351,0.3329,0.3324,0.3324,0.332,0.3321,0.3329,0.3343,0.3345,0.3358,0.3153,0.2732,0.2317,0.2008,0.1376,0.0849,0.0532,0.0,0.0,0.0,0.0,0.0,0.0,0.0,0.0,0.0,0.0,0.0,0.0,0.0,0.0,0.0,0.0,0.0,0.0,0.0,0.0,0.0,0.0,0.0,0.0,0.0,0.0,0.0,0.0,0.0,0.0,0.0,0.0,0.0,0.0,0.0,1.8972,1.8874,1.8996,1.9053,1.9061,1.9199,1.9256,1.9256,1.9256,1.9264,1.9264,1.9264,1.9264,1.9264,1.9264,1.9264,1.9264,1.9157,1.8893,1.8405,1.7739,1.6927,1.6105,1.5348,1.4165,1.2729,1.2028,1.1001,1.0079,0.9573,0.9469,0.9224,0.8614,0.811,0.7493,0.6786,0.6175,0.5759,0.4946,0.4338,0.3934,0.362,0.3408,0.341,0.3411,0.3411,0.3411,0.3411,0.3411,0.3411,0.3411,0.3411,0.3411,0.3411,0.3411,0.3411,0.3411,0.3411,0.3411,0.3411,0.3411,0.3404,0.3396,0.3374,0.3355,0.3344,0.3344,0.3351,0.3351,0.336,0.337,0.3377,0.3279,0.2972,0.2659,0.213,0.1598,0.0958,0.0,0.0,0.0,0.0,0.0,0.0,0.0,0.0,0.0,0.0,0.0,0.0,0.0,0.0,0.0,0.0,0.0,0.0,0.0,0.0,0.0,0.0,0.0,0.0,0.0,0.0,0.0,0.0,0.0,0.0,0.0,0.0,0.0,0.0,0.0,0.0,0.0,1.924,1.9224,1.9232,1.9232,1.9232,1.9256,1.9264,1.9264,1.9264,1.9264,1.9264,1.9264,1.9264,1.9264,1.9281,1.9289,1.9272,1.8754,1.8574,1.8059,1.7199,1.6165,1.5233,1.415,1.2827,1.163,1.0756,0.9647,0.8511,0.7598,0.7555,0.7487,0.7121,0.6609,0.61,0.5698,0.5082,0.4767,0.4248,0.3934,0.3729,0.3411,0.3411,0.3411,0.3411,0.3411,0.3411,0.3411,0.3411,0.3411,0.3411,0.3411,0.3411,0.3411,0.3411,0.3411,0.3411,0.3411,0.3411,0.3411,0.3411,0.3411,0.3407,0.34,0.339,0.3399,0.3403,0.3395,0.3388,0.3395,0.3403,0.3302,0.3193,0.2768,0.2345,0.1812,0.1172,0.0533,0.0,0.0,0.0,0.0,0.0,0.0,0.0,0.0,0.0,0.0,0.0,0.0,0.0,0.0,0.0,0.0,0.0,0.0,0.0,0.0,0.0,0.0,0.0,0.0,0.0,0.0,0.0,0.0,0.0,0.0,0.0,0.0,0.0,0.0,0.0,0.0,0.0,1.9264,1.9264,1.9264,1.9264,1.9264,1.9264,1.9264,1.9264,1.9264,1.9264,1.9264,1.9264,1.9264,1.9289,1.9378,1.9419,1.9335,1.9047,1.8497,1.7625,1.6551,1.5398,1.4341,1.3254,1.2137,1.0722,0.9616,0.847,0.742,0.6382,0.5627,0.5604,0.5715,0.5613,0.5311,0.4892,0.437,0.3947,0.3732,0.3625,0.3517,0.3411,0.3411,0.3411,0.3411,0.3411,0.3411,0.3411,0.3411,0.3414,0.3415,0.3416,0.3418,0.3418,0.3418,0.3418,0.3418,0.3418,0.3416,0.3414,0.3411,0.3411,0.3411,0.3414,0.3418,0.3414,0.3412,0.3411,0.3414,0.3415,0.3412,0.3411,0.3196,0.2665,0.2134,0.1602,0.1068,0.0535,0.0,0.0,0.0,0.0,0.0,0.0,0.0,0.0,0.0,0.0,0.0,0.0,0.0,0.0,0.0,0.0,0.0,0.0,0.0,0.0,0.0,0.0,0.0,0.0,0.0,0.0,0.0,0.0,0.0,0.0,0.0,0.0,0.0,0.0,0.0,0.0,0.0,1.9264,1.9264,1.9264,1.9264,1.9264,1.9264,1.9264,1.9264,1.9264,1.9297,1.9337,1.9337,1.9378,1.9435,1.9332,1.9295,1.9126,1.8698,1.796,1.6974,1.5776,1.4509,1.3329,1.2121,1.0984,0.9678,0.8515,0.745,0.6278,0.5326,0.4693,0.4487,0.4385,0.4595,0.4476,0.4275,0.3852,0.3533,0.3435,0.3438,0.3441,0.3441,0.3442,0.3444,0.3445,0.3445,0.3446,0.3448,0.3446,0.3445,0.3444,0.3442,0.3441,0.344,0.3438,0.3438,0.3438,0.3438,0.3437,0.3429,0.3431,0.3444,0.3445,0.3444,0.3438,0.3438,0.3448,0.3444,0.3435,0.3426,0.3426,0.3429,0.3216,0.2682,0.2371,0.1943,0.151,0.1079,0.0863,0.0,0.0,0.0,0.0,0.0,0.0,0.0,0.0,0.0,0.0,0.0,0.0,0.0,0.0,0.0,0.0,0.0,0.0,0.0,0.0,0.0,0.0,0.0,0.0,0.0,0.0,0.0,0.0,0.0,0.0,0.0,0.0,0.0,0.0,0.0,0.0,1.9264,1.9264,1.9264,1.9264,1.9264,1.9264,1.9264,1.9264,1.9281,1.937,1.95,1.9516,1.9597,1.961,1.9244,1.9073,1.8783,1.799,1.7139,1.6513,1.5087,1.3807,1.2596,1.1363,1.0086,0.8621,0.7467,0.6407,0.523,0.4603,0.4079,0.3772,0.3778,0.3769,0.3526,0.355,0.3564,0.346,0.3483,0.3489,0.3489,0.3487,0.3486,0.3486,0.3484,0.3483,0.3482,0.3483,0.3482,0.3482,0.3484,0.3484,0.3486,0.3487,0.3489,0.349,0.3493,0.3495,0.3497,0.3472,0.3472,0.3483,0.348,0.3484,0.3494,0.3495,0.3598,0.3693,0.3576,0.3565,0.3564,0.3456,0.324,0.2811,0.2499,0.2176,0.174,0.1522,0.1303,0.1194,0.1527,0.0,0.0,0.0,0.0,0.0,0.0,0.0,0.0,0.0,0.0,0.0,0.0,0.0,0.0,0.0,0.0,0.0,0.0,0.0,0.0,0.0,0.0,0.0,0.0,0.0,0.0,0.0,0.0,0.0,0.0,0.0,0.0,0.0,0.0,1.9264,1.9264,1.9264,1.9264,1.9264,1.9264,1.9264,1.9281,1.9378,1.9524,1.967,1.9695,1.9517,1.93,1.9103,1.8834,1.8446,1.7633,1.6876,1.6152,1.4581,1.3243,1.2012,1.0755,0.9371,0.8,0.6848,0.5697,0.4625,0.41,0.3796,0.3486,0.349,0.3483,0.3476,0.3484,0.3487,0.3489,0.3498,0.3502,0.3504,0.3505,0.3506,0.3506,0.3508,0.3509,0.3509,0.351,0.351,0.351,0.351,0.3509,0.3509,0.3509,0.3508,0.3505,0.3505,0.3513,0.3523,0.3517,0.3509,0.351,0.3619,0.3619,0.3504,0.3504,0.3721,0.394,0.4041,0.4139,0.4139,0.4139,0.3812,0.2832,0.2513,0.2185,0.1966,0.1748,0.1639,0.1641,0.1756,0.199,0.1888,0.1777,0.1332,0.0779,0.0446,0.0112,0.0,0.0,0.0,0.0,0.0,0.0,0.0,0.0,0.0,0.0,0.0,0.0,0.0,0.0,0.0,0.0,0.0,0.0,0.0,0.0,0.0,0.0,0.0,0.0,0.0,0.0,0.0,1.9264,1.9264,1.9264,1.9157,1.9058,1.9256,1.919,1.9171,1.9231,1.9306,1.9347,1.9269,1.9214,1.8865,1.8743,1.8588,1.8091,1.7119,1.6118,1.5388,1.4019,1.2571,1.1316,1.0158,0.88,0.7417,0.6263,0.5205,0.4446,0.3818,0.3506,0.3516,0.3528,0.3542,0.354,0.3536,0.3517,0.3521,0.3529,0.3539,0.3538,0.3536,0.3536,0.3536,0.3536,0.3536,0.3535,0.3532,0.3532,0.3531,0.3531,0.3531,0.3532,0.3532,0.3532,0.3532,0.3535,0.3655,0.3777,0.3893,0.3993,0.4314,0.3975,0.3865,0.3975,0.4202,0.4422,0.4637,0.4731,0.4724,0.4724,0.4722,0.4394,0.3516,0.3415,0.3196,0.3199,0.3201,0.3201,0.2984,0.2879,0.2901,0.2579,0.2243,0.2016,0.1461,0.0902,0.045,0.0112,0.0,0.0,0.0,0.0,0.0,0.0,0.0,0.0,0.0,0.0,0.0,0.0,0.0,0.0,0.0,0.0,0.0,0.0,0.0,0.0,0.0,0.0,0.0,0.0,0.0,0.0,1.9256,1.9256,1.9256,1.896,1.8556,1.9,1.8996,1.8753,1.8815,1.8671,1.8513,1.8513,1.8573,1.8492,1.8111,1.7789,1.7489,1.6558,1.5518,1.4475,1.3344,1.1899,1.0549,0.928,0.8115,0.6967,0.5796,0.4815,0.4377,0.3847,0.3531,0.3551,0.3574,0.3592,0.3594,0.358,0.3559,0.357,0.3574,0.3583,0.3581,0.358,0.3574,0.3573,0.3574,0.3574,0.3574,0.3576,0.3579,0.358,0.3583,0.3584,0.3587,0.3588,0.3589,0.3699,0.3696,0.4032,0.4478,0.4478,0.4815,0.5135,0.5031,0.4819,0.4702,0.4912,0.5129,0.5346,0.5445,0.5434,0.5428,0.5428,0.5315,0.511,0.5016,0.5022,0.5141,0.5143,0.5143,0.5145,0.5037,0.4719,0.3939,0.3491,0.2827,0.2154,0.159,0.1134,0.068,0.0,0.0,0.0,0.0,0.0,0.0,0.0,0.0,0.0,0.0,0.0,0.0,0.0,0.0,0.0,0.0,0.0,0.0,0.0,0.0,0.0,0.0,0.0,0.0,0.0,0.0,1.8168,1.8168,1.8168,1.8069,1.8,1.832,1.8518,1.8466,1.8526,1.8528,1.8574,1.8574,1.8283,1.8013,1.7804,1.7286,1.6591,1.5904,1.4992,1.385,1.2716,1.1595,1.022,0.8709,0.7528,0.6352,0.5279,0.4415,0.3869,0.3549,0.3576,0.3609,0.3607,0.3624,0.3625,0.3618,0.3621,0.3622,0.3621,0.3614,0.3609,0.3598,0.3594,0.3589,0.3589,0.3589,0.3589,0.3589,0.3589,0.3589,0.3589,0.3589,0.3589,0.3589,0.3702,0.4262,0.4262,0.4486,0.5047,0.5495,0.5945,0.6281,0.6615,0.6503,0.6055,0.5831,0.6055,0.6379,0.6486,0.6471,0.6463,0.6466,0.6354,0.6255,0.6269,0.616,0.6281,0.6403,0.6403,0.665,0.6542,0.5769,0.4981,0.4319,0.3651,0.2975,0.2405,0.183,0.1258,0.0573,0.0,0.0,0.0,0.0,0.0,0.0,0.0,0.0,0.0,0.0,0.0,0.0,0.0,0.0,0.0,0.0,0.0,0.0,0.0,0.0,0.0,0.0,0.0,0.0,0.0,1.7672,1.7672,1.7672,1.764,1.7587,1.756,1.7667,1.7855,1.8091,1.815,1.8013,1.7908,1.7811,1.751,1.7243,1.6862,1.624,1.5188,1.4276,1.3432,1.2201,1.082,0.9535,0.8239,0.6939,0.5857,0.4991,0.4231,0.3678,0.3577,0.36,0.361,0.3618,0.3626,0.3629,0.3633,0.3649,0.3648,0.3643,0.3624,0.3611,0.36,0.3594,0.3589,0.3589,0.3589,0.3589,0.3589,0.3589,0.3589,0.3589,0.3589,0.3702,0.3814,0.4262,0.4824,0.5161,0.5607,0.6167,0.6727,0.7065,0.7513,0.8076,0.8293,0.807,0.7734,0.7734,0.7728,0.7619,0.751,0.7622,0.7625,0.751,0.7398,0.7286,0.7063,0.7188,0.7426,0.7562,0.7816,0.7383,0.6609,0.583,0.5164,0.4491,0.3808,0.3124,0.2433,0.1852,0.1157,0.0694,0.0,0.0,0.0,0.0,0.0,0.0,0.0,0.0,0.0,0.0,0.0,0.0,0.0,0.0,0.0,0.0,0.0,0.0,0.0,0.0,0.0,0.0,0.0,0.0,1.7573,1.7573,1.7588,1.7372,1.7218,1.6749,1.681,1.707,1.7503,1.751,1.709,1.7104,1.7117,1.6947,1.6723,1.625,1.5546,1.4559,1.3646,1.2886,1.1513,1.0132,0.8848,0.7535,0.6333,0.5478,0.4709,0.4029,0.3699,0.3591,0.3594,0.3594,0.36,0.3614,0.3633,0.3634,0.3643,0.3641,0.3622,0.3599,0.36,0.3595,0.3589,0.3589,0.3589,0.3589,0.3589,0.3589,0.3589,0.3589,0.3702,0.3702,0.4038,0.4497,0.5056,0.5626,0.6197,0.6768,0.7443,0.8119,0.8675,0.9005,0.9324,0.9907,1.0038,0.909,0.8856,0.8964,0.8852,0.8632,0.8632,0.8546,0.8447,0.8569,0.8688,0.8807,0.9162,0.9296,0.955,0.9472,0.8933,0.8043,0.6796,0.601,0.5459,0.4771,0.3964,0.3273,0.2688,0.1985,0.1397,0.1047,0.0,0.0,0.0,0.0,0.0,0.0,0.0,0.0,0.0,0.0,0.0,0.0,0.0,0.0,0.0,0.0,0.0,0.0,0.0,0.0,0.0,0.0,0.0,1.6481,1.6494,1.6606,1.6664,1.6735,1.6646,1.6802,1.6985,1.7206,1.7186,1.7012,1.7087,1.6936,1.653,1.6333,1.5745,1.4594,1.4031,1.3206,1.2148,1.0857,0.9547,0.8259,0.703,0.582,0.4819,0.415,0.3818,0.3595,0.3596,0.3604,0.3622,0.3625,0.3633,0.3639,0.364,0.3639,0.3634,0.3613,0.3606,0.3617,0.36,0.3589,0.3589,0.3589,0.3589,0.3589,0.3589,0.3589,0.3589,0.4039,0.4486,0.4935,0.5641,0.6223,0.6796,0.7502,0.8082,0.877,0.9558,1.0242,1.0821,1.117,1.1864,1.1716,1.0479,0.9869,1.0093,1.0093,0.9873,0.9772,0.9588,0.9508,0.9865,1.0223,1.0696,1.1056,1.1199,1.1342,1.093,1.0395,0.9264,0.801,0.6987,0.6436,0.563,0.4813,0.4231,0.3877,0.3285,0.2452,0.1984,0.1055,0.0,0.0585,0.0,0.0,0.0,0.0,0.0,0.0,0.0,0.0,0.0,0.0,0.0,0.0,0.0,0.0,0.0,0.0,0.0,0.0,0.0,0.0,1.6083,1.6103,1.6246,1.6435,1.6619,1.6714,1.687,1.7066,1.7161,1.7082,1.6863,1.6822,1.6648,1.6138,1.5825,1.5126,1.384,1.3172,1.2324,1.1253,1.0273,0.9062,0.7734,0.6508,0.5495,0.449,0.3944,0.3611,0.3611,0.3629,0.3645,0.3654,0.3655,0.3655,0.3655,0.3654,0.3648,0.3633,0.3618,0.3622,0.3634,0.361,0.3591,0.3589,0.3589,0.3589,0.3702,0.3814,0.4038,0.427,0.4841,0.566,0.624,0.6948,0.753,0.822,0.8926,0.9643,1.0338,1.1029,1.1834,1.2296,1.2739,1.3171,1.3622,1.2489,1.192,1.2033,1.1698,1.1472,1.1476,1.1397,1.1405,1.1646,1.1663,1.1908,1.2177,1.2218,1.2387,1.2219,1.1549,1.0623,0.9356,0.8195,0.7638,0.7169,0.6239,0.5533,0.518,0.4592,0.3752,0.2925,0.2232,0.1525,0.1284,0.0935,0.0,0.0,0.0234,0.0,0.0,0.0,0.0,0.0,0.0,0.0,0.0,0.0,0.0,0.0,0.0,0.0,0.0,0.0,0.0,1.613,1.6157,1.6307,1.651,1.6741,1.6802,1.6951,1.7168,1.7129,1.6902,1.6455,1.627,1.627,1.5651,1.4868,1.425,1.3413,1.2251,1.1291,1.0412,0.9317,0.8209,0.7092,0.5853,0.4965,0.4411,0.3859,0.3639,0.3641,0.3658,0.367,0.3679,0.3685,0.3686,0.3688,0.3692,0.369,0.3678,0.3664,0.3648,0.3632,0.3609,0.3595,0.3589,0.3589,0.3591,0.3818,0.4158,0.4497,0.5303,0.6006,0.6832,0.7667,0.838,0.8966,0.9668,1.0614,1.1201,1.1767,1.2585,1.3035,1.3484,1.3916,1.4374,1.4836,1.4602,1.4026,1.3678,1.3335,1.2849,1.2849,1.2753,1.2758,1.2996,1.3016,1.3154,1.3208,1.3251,1.3314,1.3265,1.2564,1.175,1.0696,0.9648,0.9061,0.8592,0.8004,0.7299,0.6594,0.5768,0.5051,0.4223,0.3525,0.2929,0.2215,0.1521,0.1058,0.0704,0.0469,0.0235,0.0,0.0,0.0,0.0,0.0,0.0,0.0,0.0,0.0,0.0,0.0,0.0,0.0,0.0,0.0,1.6334,1.6449,1.6605,1.6707,1.6788,1.6998,1.7141,1.7123,1.7021,1.6813,1.6307,1.5191,1.4646,1.4545,1.4453,1.3722,1.2265,1.1201,1.0643,0.9973,0.8469,0.7356,0.6348,0.5229,0.4457,0.4006,0.3779,0.367,0.3675,0.3681,0.3685,0.369,0.3715,0.372,0.3724,0.3733,0.3745,0.3731,0.3718,0.3703,0.3664,0.3636,0.3596,0.3589,0.3589,0.3944,0.4298,0.4534,0.5233,0.6168,0.7213,0.8148,0.8986,0.9946,1.0541,1.1135,1.2094,1.2817,1.3512,1.4091,1.4549,1.5138,1.5595,1.6069,1.619,1.5849,1.5369,1.5116,1.4616,1.3479,1.3359,1.3188,1.3208,1.3699,1.395,1.4223,1.4385,1.428,1.4305,1.4093,1.3626,1.2807,1.1988,1.1173,1.0587,1.0,0.9179,0.8592,0.8239,0.7294,0.6352,0.5647,0.4939,0.3748,0.28,0.2111,0.1648,0.1176,0.0824,0.0471,0.0,0.0,0.0,0.0,0.0,0.0,0.0,0.0,0.0,0.0,0.0,0.0,0.0,0.0,0.0]}]]